<?xml version="1.0" encoding="UTF-8" standalone="no" ?>
<gpx xmlns="http://www.topografix.com/GPX/1/1" xmlns:xsi="http://www.w3.org/2001/XMLSchema-instance" xsi:schemaLocation="http://www.topografix.com/GPX/1/1 http://www.topografix.com/GPX/1/1/gpx.xsd" version="1.1" creator="VisuGPX - https://www.visugpx.com">
  <metadata>
    <name>Labruguière 2015-10-28</name>
    <desc><![CDATA[
]]></desc>
  </metadata>
  <trk>
    <name><![CDATA[Labruguière 2015-10-28]]></name>
    <trkseg>
      <trkpt lat="43.53143" lon="2.25541">
        <ele>204.3</ele>
        <time>2015-10-28T09:30:32.000Z</time>
      </trkpt>
      <trkpt lat="43.53143" lon="2.25541">
        <ele>204.3</ele>
        <time>2015-10-28T09:30:33.000Z</time>
      </trkpt>
      <trkpt lat="43.53136" lon="2.2555">
        <ele>204.3</ele>
        <time>2015-10-28T09:30:43.000Z</time>
      </trkpt>
      <trkpt lat="43.53127" lon="2.25545">
        <ele>203.9</ele>
        <time>2015-10-28T09:30:53.000Z</time>
      </trkpt>
      <trkpt lat="43.53119" lon="2.25537">
        <ele>204.5</ele>
        <time>2015-10-28T09:31:1.000Z</time>
      </trkpt>
      <trkpt lat="43.53109" lon="2.25534">
        <ele>204.9</ele>
        <time>2015-10-28T09:31:11.000Z</time>
      </trkpt>
      <trkpt lat="43.531" lon="2.2554">
        <ele>204.2</ele>
        <time>2015-10-28T09:31:20.000Z</time>
      </trkpt>
      <trkpt lat="43.5309" lon="2.25542">
        <ele>204</ele>
        <time>2015-10-28T09:31:26.000Z</time>
      </trkpt>
      <trkpt lat="43.5308" lon="2.25542">
        <ele>204.9</ele>
        <time>2015-10-28T09:31:32.000Z</time>
      </trkpt>
      <trkpt lat="43.5307" lon="2.25543">
        <ele>205.2</ele>
        <time>2015-10-28T09:31:40.000Z</time>
      </trkpt>
      <trkpt lat="43.53061" lon="2.25542">
        <ele>205</ele>
        <time>2015-10-28T09:31:46.000Z</time>
      </trkpt>
      <trkpt lat="43.53052" lon="2.25544">
        <ele>205.1</ele>
        <time>2015-10-28T09:31:54.000Z</time>
      </trkpt>
      <trkpt lat="43.53041" lon="2.25547">
        <ele>205.8</ele>
        <time>2015-10-28T09:32:2.000Z</time>
      </trkpt>
      <trkpt lat="43.53032" lon="2.2555">
        <ele>205.9</ele>
        <time>2015-10-28T09:32:9.000Z</time>
      </trkpt>
      <trkpt lat="43.53023" lon="2.25552">
        <ele>205.5</ele>
        <time>2015-10-28T09:32:15.000Z</time>
      </trkpt>
      <trkpt lat="43.53013" lon="2.25557">
        <ele>206</ele>
        <time>2015-10-28T09:32:22.000Z</time>
      </trkpt>
      <trkpt lat="43.53004" lon="2.2556">
        <ele>205.7</ele>
        <time>2015-10-28T09:32:28.000Z</time>
      </trkpt>
      <trkpt lat="43.52996" lon="2.25567">
        <ele>205.8</ele>
        <time>2015-10-28T09:32:37.000Z</time>
      </trkpt>
      <trkpt lat="43.52991" lon="2.25578">
        <ele>206</ele>
        <time>2015-10-28T09:32:48.000Z</time>
      </trkpt>
      <trkpt lat="43.52986" lon="2.25589">
        <ele>206.2</ele>
        <time>2015-10-28T09:32:57.000Z</time>
      </trkpt>
      <trkpt lat="43.5298" lon="2.25599">
        <ele>206</ele>
        <time>2015-10-28T09:33:4.000Z</time>
      </trkpt>
      <trkpt lat="43.52973" lon="2.25607">
        <ele>206.3</ele>
        <time>2015-10-28T09:33:15.000Z</time>
      </trkpt>
      <trkpt lat="43.52964" lon="2.25613">
        <ele>206.3</ele>
        <time>2015-10-28T09:33:27.000Z</time>
      </trkpt>
      <trkpt lat="43.52958" lon="2.25623">
        <ele>206.9</ele>
        <time>2015-10-28T09:33:35.000Z</time>
      </trkpt>
      <trkpt lat="43.52956" lon="2.25637">
        <ele>207</ele>
        <time>2015-10-28T09:33:44.000Z</time>
      </trkpt>
      <trkpt lat="43.52955" lon="2.2565">
        <ele>207.2</ele>
        <time>2015-10-28T09:33:51.000Z</time>
      </trkpt>
      <trkpt lat="43.52957" lon="2.25662">
        <ele>207.7</ele>
        <time>2015-10-28T09:33:59.000Z</time>
      </trkpt>
      <trkpt lat="43.5296" lon="2.25674">
        <ele>207.6</ele>
        <time>2015-10-28T09:34:7.000Z</time>
      </trkpt>
      <trkpt lat="43.52953" lon="2.25665">
        <ele>207.1</ele>
        <time>2015-10-28T09:35:35.000Z</time>
      </trkpt>
      <trkpt lat="43.52953" lon="2.25652">
        <ele>207.2</ele>
        <time>2015-10-28T09:35:43.000Z</time>
      </trkpt>
      <trkpt lat="43.52952" lon="2.25639">
        <ele>207.3</ele>
        <time>2015-10-28T09:36:2.000Z</time>
      </trkpt>
      <trkpt lat="43.52945" lon="2.25631">
        <ele>207.1</ele>
        <time>2015-10-28T09:36:18.000Z</time>
      </trkpt>
      <trkpt lat="43.52936" lon="2.2563">
        <ele>207.3</ele>
        <time>2015-10-28T09:36:24.000Z</time>
      </trkpt>
      <trkpt lat="43.52926" lon="2.2563">
        <ele>207.7</ele>
        <time>2015-10-28T09:36:31.000Z</time>
      </trkpt>
      <trkpt lat="43.52915" lon="2.25629">
        <ele>207.9</ele>
        <time>2015-10-28T09:36:39.000Z</time>
      </trkpt>
      <trkpt lat="43.52906" lon="2.25625">
        <ele>208.1</ele>
        <time>2015-10-28T09:36:46.000Z</time>
      </trkpt>
      <trkpt lat="43.52897" lon="2.25622">
        <ele>208.1</ele>
        <time>2015-10-28T09:36:53.000Z</time>
      </trkpt>
      <trkpt lat="43.52889" lon="2.25616">
        <ele>208.2</ele>
        <time>2015-10-28T09:37:0.000Z</time>
      </trkpt>
      <trkpt lat="43.52882" lon="2.25607">
        <ele>208.2</ele>
        <time>2015-10-28T09:37:7.000Z</time>
      </trkpt>
      <trkpt lat="43.52878" lon="2.25596">
        <ele>208.1</ele>
        <time>2015-10-28T09:37:14.000Z</time>
      </trkpt>
      <trkpt lat="43.52877" lon="2.25583">
        <ele>208</ele>
        <time>2015-10-28T09:37:21.000Z</time>
      </trkpt>
      <trkpt lat="43.52876" lon="2.25571">
        <ele>207.9</ele>
        <time>2015-10-28T09:37:28.000Z</time>
      </trkpt>
      <trkpt lat="43.52875" lon="2.25558">
        <ele>207.9</ele>
        <time>2015-10-28T09:37:35.000Z</time>
      </trkpt>
      <trkpt lat="43.52876" lon="2.25544">
        <ele>207.8</ele>
        <time>2015-10-28T09:37:42.000Z</time>
      </trkpt>
      <trkpt lat="43.52875" lon="2.25531">
        <ele>207.7</ele>
        <time>2015-10-28T09:37:50.000Z</time>
      </trkpt>
      <trkpt lat="43.52877" lon="2.25518">
        <ele>207.7</ele>
        <time>2015-10-28T09:37:57.000Z</time>
      </trkpt>
      <trkpt lat="43.52882" lon="2.25508">
        <ele>207.6</ele>
        <time>2015-10-28T09:38:4.000Z</time>
      </trkpt>
      <trkpt lat="43.5289" lon="2.255">
        <ele>207.6</ele>
        <time>2015-10-28T09:38:12.000Z</time>
      </trkpt>
      <trkpt lat="43.52898" lon="2.25493">
        <ele>207.6</ele>
        <time>2015-10-28T09:38:21.000Z</time>
      </trkpt>
      <trkpt lat="43.52892" lon="2.25482">
        <ele>206.7</ele>
        <time>2015-10-28T09:38:56.000Z</time>
      </trkpt>
      <trkpt lat="43.52893" lon="2.25468">
        <ele>206.4</ele>
        <time>2015-10-28T09:39:4.000Z</time>
      </trkpt>
      <trkpt lat="43.52892" lon="2.25456">
        <ele>205.2</ele>
        <time>2015-10-28T09:39:15.000Z</time>
      </trkpt>
      <trkpt lat="43.52889" lon="2.25444">
        <ele>205.7</ele>
        <time>2015-10-28T09:39:19.000Z</time>
      </trkpt>
      <trkpt lat="43.52891" lon="2.25432">
        <ele>206.4</ele>
        <time>2015-10-28T09:39:39.000Z</time>
      </trkpt>
      <trkpt lat="43.52887" lon="2.25419">
        <ele>206.5</ele>
        <time>2015-10-28T09:39:48.000Z</time>
      </trkpt>
      <trkpt lat="43.52884" lon="2.25407">
        <ele>206.5</ele>
        <time>2015-10-28T09:39:57.000Z</time>
      </trkpt>
      <trkpt lat="43.52882" lon="2.25394">
        <ele>206.8</ele>
        <time>2015-10-28T09:40:10.000Z</time>
      </trkpt>
      <trkpt lat="43.52878" lon="2.25381">
        <ele>207.4</ele>
        <time>2015-10-28T09:40:18.000Z</time>
      </trkpt>
      <trkpt lat="43.52875" lon="2.25369">
        <ele>208.2</ele>
        <time>2015-10-28T09:40:27.000Z</time>
      </trkpt>
      <trkpt lat="43.52873" lon="2.25357">
        <ele>209</ele>
        <time>2015-10-28T09:40:35.000Z</time>
      </trkpt>
      <trkpt lat="43.52871" lon="2.25345">
        <ele>210</ele>
        <time>2015-10-28T09:40:43.000Z</time>
      </trkpt>
      <trkpt lat="43.52868" lon="2.25331">
        <ele>211</ele>
        <time>2015-10-28T09:40:51.000Z</time>
      </trkpt>
      <trkpt lat="43.52866" lon="2.25319">
        <ele>212</ele>
        <time>2015-10-28T09:41:0.000Z</time>
      </trkpt>
      <trkpt lat="43.52862" lon="2.25308">
        <ele>212.6</ele>
        <time>2015-10-28T09:41:7.000Z</time>
      </trkpt>
      <trkpt lat="43.5286" lon="2.25295">
        <ele>213.1</ele>
        <time>2015-10-28T09:41:14.000Z</time>
      </trkpt>
      <trkpt lat="43.52862" lon="2.25281">
        <ele>213.8</ele>
        <time>2015-10-28T09:41:23.000Z</time>
      </trkpt>
      <trkpt lat="43.52862" lon="2.25268">
        <ele>214.4</ele>
        <time>2015-10-28T09:41:31.000Z</time>
      </trkpt>
      <trkpt lat="43.52866" lon="2.25256">
        <ele>215</ele>
        <time>2015-10-28T09:41:43.000Z</time>
      </trkpt>
      <trkpt lat="43.52864" lon="2.25242">
        <ele>214.9</ele>
        <time>2015-10-28T09:41:53.000Z</time>
      </trkpt>
      <trkpt lat="43.52854" lon="2.2524">
        <ele>214.7</ele>
        <time>2015-10-28T09:42:1.000Z</time>
      </trkpt>
      <trkpt lat="43.52845" lon="2.25234">
        <ele>214.1</ele>
        <time>2015-10-28T09:42:9.000Z</time>
      </trkpt>
      <trkpt lat="43.52838" lon="2.25227">
        <ele>213.6</ele>
        <time>2015-10-28T09:42:21.000Z</time>
      </trkpt>
      <trkpt lat="43.52829" lon="2.25221">
        <ele>213.6</ele>
        <time>2015-10-28T09:42:27.000Z</time>
      </trkpt>
      <trkpt lat="43.52821" lon="2.25215">
        <ele>213.6</ele>
        <time>2015-10-28T09:42:35.000Z</time>
      </trkpt>
      <trkpt lat="43.52813" lon="2.25209">
        <ele>213.6</ele>
        <time>2015-10-28T09:42:42.000Z</time>
      </trkpt>
      <trkpt lat="43.52806" lon="2.25199">
        <ele>213.8</ele>
        <time>2015-10-28T09:42:51.000Z</time>
      </trkpt>
      <trkpt lat="43.52797" lon="2.25194">
        <ele>214.1</ele>
        <time>2015-10-28T09:43:0.000Z</time>
      </trkpt>
      <trkpt lat="43.5279" lon="2.25187">
        <ele>214.5</ele>
        <time>2015-10-28T09:43:7.000Z</time>
      </trkpt>
      <trkpt lat="43.52781" lon="2.25179">
        <ele>214.9</ele>
        <time>2015-10-28T09:43:16.000Z</time>
      </trkpt>
      <trkpt lat="43.52776" lon="2.25168">
        <ele>215.3</ele>
        <time>2015-10-28T09:43:28.000Z</time>
      </trkpt>
      <trkpt lat="43.52765" lon="2.25161">
        <ele>215.4</ele>
        <time>2015-10-28T09:43:35.000Z</time>
      </trkpt>
      <trkpt lat="43.52756" lon="2.25156">
        <ele>215.5</ele>
        <time>2015-10-28T09:43:39.000Z</time>
      </trkpt>
      <trkpt lat="43.52747" lon="2.25151">
        <ele>215.7</ele>
        <time>2015-10-28T09:43:48.000Z</time>
      </trkpt>
      <trkpt lat="43.52741" lon="2.25141">
        <ele>216.2</ele>
        <time>2015-10-28T09:43:59.000Z</time>
      </trkpt>
      <trkpt lat="43.52735" lon="2.25132">
        <ele>216.5</ele>
        <time>2015-10-28T09:44:7.000Z</time>
      </trkpt>
      <trkpt lat="43.52726" lon="2.25125">
        <ele>216.9</ele>
        <time>2015-10-28T09:44:13.000Z</time>
      </trkpt>
      <trkpt lat="43.52716" lon="2.25121">
        <ele>217.1</ele>
        <time>2015-10-28T09:44:19.000Z</time>
      </trkpt>
      <trkpt lat="43.52707" lon="2.25115">
        <ele>217.4</ele>
        <time>2015-10-28T09:44:26.000Z</time>
      </trkpt>
      <trkpt lat="43.52698" lon="2.25112">
        <ele>217.7</ele>
        <time>2015-10-28T09:44:34.000Z</time>
      </trkpt>
      <trkpt lat="43.52689" lon="2.25108">
        <ele>217.9</ele>
        <time>2015-10-28T09:44:42.000Z</time>
      </trkpt>
      <trkpt lat="43.52679" lon="2.25104">
        <ele>218.1</ele>
        <time>2015-10-28T09:44:48.000Z</time>
      </trkpt>
      <trkpt lat="43.52671" lon="2.25096">
        <ele>218.5</ele>
        <time>2015-10-28T09:44:56.000Z</time>
      </trkpt>
      <trkpt lat="43.52661" lon="2.25092">
        <ele>218.8</ele>
        <time>2015-10-28T09:45:5.000Z</time>
      </trkpt>
      <trkpt lat="43.5265" lon="2.25085">
        <ele>218.9</ele>
        <time>2015-10-28T09:45:11.000Z</time>
      </trkpt>
      <trkpt lat="43.5264" lon="2.25084">
        <ele>219.1</ele>
        <time>2015-10-28T09:45:18.000Z</time>
      </trkpt>
      <trkpt lat="43.52632" lon="2.25076">
        <ele>219.4</ele>
        <time>2015-10-28T09:45:28.000Z</time>
      </trkpt>
      <trkpt lat="43.52622" lon="2.2507">
        <ele>219.7</ele>
        <time>2015-10-28T09:45:37.000Z</time>
      </trkpt>
      <trkpt lat="43.52613" lon="2.2506">
        <ele>219.4</ele>
        <time>2015-10-28T09:45:42.000Z</time>
      </trkpt>
      <trkpt lat="43.52605" lon="2.25052">
        <ele>219.6</ele>
        <time>2015-10-28T09:45:48.000Z</time>
      </trkpt>
      <trkpt lat="43.52596" lon="2.25046">
        <ele>219.7</ele>
        <time>2015-10-28T09:45:58.000Z</time>
      </trkpt>
      <trkpt lat="43.52586" lon="2.25046">
        <ele>219.8</ele>
        <time>2015-10-28T09:46:5.000Z</time>
      </trkpt>
      <trkpt lat="43.52576" lon="2.25047">
        <ele>219.9</ele>
        <time>2015-10-28T09:46:14.000Z</time>
      </trkpt>
      <trkpt lat="43.52566" lon="2.25052">
        <ele>219.8</ele>
        <time>2015-10-28T09:46:21.000Z</time>
      </trkpt>
      <trkpt lat="43.52556" lon="2.25056">
        <ele>219.8</ele>
        <time>2015-10-28T09:46:29.000Z</time>
      </trkpt>
      <trkpt lat="43.52546" lon="2.25059">
        <ele>219.8</ele>
        <time>2015-10-28T09:46:34.000Z</time>
      </trkpt>
      <trkpt lat="43.52537" lon="2.25062">
        <ele>219.8</ele>
        <time>2015-10-28T09:46:38.000Z</time>
      </trkpt>
      <trkpt lat="43.52527" lon="2.25066">
        <ele>219.8</ele>
        <time>2015-10-28T09:46:42.000Z</time>
      </trkpt>
      <trkpt lat="43.52517" lon="2.2507">
        <ele>220.1</ele>
        <time>2015-10-28T09:47:4.000Z</time>
      </trkpt>
      <trkpt lat="43.52507" lon="2.25069">
        <ele>220.6</ele>
        <time>2015-10-28T09:47:12.000Z</time>
      </trkpt>
      <trkpt lat="43.52496" lon="2.25066">
        <ele>220.6</ele>
        <time>2015-10-28T09:47:17.000Z</time>
      </trkpt>
      <trkpt lat="43.5249" lon="2.25057">
        <ele>220.1</ele>
        <time>2015-10-28T09:47:26.000Z</time>
      </trkpt>
      <trkpt lat="43.52481" lon="2.25054">
        <ele>220.1</ele>
        <time>2015-10-28T09:47:34.000Z</time>
      </trkpt>
      <trkpt lat="43.52471" lon="2.25054">
        <ele>219.7</ele>
        <time>2015-10-28T09:47:39.000Z</time>
      </trkpt>
      <trkpt lat="43.52461" lon="2.25052">
        <ele>219.6</ele>
        <time>2015-10-28T09:47:45.000Z</time>
      </trkpt>
      <trkpt lat="43.52451" lon="2.2505">
        <ele>219.3</ele>
        <time>2015-10-28T09:47:52.000Z</time>
      </trkpt>
      <trkpt lat="43.52442" lon="2.25054">
        <ele>218.8</ele>
        <time>2015-10-28T09:48:2.000Z</time>
      </trkpt>
      <trkpt lat="43.52433" lon="2.25056">
        <ele>218.3</ele>
        <time>2015-10-28T09:48:11.000Z</time>
      </trkpt>
      <trkpt lat="43.52424" lon="2.25056">
        <ele>218.3</ele>
        <time>2015-10-28T09:48:19.000Z</time>
      </trkpt>
      <trkpt lat="43.52414" lon="2.2506">
        <ele>218</ele>
        <time>2015-10-28T09:48:28.000Z</time>
      </trkpt>
      <trkpt lat="43.52405" lon="2.25058">
        <ele>218.3</ele>
        <time>2015-10-28T09:48:36.000Z</time>
      </trkpt>
      <trkpt lat="43.52395" lon="2.25055">
        <ele>218.2</ele>
        <time>2015-10-28T09:48:44.000Z</time>
      </trkpt>
      <trkpt lat="43.52386" lon="2.2505">
        <ele>218.2</ele>
        <time>2015-10-28T09:48:52.000Z</time>
      </trkpt>
      <trkpt lat="43.52377" lon="2.25045">
        <ele>218</ele>
        <time>2015-10-28T09:49:0.000Z</time>
      </trkpt>
      <trkpt lat="43.52369" lon="2.25037">
        <ele>218.1</ele>
        <time>2015-10-28T09:49:11.000Z</time>
      </trkpt>
      <trkpt lat="43.5236" lon="2.25032">
        <ele>218.1</ele>
        <time>2015-10-28T09:49:21.000Z</time>
      </trkpt>
      <trkpt lat="43.52351" lon="2.25026">
        <ele>218.1</ele>
        <time>2015-10-28T09:49:28.000Z</time>
      </trkpt>
      <trkpt lat="43.52342" lon="2.25022">
        <ele>218.3</ele>
        <time>2015-10-28T09:49:36.000Z</time>
      </trkpt>
      <trkpt lat="43.52334" lon="2.25015">
        <ele>218.4</ele>
        <time>2015-10-28T09:49:44.000Z</time>
      </trkpt>
      <trkpt lat="43.52326" lon="2.25009">
        <ele>219</ele>
        <time>2015-10-28T09:49:51.000Z</time>
      </trkpt>
      <trkpt lat="43.52317" lon="2.25003">
        <ele>218.9</ele>
        <time>2015-10-28T09:49:58.000Z</time>
      </trkpt>
      <trkpt lat="43.52309" lon="2.24997">
        <ele>219</ele>
        <time>2015-10-28T09:50:5.000Z</time>
      </trkpt>
      <trkpt lat="43.523" lon="2.24993">
        <ele>219.2</ele>
        <time>2015-10-28T09:50:13.000Z</time>
      </trkpt>
      <trkpt lat="43.52291" lon="2.24989">
        <ele>219.6</ele>
        <time>2015-10-28T09:50:23.000Z</time>
      </trkpt>
      <trkpt lat="43.52283" lon="2.24984">
        <ele>219.7</ele>
        <time>2015-10-28T09:50:30.000Z</time>
      </trkpt>
      <trkpt lat="43.52274" lon="2.2498">
        <ele>220.4</ele>
        <time>2015-10-28T09:50:38.000Z</time>
      </trkpt>
      <trkpt lat="43.52264" lon="2.24975">
        <ele>221.1</ele>
        <time>2015-10-28T09:50:47.000Z</time>
      </trkpt>
      <trkpt lat="43.52255" lon="2.24973">
        <ele>222.1</ele>
        <time>2015-10-28T09:50:55.000Z</time>
      </trkpt>
      <trkpt lat="43.52247" lon="2.24969">
        <ele>222.8</ele>
        <time>2015-10-28T09:51:1.000Z</time>
      </trkpt>
      <trkpt lat="43.52237" lon="2.24966">
        <ele>223.6</ele>
        <time>2015-10-28T09:51:10.000Z</time>
      </trkpt>
      <trkpt lat="43.52229" lon="2.24959">
        <ele>224.5</ele>
        <time>2015-10-28T09:51:20.000Z</time>
      </trkpt>
      <trkpt lat="43.5222" lon="2.24956">
        <ele>224.9</ele>
        <time>2015-10-28T09:51:28.000Z</time>
      </trkpt>
      <trkpt lat="43.52211" lon="2.24951">
        <ele>226</ele>
        <time>2015-10-28T09:51:38.000Z</time>
      </trkpt>
      <trkpt lat="43.52202" lon="2.24948">
        <ele>226.8</ele>
        <time>2015-10-28T09:51:45.000Z</time>
      </trkpt>
      <trkpt lat="43.52192" lon="2.24946">
        <ele>227.8</ele>
        <time>2015-10-28T09:51:54.000Z</time>
      </trkpt>
      <trkpt lat="43.52183" lon="2.24945">
        <ele>229.1</ele>
        <time>2015-10-28T09:52:3.000Z</time>
      </trkpt>
      <trkpt lat="43.52174" lon="2.24944">
        <ele>229.8</ele>
        <time>2015-10-28T09:52:11.000Z</time>
      </trkpt>
      <trkpt lat="43.52165" lon="2.24943">
        <ele>230.5</ele>
        <time>2015-10-28T09:52:19.000Z</time>
      </trkpt>
      <trkpt lat="43.52155" lon="2.24939">
        <ele>232</ele>
        <time>2015-10-28T09:52:28.000Z</time>
      </trkpt>
      <trkpt lat="43.52145" lon="2.2494">
        <ele>232.9</ele>
        <time>2015-10-28T09:52:36.000Z</time>
      </trkpt>
      <trkpt lat="43.52136" lon="2.24937">
        <ele>232.2</ele>
        <time>2015-10-28T09:52:44.000Z</time>
      </trkpt>
      <trkpt lat="43.52126" lon="2.24935">
        <ele>233.3</ele>
        <time>2015-10-28T09:52:53.000Z</time>
      </trkpt>
      <trkpt lat="43.52117" lon="2.24935">
        <ele>234.2</ele>
        <time>2015-10-28T09:53:1.000Z</time>
      </trkpt>
      <trkpt lat="43.52106" lon="2.24937">
        <ele>235.1</ele>
        <time>2015-10-28T09:53:9.000Z</time>
      </trkpt>
      <trkpt lat="43.52096" lon="2.24937">
        <ele>236</ele>
        <time>2015-10-28T09:53:18.000Z</time>
      </trkpt>
      <trkpt lat="43.52088" lon="2.24934">
        <ele>238.5</ele>
        <time>2015-10-28T09:53:32.000Z</time>
      </trkpt>
      <trkpt lat="43.52079" lon="2.24932">
        <ele>240</ele>
        <time>2015-10-28T09:53:42.000Z</time>
      </trkpt>
      <trkpt lat="43.52068" lon="2.24931">
        <ele>241.5</ele>
        <time>2015-10-28T09:53:51.000Z</time>
      </trkpt>
      <trkpt lat="43.52059" lon="2.24935">
        <ele>241.5</ele>
        <time>2015-10-28T09:53:59.000Z</time>
      </trkpt>
      <trkpt lat="43.52055" lon="2.24946">
        <ele>243.9</ele>
        <time>2015-10-28T09:54:10.000Z</time>
      </trkpt>
      <trkpt lat="43.52053" lon="2.24959">
        <ele>245.2</ele>
        <time>2015-10-28T09:54:18.000Z</time>
      </trkpt>
      <trkpt lat="43.52049" lon="2.2497">
        <ele>246.6</ele>
        <time>2015-10-28T09:54:27.000Z</time>
      </trkpt>
      <trkpt lat="43.52047" lon="2.24983">
        <ele>248</ele>
        <time>2015-10-28T09:54:36.000Z</time>
      </trkpt>
      <trkpt lat="43.52047" lon="2.24996">
        <ele>249.8</ele>
        <time>2015-10-28T09:54:45.000Z</time>
      </trkpt>
      <trkpt lat="43.52046" lon="2.2501">
        <ele>251.3</ele>
        <time>2015-10-28T09:54:53.000Z</time>
      </trkpt>
      <trkpt lat="43.52043" lon="2.25021">
        <ele>253.3</ele>
        <time>2015-10-28T09:55:4.000Z</time>
      </trkpt>
      <trkpt lat="43.52039" lon="2.25034">
        <ele>254.4</ele>
        <time>2015-10-28T09:55:12.000Z</time>
      </trkpt>
      <trkpt lat="43.52034" lon="2.25046">
        <ele>255.5</ele>
        <time>2015-10-28T09:55:20.000Z</time>
      </trkpt>
      <trkpt lat="43.52039" lon="2.25057">
        <ele>258.1</ele>
        <time>2015-10-28T09:55:31.000Z</time>
      </trkpt>
      <trkpt lat="43.52038" lon="2.2507">
        <ele>259.8</ele>
        <time>2015-10-28T09:55:37.000Z</time>
      </trkpt>
      <trkpt lat="43.52036" lon="2.25084">
        <ele>261.1</ele>
        <time>2015-10-28T09:55:47.000Z</time>
      </trkpt>
      <trkpt lat="43.52037" lon="2.25097">
        <ele>261.1</ele>
        <time>2015-10-28T09:55:56.000Z</time>
      </trkpt>
      <trkpt lat="43.52029" lon="2.25105">
        <ele>261.7</ele>
        <time>2015-10-28T09:56:6.000Z</time>
      </trkpt>
      <trkpt lat="43.52024" lon="2.25116">
        <ele>262.6</ele>
        <time>2015-10-28T09:56:20.000Z</time>
      </trkpt>
      <trkpt lat="43.52018" lon="2.25126">
        <ele>263</ele>
        <time>2015-10-28T09:56:57.000Z</time>
      </trkpt>
      <trkpt lat="43.52009" lon="2.25127">
        <ele>262.2</ele>
        <time>2015-10-28T09:57:18.000Z</time>
      </trkpt>
      <trkpt lat="43.52003" lon="2.25137">
        <ele>263</ele>
        <time>2015-10-28T09:59:14.000Z</time>
      </trkpt>
      <trkpt lat="43.52012" lon="2.25138">
        <ele>262.2</ele>
        <time>2015-10-28T09:59:44.000Z</time>
      </trkpt>
      <trkpt lat="43.52003" lon="2.25131">
        <ele>262.3</ele>
        <time>2015-10-28T10:00:13.000Z</time>
      </trkpt>
      <trkpt lat="43.51995" lon="2.25137">
        <ele>262.3</ele>
        <time>2015-10-28T10:00:30.000Z</time>
      </trkpt>
      <trkpt lat="43.51985" lon="2.25134">
        <ele>262.7</ele>
        <time>2015-10-28T10:00:37.000Z</time>
      </trkpt>
      <trkpt lat="43.51975" lon="2.25129">
        <ele>263</ele>
        <time>2015-10-28T10:00:44.000Z</time>
      </trkpt>
      <trkpt lat="43.51966" lon="2.25126">
        <ele>263.4</ele>
        <time>2015-10-28T10:00:52.000Z</time>
      </trkpt>
      <trkpt lat="43.51957" lon="2.25124">
        <ele>263.9</ele>
        <time>2015-10-28T10:01:4.000Z</time>
      </trkpt>
      <trkpt lat="43.51949" lon="2.25131">
        <ele>264.4</ele>
        <time>2015-10-28T10:01:13.000Z</time>
      </trkpt>
      <trkpt lat="43.51941" lon="2.25141">
        <ele>264.5</ele>
        <time>2015-10-28T10:01:23.000Z</time>
      </trkpt>
      <trkpt lat="43.51935" lon="2.2515">
        <ele>264.5</ele>
        <time>2015-10-28T10:01:30.000Z</time>
      </trkpt>
      <trkpt lat="43.51929" lon="2.2516">
        <ele>264.6</ele>
        <time>2015-10-28T10:01:39.000Z</time>
      </trkpt>
      <trkpt lat="43.51924" lon="2.2517">
        <ele>264.4</ele>
        <time>2015-10-28T10:01:47.000Z</time>
      </trkpt>
      <trkpt lat="43.51919" lon="2.25181">
        <ele>264.1</ele>
        <time>2015-10-28T10:01:54.000Z</time>
      </trkpt>
      <trkpt lat="43.51913" lon="2.25191">
        <ele>263.3</ele>
        <time>2015-10-28T10:02:3.000Z</time>
      </trkpt>
      <trkpt lat="43.51907" lon="2.25201">
        <ele>262.4</ele>
        <time>2015-10-28T10:02:11.000Z</time>
      </trkpt>
      <trkpt lat="43.51903" lon="2.25212">
        <ele>261.3</ele>
        <time>2015-10-28T10:02:19.000Z</time>
      </trkpt>
      <trkpt lat="43.519" lon="2.25224">
        <ele>260.4</ele>
        <time>2015-10-28T10:02:27.000Z</time>
      </trkpt>
      <trkpt lat="43.51897" lon="2.25236">
        <ele>259.5</ele>
        <time>2015-10-28T10:02:35.000Z</time>
      </trkpt>
      <trkpt lat="43.51896" lon="2.2525">
        <ele>259.3</ele>
        <time>2015-10-28T10:02:43.000Z</time>
      </trkpt>
      <trkpt lat="43.51898" lon="2.25262">
        <ele>259.1</ele>
        <time>2015-10-28T10:02:51.000Z</time>
      </trkpt>
      <trkpt lat="43.51901" lon="2.25276">
        <ele>259.8</ele>
        <time>2015-10-28T10:02:59.000Z</time>
      </trkpt>
      <trkpt lat="43.519" lon="2.25289">
        <ele>260.7</ele>
        <time>2015-10-28T10:03:8.000Z</time>
      </trkpt>
      <trkpt lat="43.519" lon="2.25302">
        <ele>261.4</ele>
        <time>2015-10-28T10:03:17.000Z</time>
      </trkpt>
      <trkpt lat="43.51894" lon="2.25312">
        <ele>262.5</ele>
        <time>2015-10-28T10:03:29.000Z</time>
      </trkpt>
      <trkpt lat="43.51885" lon="2.25308">
        <ele>262.6</ele>
        <time>2015-10-28T10:03:39.000Z</time>
      </trkpt>
      <trkpt lat="43.51875" lon="2.25305">
        <ele>262.9</ele>
        <time>2015-10-28T10:03:48.000Z</time>
      </trkpt>
      <trkpt lat="43.51866" lon="2.25303">
        <ele>263.2</ele>
        <time>2015-10-28T10:03:57.000Z</time>
      </trkpt>
      <trkpt lat="43.51857" lon="2.25299">
        <ele>263.6</ele>
        <time>2015-10-28T10:04:5.000Z</time>
      </trkpt>
      <trkpt lat="43.51847" lon="2.25298">
        <ele>264.2</ele>
        <time>2015-10-28T10:04:15.000Z</time>
      </trkpt>
      <trkpt lat="43.51837" lon="2.25298">
        <ele>264.7</ele>
        <time>2015-10-28T10:04:23.000Z</time>
      </trkpt>
      <trkpt lat="43.51828" lon="2.25297">
        <ele>265.1</ele>
        <time>2015-10-28T10:04:31.000Z</time>
      </trkpt>
      <trkpt lat="43.51818" lon="2.25297">
        <ele>265.6</ele>
        <time>2015-10-28T10:04:41.000Z</time>
      </trkpt>
      <trkpt lat="43.51808" lon="2.25294">
        <ele>266.2</ele>
        <time>2015-10-28T10:04:47.000Z</time>
      </trkpt>
      <trkpt lat="43.51799" lon="2.25292">
        <ele>266.7</ele>
        <time>2015-10-28T10:04:54.000Z</time>
      </trkpt>
      <trkpt lat="43.5179" lon="2.25289">
        <ele>267.1</ele>
        <time>2015-10-28T10:05:1.000Z</time>
      </trkpt>
      <trkpt lat="43.5178" lon="2.25284">
        <ele>267.5</ele>
        <time>2015-10-28T10:05:9.000Z</time>
      </trkpt>
      <trkpt lat="43.51771" lon="2.2528">
        <ele>267.8</ele>
        <time>2015-10-28T10:05:17.000Z</time>
      </trkpt>
      <trkpt lat="43.51763" lon="2.25277">
        <ele>268.2</ele>
        <time>2015-10-28T10:05:25.000Z</time>
      </trkpt>
      <trkpt lat="43.51753" lon="2.25276">
        <ele>268.6</ele>
        <time>2015-10-28T10:05:34.000Z</time>
      </trkpt>
      <trkpt lat="43.51743" lon="2.25278">
        <ele>268.9</ele>
        <time>2015-10-28T10:05:43.000Z</time>
      </trkpt>
      <trkpt lat="43.51734" lon="2.25284">
        <ele>269.6</ele>
        <time>2015-10-28T10:05:52.000Z</time>
      </trkpt>
      <trkpt lat="43.51726" lon="2.25292">
        <ele>270.3</ele>
        <time>2015-10-28T10:06:0.000Z</time>
      </trkpt>
      <trkpt lat="43.51719" lon="2.253">
        <ele>270.7</ele>
        <time>2015-10-28T10:06:6.000Z</time>
      </trkpt>
      <trkpt lat="43.51711" lon="2.25307">
        <ele>271</ele>
        <time>2015-10-28T10:06:14.000Z</time>
      </trkpt>
      <trkpt lat="43.51702" lon="2.25314">
        <ele>271.2</ele>
        <time>2015-10-28T10:06:23.000Z</time>
      </trkpt>
      <trkpt lat="43.51692" lon="2.25315">
        <ele>271.7</ele>
        <time>2015-10-28T10:06:31.000Z</time>
      </trkpt>
      <trkpt lat="43.51682" lon="2.25317">
        <ele>272.3</ele>
        <time>2015-10-28T10:06:37.000Z</time>
      </trkpt>
      <trkpt lat="43.51673" lon="2.25318">
        <ele>273.1</ele>
        <time>2015-10-28T10:06:43.000Z</time>
      </trkpt>
      <trkpt lat="43.51663" lon="2.25319">
        <ele>273.4</ele>
        <time>2015-10-28T10:06:47.000Z</time>
      </trkpt>
      <trkpt lat="43.51654" lon="2.25318">
        <ele>273.8</ele>
        <time>2015-10-28T10:06:51.000Z</time>
      </trkpt>
      <trkpt lat="43.51645" lon="2.25319">
        <ele>274.6</ele>
        <time>2015-10-28T10:06:57.000Z</time>
      </trkpt>
      <trkpt lat="43.51635" lon="2.25324">
        <ele>275.3</ele>
        <time>2015-10-28T10:07:8.000Z</time>
      </trkpt>
      <trkpt lat="43.51627" lon="2.25332">
        <ele>275.8</ele>
        <time>2015-10-28T10:07:14.000Z</time>
      </trkpt>
      <trkpt lat="43.51621" lon="2.25342">
        <ele>276</ele>
        <time>2015-10-28T10:07:19.000Z</time>
      </trkpt>
      <trkpt lat="43.51616" lon="2.25353">
        <ele>276.6</ele>
        <time>2015-10-28T10:07:29.000Z</time>
      </trkpt>
      <trkpt lat="43.51614" lon="2.25365">
        <ele>276.9</ele>
        <time>2015-10-28T10:07:40.000Z</time>
      </trkpt>
      <trkpt lat="43.51605" lon="2.25372">
        <ele>277</ele>
        <time>2015-10-28T10:07:48.000Z</time>
      </trkpt>
      <trkpt lat="43.51596" lon="2.25376">
        <ele>277.4</ele>
        <time>2015-10-28T10:07:55.000Z</time>
      </trkpt>
      <trkpt lat="43.51588" lon="2.25382">
        <ele>277.9</ele>
        <time>2015-10-28T10:08:3.000Z</time>
      </trkpt>
      <trkpt lat="43.51579" lon="2.25389">
        <ele>278.7</ele>
        <time>2015-10-28T10:08:12.000Z</time>
      </trkpt>
      <trkpt lat="43.5157" lon="2.25395">
        <ele>279.2</ele>
        <time>2015-10-28T10:08:19.000Z</time>
      </trkpt>
      <trkpt lat="43.51561" lon="2.254">
        <ele>279.7</ele>
        <time>2015-10-28T10:08:26.000Z</time>
      </trkpt>
      <trkpt lat="43.51552" lon="2.25404">
        <ele>280.3</ele>
        <time>2015-10-28T10:08:33.000Z</time>
      </trkpt>
      <trkpt lat="43.51543" lon="2.25409">
        <ele>281.3</ele>
        <time>2015-10-28T10:08:44.000Z</time>
      </trkpt>
      <trkpt lat="43.51534" lon="2.25412">
        <ele>281.8</ele>
        <time>2015-10-28T10:08:52.000Z</time>
      </trkpt>
      <trkpt lat="43.51525" lon="2.25414">
        <ele>282.1</ele>
        <time>2015-10-28T10:08:59.000Z</time>
      </trkpt>
      <trkpt lat="43.51516" lon="2.2542">
        <ele>282.5</ele>
        <time>2015-10-28T10:09:8.000Z</time>
      </trkpt>
      <trkpt lat="43.51507" lon="2.2542">
        <ele>282.9</ele>
        <time>2015-10-28T10:09:14.000Z</time>
      </trkpt>
      <trkpt lat="43.51498" lon="2.25423">
        <ele>282.7</ele>
        <time>2015-10-28T10:09:22.000Z</time>
      </trkpt>
      <trkpt lat="43.51488" lon="2.25424">
        <ele>282.4</ele>
        <time>2015-10-28T10:09:30.000Z</time>
      </trkpt>
      <trkpt lat="43.51478" lon="2.25428">
        <ele>282</ele>
        <time>2015-10-28T10:09:37.000Z</time>
      </trkpt>
      <trkpt lat="43.51469" lon="2.25431">
        <ele>281.7</ele>
        <time>2015-10-28T10:09:44.000Z</time>
      </trkpt>
      <trkpt lat="43.5146" lon="2.25436">
        <ele>281.4</ele>
        <time>2015-10-28T10:09:52.000Z</time>
      </trkpt>
      <trkpt lat="43.51452" lon="2.25442">
        <ele>281.2</ele>
        <time>2015-10-28T10:09:59.000Z</time>
      </trkpt>
      <trkpt lat="43.51442" lon="2.25447">
        <ele>280.8</ele>
        <time>2015-10-28T10:10:7.000Z</time>
      </trkpt>
      <trkpt lat="43.51434" lon="2.25451">
        <ele>280.5</ele>
        <time>2015-10-28T10:10:16.000Z</time>
      </trkpt>
      <trkpt lat="43.51425" lon="2.25455">
        <ele>280.2</ele>
        <time>2015-10-28T10:10:24.000Z</time>
      </trkpt>
      <trkpt lat="43.51415" lon="2.25459">
        <ele>280.4</ele>
        <time>2015-10-28T10:10:32.000Z</time>
      </trkpt>
      <trkpt lat="43.51406" lon="2.25462">
        <ele>280.5</ele>
        <time>2015-10-28T10:10:40.000Z</time>
      </trkpt>
      <trkpt lat="43.51397" lon="2.25466">
        <ele>280.9</ele>
        <time>2015-10-28T10:10:47.000Z</time>
      </trkpt>
      <trkpt lat="43.51388" lon="2.25468">
        <ele>280.7</ele>
        <time>2015-10-28T10:10:55.000Z</time>
      </trkpt>
      <trkpt lat="43.51379" lon="2.2547">
        <ele>280.9</ele>
        <time>2015-10-28T10:11:3.000Z</time>
      </trkpt>
      <trkpt lat="43.5137" lon="2.25471">
        <ele>281.3</ele>
        <time>2015-10-28T10:11:13.000Z</time>
      </trkpt>
      <trkpt lat="43.51359" lon="2.25473">
        <ele>281.6</ele>
        <time>2015-10-28T10:11:22.000Z</time>
      </trkpt>
      <trkpt lat="43.51349" lon="2.2547">
        <ele>282</ele>
        <time>2015-10-28T10:11:29.000Z</time>
      </trkpt>
      <trkpt lat="43.5134" lon="2.25471">
        <ele>282.1</ele>
        <time>2015-10-28T10:11:37.000Z</time>
      </trkpt>
      <trkpt lat="43.5133" lon="2.25473">
        <ele>282.5</ele>
        <time>2015-10-28T10:11:46.000Z</time>
      </trkpt>
      <trkpt lat="43.51321" lon="2.25473">
        <ele>282.7</ele>
        <time>2015-10-28T10:11:54.000Z</time>
      </trkpt>
      <trkpt lat="43.51311" lon="2.25474">
        <ele>283</ele>
        <time>2015-10-28T10:12:2.000Z</time>
      </trkpt>
      <trkpt lat="43.51302" lon="2.25476">
        <ele>283.2</ele>
        <time>2015-10-28T10:12:9.000Z</time>
      </trkpt>
      <trkpt lat="43.51292" lon="2.25472">
        <ele>283.4</ele>
        <time>2015-10-28T10:12:16.000Z</time>
      </trkpt>
      <trkpt lat="43.51282" lon="2.25475">
        <ele>283.8</ele>
        <time>2015-10-28T10:12:23.000Z</time>
      </trkpt>
      <trkpt lat="43.51273" lon="2.25471">
        <ele>284.3</ele>
        <time>2015-10-28T10:12:29.000Z</time>
      </trkpt>
      <trkpt lat="43.51263" lon="2.25473">
        <ele>284.8</ele>
        <time>2015-10-28T10:12:37.000Z</time>
      </trkpt>
      <trkpt lat="43.51254" lon="2.25476">
        <ele>285.1</ele>
        <time>2015-10-28T10:12:46.000Z</time>
      </trkpt>
      <trkpt lat="43.51246" lon="2.25484">
        <ele>286.1</ele>
        <time>2015-10-28T10:12:56.000Z</time>
      </trkpt>
      <trkpt lat="43.51236" lon="2.2548">
        <ele>287.2</ele>
        <time>2015-10-28T10:13:7.000Z</time>
      </trkpt>
      <trkpt lat="43.51229" lon="2.25489">
        <ele>289.6</ele>
        <time>2015-10-28T10:15:43.000Z</time>
      </trkpt>
      <trkpt lat="43.51225" lon="2.25501">
        <ele>289.9</ele>
        <time>2015-10-28T10:15:51.000Z</time>
      </trkpt>
      <trkpt lat="43.51216" lon="2.25506">
        <ele>290.2</ele>
        <time>2015-10-28T10:15:58.000Z</time>
      </trkpt>
      <trkpt lat="43.51207" lon="2.25505">
        <ele>290.9</ele>
        <time>2015-10-28T10:16:4.000Z</time>
      </trkpt>
      <trkpt lat="43.51197" lon="2.25508">
        <ele>291.5</ele>
        <time>2015-10-28T10:16:13.000Z</time>
      </trkpt>
      <trkpt lat="43.51188" lon="2.25515">
        <ele>292</ele>
        <time>2015-10-28T10:16:22.000Z</time>
      </trkpt>
      <trkpt lat="43.5118" lon="2.25521">
        <ele>293.1</ele>
        <time>2015-10-28T10:16:29.000Z</time>
      </trkpt>
      <trkpt lat="43.51171" lon="2.25525">
        <ele>294.7</ele>
        <time>2015-10-28T10:16:38.000Z</time>
      </trkpt>
      <trkpt lat="43.51163" lon="2.25531">
        <ele>295.5</ele>
        <time>2015-10-28T10:16:46.000Z</time>
      </trkpt>
      <trkpt lat="43.51153" lon="2.25535">
        <ele>297.7</ele>
        <time>2015-10-28T10:16:58.000Z</time>
      </trkpt>
      <trkpt lat="43.51145" lon="2.25544">
        <ele>299.5</ele>
        <time>2015-10-28T10:17:10.000Z</time>
      </trkpt>
      <trkpt lat="43.51141" lon="2.25556">
        <ele>301.2</ele>
        <time>2015-10-28T10:17:24.000Z</time>
      </trkpt>
      <trkpt lat="43.51136" lon="2.25566">
        <ele>303.4</ele>
        <time>2015-10-28T10:17:36.000Z</time>
      </trkpt>
      <trkpt lat="43.51131" lon="2.25576">
        <ele>305</ele>
        <time>2015-10-28T10:17:43.000Z</time>
      </trkpt>
      <trkpt lat="43.51129" lon="2.25589">
        <ele>306.9</ele>
        <time>2015-10-28T10:17:54.000Z</time>
      </trkpt>
      <trkpt lat="43.51127" lon="2.25601">
        <ele>308.3</ele>
        <time>2015-10-28T10:18:3.000Z</time>
      </trkpt>
      <trkpt lat="43.51126" lon="2.25614">
        <ele>309.8</ele>
        <time>2015-10-28T10:18:12.000Z</time>
      </trkpt>
      <trkpt lat="43.51119" lon="2.25623">
        <ele>311.8</ele>
        <time>2015-10-28T10:18:23.000Z</time>
      </trkpt>
      <trkpt lat="43.51115" lon="2.25635">
        <ele>313.3</ele>
        <time>2015-10-28T10:18:33.000Z</time>
      </trkpt>
      <trkpt lat="43.51111" lon="2.25648">
        <ele>314.2</ele>
        <time>2015-10-28T10:18:43.000Z</time>
      </trkpt>
      <trkpt lat="43.51106" lon="2.25658">
        <ele>315.7</ele>
        <time>2015-10-28T10:18:54.000Z</time>
      </trkpt>
      <trkpt lat="43.511" lon="2.25668">
        <ele>316.7</ele>
        <time>2015-10-28T10:19:4.000Z</time>
      </trkpt>
      <trkpt lat="43.51094" lon="2.25678">
        <ele>318.2</ele>
        <time>2015-10-28T10:19:14.000Z</time>
      </trkpt>
      <trkpt lat="43.51088" lon="2.25688">
        <ele>319.3</ele>
        <time>2015-10-28T10:19:23.000Z</time>
      </trkpt>
      <trkpt lat="43.5108" lon="2.25695">
        <ele>320.5</ele>
        <time>2015-10-28T10:19:34.000Z</time>
      </trkpt>
      <trkpt lat="43.51071" lon="2.25698">
        <ele>321.8</ele>
        <time>2015-10-28T10:19:43.000Z</time>
      </trkpt>
      <trkpt lat="43.51064" lon="2.25708">
        <ele>323</ele>
        <time>2015-10-28T10:19:50.000Z</time>
      </trkpt>
      <trkpt lat="43.51057" lon="2.25717">
        <ele>324.1</ele>
        <time>2015-10-28T10:19:59.000Z</time>
      </trkpt>
      <trkpt lat="43.51048" lon="2.2572">
        <ele>324.9</ele>
        <time>2015-10-28T10:20:8.000Z</time>
      </trkpt>
      <trkpt lat="43.5104" lon="2.25727">
        <ele>326.9</ele>
        <time>2015-10-28T10:20:23.000Z</time>
      </trkpt>
      <trkpt lat="43.51031" lon="2.2573">
        <ele>327.8</ele>
        <time>2015-10-28T10:20:31.000Z</time>
      </trkpt>
      <trkpt lat="43.51023" lon="2.25737">
        <ele>329.5</ele>
        <time>2015-10-28T10:20:42.000Z</time>
      </trkpt>
      <trkpt lat="43.51015" lon="2.25745">
        <ele>330</ele>
        <time>2015-10-28T10:20:49.000Z</time>
      </trkpt>
      <trkpt lat="43.51009" lon="2.25756">
        <ele>331.2</ele>
        <time>2015-10-28T10:20:57.000Z</time>
      </trkpt>
      <trkpt lat="43.51" lon="2.25759">
        <ele>332.5</ele>
        <time>2015-10-28T10:21:7.000Z</time>
      </trkpt>
      <trkpt lat="43.50993" lon="2.25769">
        <ele>333.6</ele>
        <time>2015-10-28T10:21:16.000Z</time>
      </trkpt>
      <trkpt lat="43.50985" lon="2.25776">
        <ele>335</ele>
        <time>2015-10-28T10:21:29.000Z</time>
      </trkpt>
      <trkpt lat="43.50977" lon="2.25782">
        <ele>336</ele>
        <time>2015-10-28T10:21:36.000Z</time>
      </trkpt>
      <trkpt lat="43.50969" lon="2.2579">
        <ele>336.6</ele>
        <time>2015-10-28T10:21:43.000Z</time>
      </trkpt>
      <trkpt lat="43.50965" lon="2.25801">
        <ele>337.8</ele>
        <time>2015-10-28T10:21:51.000Z</time>
      </trkpt>
      <trkpt lat="43.50959" lon="2.25811">
        <ele>338.8</ele>
        <time>2015-10-28T10:21:59.000Z</time>
      </trkpt>
      <trkpt lat="43.5095" lon="2.25821">
        <ele>339.4</ele>
        <time>2015-10-28T10:22:5.000Z</time>
      </trkpt>
      <trkpt lat="43.50949" lon="2.25833">
        <ele>340.3</ele>
        <time>2015-10-28T10:22:14.000Z</time>
      </trkpt>
      <trkpt lat="43.50945" lon="2.25845">
        <ele>341.5</ele>
        <time>2015-10-28T10:22:23.000Z</time>
      </trkpt>
      <trkpt lat="43.50941" lon="2.25857">
        <ele>342.2</ele>
        <time>2015-10-28T10:22:31.000Z</time>
      </trkpt>
      <trkpt lat="43.50935" lon="2.25868">
        <ele>343.1</ele>
        <time>2015-10-28T10:22:39.000Z</time>
      </trkpt>
      <trkpt lat="43.50928" lon="2.25876">
        <ele>343.8</ele>
        <time>2015-10-28T10:22:48.000Z</time>
      </trkpt>
      <trkpt lat="43.50926" lon="2.25889">
        <ele>345.2</ele>
        <time>2015-10-28T10:22:59.000Z</time>
      </trkpt>
      <trkpt lat="43.50918" lon="2.25896">
        <ele>346.5</ele>
        <time>2015-10-28T10:23:9.000Z</time>
      </trkpt>
      <trkpt lat="43.50912" lon="2.25907">
        <ele>347.3</ele>
        <time>2015-10-28T10:23:20.000Z</time>
      </trkpt>
      <trkpt lat="43.50904" lon="2.25914">
        <ele>347.9</ele>
        <time>2015-10-28T10:23:28.000Z</time>
      </trkpt>
      <trkpt lat="43.50895" lon="2.25913">
        <ele>350</ele>
        <time>2015-10-28T10:23:39.000Z</time>
      </trkpt>
      <trkpt lat="43.50886" lon="2.25909">
        <ele>351.9</ele>
        <time>2015-10-28T10:23:49.000Z</time>
      </trkpt>
      <trkpt lat="43.50879" lon="2.259">
        <ele>352.8</ele>
        <time>2015-10-28T10:23:56.000Z</time>
      </trkpt>
      <trkpt lat="43.50871" lon="2.25893">
        <ele>353.7</ele>
        <time>2015-10-28T10:24:3.000Z</time>
      </trkpt>
      <trkpt lat="43.50861" lon="2.25892">
        <ele>354.8</ele>
        <time>2015-10-28T10:24:14.000Z</time>
      </trkpt>
      <trkpt lat="43.50853" lon="2.25895">
        <ele>356.2</ele>
        <time>2015-10-28T10:24:23.000Z</time>
      </trkpt>
      <trkpt lat="43.50843" lon="2.25902">
        <ele>356.6</ele>
        <time>2015-10-28T10:24:29.000Z</time>
      </trkpt>
      <trkpt lat="43.50835" lon="2.25906">
        <ele>357.3</ele>
        <time>2015-10-28T10:24:35.000Z</time>
      </trkpt>
      <trkpt lat="43.50825" lon="2.25909">
        <ele>357.8</ele>
        <time>2015-10-28T10:24:42.000Z</time>
      </trkpt>
      <trkpt lat="43.50817" lon="2.25916">
        <ele>358.9</ele>
        <time>2015-10-28T10:24:52.000Z</time>
      </trkpt>
      <trkpt lat="43.50808" lon="2.25923">
        <ele>359.5</ele>
        <time>2015-10-28T10:24:59.000Z</time>
      </trkpt>
      <trkpt lat="43.508" lon="2.2593">
        <ele>360.3</ele>
        <time>2015-10-28T10:25:8.000Z</time>
      </trkpt>
      <trkpt lat="43.5079" lon="2.25933">
        <ele>361</ele>
        <time>2015-10-28T10:25:17.000Z</time>
      </trkpt>
      <trkpt lat="43.50781" lon="2.25936">
        <ele>361.8</ele>
        <time>2015-10-28T10:25:25.000Z</time>
      </trkpt>
      <trkpt lat="43.50772" lon="2.25939">
        <ele>362.3</ele>
        <time>2015-10-28T10:25:32.000Z</time>
      </trkpt>
      <trkpt lat="43.50762" lon="2.2594">
        <ele>363.3</ele>
        <time>2015-10-28T10:25:39.000Z</time>
      </trkpt>
      <trkpt lat="43.50753" lon="2.25943">
        <ele>364.1</ele>
        <time>2015-10-28T10:25:47.000Z</time>
      </trkpt>
      <trkpt lat="43.50744" lon="2.25943">
        <ele>364.9</ele>
        <time>2015-10-28T10:25:59.000Z</time>
      </trkpt>
      <trkpt lat="43.50736" lon="2.25952">
        <ele>365.5</ele>
        <time>2015-10-28T10:26:6.000Z</time>
      </trkpt>
      <trkpt lat="43.50727" lon="2.25955">
        <ele>366.2</ele>
        <time>2015-10-28T10:26:14.000Z</time>
      </trkpt>
      <trkpt lat="43.50716" lon="2.25955">
        <ele>366.9</ele>
        <time>2015-10-28T10:26:22.000Z</time>
      </trkpt>
      <trkpt lat="43.50706" lon="2.25957">
        <ele>367.6</ele>
        <time>2015-10-28T10:26:28.000Z</time>
      </trkpt>
      <trkpt lat="43.50696" lon="2.25955">
        <ele>367.9</ele>
        <time>2015-10-28T10:26:33.000Z</time>
      </trkpt>
      <trkpt lat="43.50686" lon="2.25953">
        <ele>368.9</ele>
        <time>2015-10-28T10:26:40.000Z</time>
      </trkpt>
      <trkpt lat="43.50677" lon="2.25958">
        <ele>369.6</ele>
        <time>2015-10-28T10:26:47.000Z</time>
      </trkpt>
      <trkpt lat="43.50668" lon="2.25955">
        <ele>370.5</ele>
        <time>2015-10-28T10:26:54.000Z</time>
      </trkpt>
      <trkpt lat="43.50659" lon="2.2595">
        <ele>371</ele>
        <time>2015-10-28T10:27:1.000Z</time>
      </trkpt>
      <trkpt lat="43.50651" lon="2.25945">
        <ele>371.4</ele>
        <time>2015-10-28T10:27:5.000Z</time>
      </trkpt>
      <trkpt lat="43.50642" lon="2.2594">
        <ele>371.8</ele>
        <time>2015-10-28T10:27:11.000Z</time>
      </trkpt>
      <trkpt lat="43.50632" lon="2.25936">
        <ele>372.3</ele>
        <time>2015-10-28T10:27:20.000Z</time>
      </trkpt>
      <trkpt lat="43.50625" lon="2.25928">
        <ele>372.9</ele>
        <time>2015-10-28T10:27:27.000Z</time>
      </trkpt>
      <trkpt lat="43.50618" lon="2.25921">
        <ele>373.3</ele>
        <time>2015-10-28T10:27:33.000Z</time>
      </trkpt>
      <trkpt lat="43.50608" lon="2.25915">
        <ele>373.5</ele>
        <time>2015-10-28T10:27:40.000Z</time>
      </trkpt>
      <trkpt lat="43.50599" lon="2.25908">
        <ele>373.4</ele>
        <time>2015-10-28T10:27:46.000Z</time>
      </trkpt>
      <trkpt lat="43.50592" lon="2.25899">
        <ele>373.7</ele>
        <time>2015-10-28T10:27:52.000Z</time>
      </trkpt>
      <trkpt lat="43.50585" lon="2.2589">
        <ele>374.1</ele>
        <time>2015-10-28T10:27:58.000Z</time>
      </trkpt>
      <trkpt lat="43.50577" lon="2.25882">
        <ele>374.6</ele>
        <time>2015-10-28T10:28:4.000Z</time>
      </trkpt>
      <trkpt lat="43.5057" lon="2.25875">
        <ele>374.7</ele>
        <time>2015-10-28T10:28:11.000Z</time>
      </trkpt>
      <trkpt lat="43.5056" lon="2.25871">
        <ele>375.4</ele>
        <time>2015-10-28T10:28:17.000Z</time>
      </trkpt>
      <trkpt lat="43.50551" lon="2.25869">
        <ele>376.4</ele>
        <time>2015-10-28T10:28:26.000Z</time>
      </trkpt>
      <trkpt lat="43.50542" lon="2.25875">
        <ele>377.8</ele>
        <time>2015-10-28T10:28:36.000Z</time>
      </trkpt>
      <trkpt lat="43.50536" lon="2.25884">
        <ele>379.2</ele>
        <time>2015-10-28T10:28:46.000Z</time>
      </trkpt>
      <trkpt lat="43.50527" lon="2.25889">
        <ele>380.8</ele>
        <time>2015-10-28T10:28:56.000Z</time>
      </trkpt>
      <trkpt lat="43.50518" lon="2.25891">
        <ele>381.2</ele>
        <time>2015-10-28T10:29:2.000Z</time>
      </trkpt>
      <trkpt lat="43.50509" lon="2.25891">
        <ele>382.4</ele>
        <time>2015-10-28T10:29:11.000Z</time>
      </trkpt>
      <trkpt lat="43.50504" lon="2.25901">
        <ele>385.8</ele>
        <time>2015-10-28T10:29:36.000Z</time>
      </trkpt>
      <trkpt lat="43.50495" lon="2.25907">
        <ele>385.7</ele>
        <time>2015-10-28T10:29:44.000Z</time>
      </trkpt>
      <trkpt lat="43.50484" lon="2.25904">
        <ele>385.9</ele>
        <time>2015-10-28T10:29:55.000Z</time>
      </trkpt>
      <trkpt lat="43.50481" lon="2.2589">
        <ele>386.5</ele>
        <time>2015-10-28T10:30:3.000Z</time>
      </trkpt>
      <trkpt lat="43.50483" lon="2.25875">
        <ele>386.9</ele>
        <time>2015-10-28T10:30:7.000Z</time>
      </trkpt>
      <trkpt lat="43.50487" lon="2.25859">
        <ele>387.1</ele>
        <time>2015-10-28T10:30:10.000Z</time>
      </trkpt>
      <trkpt lat="43.50491" lon="2.25842">
        <ele>387.4</ele>
        <time>2015-10-28T10:30:13.000Z</time>
      </trkpt>
      <trkpt lat="43.50495" lon="2.25829">
        <ele>387.5</ele>
        <time>2015-10-28T10:30:15.000Z</time>
      </trkpt>
      <trkpt lat="43.50495" lon="2.25811">
        <ele>387.7</ele>
        <time>2015-10-28T10:30:17.000Z</time>
      </trkpt>
      <trkpt lat="43.50498" lon="2.25797">
        <ele>387.9</ele>
        <time>2015-10-28T10:30:19.000Z</time>
      </trkpt>
      <trkpt lat="43.505" lon="2.25784">
        <ele>388.3</ele>
        <time>2015-10-28T10:30:22.000Z</time>
      </trkpt>
      <trkpt lat="43.50492" lon="2.25792">
        <ele>388.8</ele>
        <time>2015-10-28T10:30:26.000Z</time>
      </trkpt>
      <trkpt lat="43.50483" lon="2.25805">
        <ele>389.5</ele>
        <time>2015-10-28T10:30:31.000Z</time>
      </trkpt>
      <trkpt lat="43.50476" lon="2.25816">
        <ele>389.7</ele>
        <time>2015-10-28T10:30:33.000Z</time>
      </trkpt>
      <trkpt lat="43.50461" lon="2.25823">
        <ele>390.5</ele>
        <time>2015-10-28T10:30:39.000Z</time>
      </trkpt>
      <trkpt lat="43.50453" lon="2.2583">
        <ele>390.7</ele>
        <time>2015-10-28T10:30:41.000Z</time>
      </trkpt>
      <trkpt lat="43.50441" lon="2.25841">
        <ele>391</ele>
        <time>2015-10-28T10:30:44.000Z</time>
      </trkpt>
      <trkpt lat="43.50414" lon="2.2589">
        <ele>391</ele>
        <time>2015-10-28T10:30:49.000Z</time>
      </trkpt>
      <trkpt lat="43.50406" lon="2.25898">
        <ele>392.9</ele>
        <time>2015-10-28T10:30:54.000Z</time>
      </trkpt>
      <trkpt lat="43.50399" lon="2.25912">
        <ele>400.7</ele>
        <time>2015-10-28T10:31:51.000Z</time>
      </trkpt>
      <trkpt lat="43.50394" lon="2.25926">
        <ele>400.9</ele>
        <time>2015-10-28T10:31:55.000Z</time>
      </trkpt>
      <trkpt lat="43.50394" lon="2.25939">
        <ele>401</ele>
        <time>2015-10-28T10:31:58.000Z</time>
      </trkpt>
      <trkpt lat="43.50389" lon="2.25954">
        <ele>401.2</ele>
        <time>2015-10-28T10:32:1.000Z</time>
      </trkpt>
      <trkpt lat="43.50381" lon="2.25967">
        <ele>401.3</ele>
        <time>2015-10-28T10:32:2.000Z</time>
      </trkpt>
      <trkpt lat="43.50377" lon="2.25979">
        <ele>401.5</ele>
        <time>2015-10-28T10:32:4.000Z</time>
      </trkpt>
      <trkpt lat="43.50369" lon="2.2599">
        <ele>401.7</ele>
        <time>2015-10-28T10:32:8.000Z</time>
      </trkpt>
      <trkpt lat="43.50359" lon="2.26006">
        <ele>401.8</ele>
        <time>2015-10-28T10:32:11.000Z</time>
      </trkpt>
      <trkpt lat="43.5035" lon="2.26018">
        <ele>402</ele>
        <time>2015-10-28T10:32:14.000Z</time>
      </trkpt>
      <trkpt lat="43.50343" lon="2.26029">
        <ele>402</ele>
        <time>2015-10-28T10:32:16.000Z</time>
      </trkpt>
      <trkpt lat="43.50336" lon="2.26038">
        <ele>402</ele>
        <time>2015-10-28T10:32:18.000Z</time>
      </trkpt>
      <trkpt lat="43.50329" lon="2.26052">
        <ele>402.1</ele>
        <time>2015-10-28T10:32:20.000Z</time>
      </trkpt>
      <trkpt lat="43.5032" lon="2.26071">
        <ele>402.2</ele>
        <time>2015-10-28T10:32:22.000Z</time>
      </trkpt>
      <trkpt lat="43.50311" lon="2.2609">
        <ele>402.4</ele>
        <time>2015-10-28T10:32:24.000Z</time>
      </trkpt>
      <trkpt lat="43.50303" lon="2.26108">
        <ele>402.2</ele>
        <time>2015-10-28T10:32:26.000Z</time>
      </trkpt>
      <trkpt lat="43.50294" lon="2.2613">
        <ele>402.5</ele>
        <time>2015-10-28T10:32:28.000Z</time>
      </trkpt>
      <trkpt lat="43.50289" lon="2.26141">
        <ele>402.6</ele>
        <time>2015-10-28T10:32:29.000Z</time>
      </trkpt>
      <trkpt lat="43.50281" lon="2.26159">
        <ele>402.9</ele>
        <time>2015-10-28T10:32:31.000Z</time>
      </trkpt>
      <trkpt lat="43.50271" lon="2.2618">
        <ele>403.2</ele>
        <time>2015-10-28T10:32:33.000Z</time>
      </trkpt>
      <trkpt lat="43.50264" lon="2.26194">
        <ele>403.4</ele>
        <time>2015-10-28T10:32:34.000Z</time>
      </trkpt>
      <trkpt lat="43.50256" lon="2.26213">
        <ele>403.7</ele>
        <time>2015-10-28T10:32:36.000Z</time>
      </trkpt>
      <trkpt lat="43.50263" lon="2.26175">
        <ele>404</ele>
        <time>2015-10-28T10:32:42.000Z</time>
      </trkpt>
      <trkpt lat="43.50254" lon="2.26178">
        <ele>404.6</ele>
        <time>2015-10-28T10:32:47.000Z</time>
      </trkpt>
      <trkpt lat="43.50248" lon="2.26188">
        <ele>404.7</ele>
        <time>2015-10-28T10:32:48.000Z</time>
      </trkpt>
      <trkpt lat="43.50293" lon="2.26065">
        <ele>405</ele>
        <time>2015-10-28T10:32:53.000Z</time>
      </trkpt>
      <trkpt lat="43.50276" lon="2.26088">
        <ele>405.8</ele>
        <time>2015-10-28T10:32:58.000Z</time>
      </trkpt>
      <trkpt lat="43.50269" lon="2.26098">
        <ele>406.1</ele>
        <time>2015-10-28T10:33:0.000Z</time>
      </trkpt>
      <trkpt lat="43.50259" lon="2.26105">
        <ele>406.5</ele>
        <time>2015-10-28T10:33:3.000Z</time>
      </trkpt>
      <trkpt lat="43.50264" lon="2.26087">
        <ele>407.4</ele>
        <time>2015-10-28T10:33:11.000Z</time>
      </trkpt>
      <trkpt lat="43.50268" lon="2.26075">
        <ele>407.5</ele>
        <time>2015-10-28T10:33:14.000Z</time>
      </trkpt>
      <trkpt lat="43.50269" lon="2.26062">
        <ele>408.2</ele>
        <time>2015-10-28T10:33:21.000Z</time>
      </trkpt>
      <trkpt lat="43.50274" lon="2.26045">
        <ele>409.7</ele>
        <time>2015-10-28T10:33:34.000Z</time>
      </trkpt>
      <trkpt lat="43.50278" lon="2.26033">
        <ele>410.1</ele>
        <time>2015-10-28T10:33:38.000Z</time>
      </trkpt>
      <trkpt lat="43.50268" lon="2.26035">
        <ele>410.5</ele>
        <time>2015-10-28T10:33:46.000Z</time>
      </trkpt>
      <trkpt lat="43.50258" lon="2.26032">
        <ele>411.3</ele>
        <time>2015-10-28T10:33:52.000Z</time>
      </trkpt>
      <trkpt lat="43.50248" lon="2.2603">
        <ele>411.8</ele>
        <time>2015-10-28T10:33:57.000Z</time>
      </trkpt>
      <trkpt lat="43.5024" lon="2.26022">
        <ele>413.1</ele>
        <time>2015-10-28T10:34:6.000Z</time>
      </trkpt>
      <trkpt lat="43.50232" lon="2.26018">
        <ele>414.6</ele>
        <time>2015-10-28T10:34:16.000Z</time>
      </trkpt>
      <trkpt lat="43.50223" lon="2.26015">
        <ele>414.8</ele>
        <time>2015-10-28T10:34:24.000Z</time>
      </trkpt>
      <trkpt lat="43.50213" lon="2.26013">
        <ele>416.4</ele>
        <time>2015-10-28T10:34:31.000Z</time>
      </trkpt>
      <trkpt lat="43.50204" lon="2.26011">
        <ele>418.1</ele>
        <time>2015-10-28T10:34:41.000Z</time>
      </trkpt>
      <trkpt lat="43.50195" lon="2.26015">
        <ele>419.4</ele>
        <time>2015-10-28T10:35:16.000Z</time>
      </trkpt>
      <trkpt lat="43.50204" lon="2.26016">
        <ele>421.9</ele>
        <time>2015-10-28T10:36:1.000Z</time>
      </trkpt>
      <trkpt lat="43.50196" lon="2.26022">
        <ele>422.9</ele>
        <time>2015-10-28T10:36:16.000Z</time>
      </trkpt>
      <trkpt lat="43.50201" lon="2.26011">
        <ele>422.7</ele>
        <time>2015-10-28T10:39:3.000Z</time>
      </trkpt>
      <trkpt lat="43.50192" lon="2.26005">
        <ele>422.2</ele>
        <time>2015-10-28T10:39:45.000Z</time>
      </trkpt>
      <trkpt lat="43.50183" lon="2.26003">
        <ele>422.8</ele>
        <time>2015-10-28T10:39:56.000Z</time>
      </trkpt>
      <trkpt lat="43.50174" lon="2.25998">
        <ele>424.6</ele>
        <time>2015-10-28T10:40:9.000Z</time>
      </trkpt>
      <trkpt lat="43.50168" lon="2.25989">
        <ele>426.4</ele>
        <time>2015-10-28T10:40:24.000Z</time>
      </trkpt>
      <trkpt lat="43.50161" lon="2.25981">
        <ele>429.5</ele>
        <time>2015-10-28T10:40:43.000Z</time>
      </trkpt>
      <trkpt lat="43.50152" lon="2.25977">
        <ele>430.6</ele>
        <time>2015-10-28T10:40:52.000Z</time>
      </trkpt>
      <trkpt lat="43.50143" lon="2.25978">
        <ele>431.7</ele>
        <time>2015-10-28T10:41:1.000Z</time>
      </trkpt>
      <trkpt lat="43.50133" lon="2.25979">
        <ele>433.2</ele>
        <time>2015-10-28T10:41:13.000Z</time>
      </trkpt>
      <trkpt lat="43.50123" lon="2.25978">
        <ele>434.8</ele>
        <time>2015-10-28T10:41:25.000Z</time>
      </trkpt>
      <trkpt lat="43.50114" lon="2.25979">
        <ele>436.1</ele>
        <time>2015-10-28T10:41:36.000Z</time>
      </trkpt>
      <trkpt lat="43.50104" lon="2.2598">
        <ele>437.3</ele>
        <time>2015-10-28T10:41:46.000Z</time>
      </trkpt>
      <trkpt lat="43.50095" lon="2.25981">
        <ele>438.9</ele>
        <time>2015-10-28T10:41:57.000Z</time>
      </trkpt>
      <trkpt lat="43.50087" lon="2.25974">
        <ele>440.7</ele>
        <time>2015-10-28T10:42:11.000Z</time>
      </trkpt>
      <trkpt lat="43.50078" lon="2.25971">
        <ele>442.4</ele>
        <time>2015-10-28T10:42:25.000Z</time>
      </trkpt>
      <trkpt lat="43.50069" lon="2.25968">
        <ele>443.4</ele>
        <time>2015-10-28T10:42:38.000Z</time>
      </trkpt>
      <trkpt lat="43.5006" lon="2.2597">
        <ele>445.2</ele>
        <time>2015-10-28T10:42:49.000Z</time>
      </trkpt>
      <trkpt lat="43.50051" lon="2.25973">
        <ele>446.3</ele>
        <time>2015-10-28T10:42:57.000Z</time>
      </trkpt>
      <trkpt lat="43.50042" lon="2.25978">
        <ele>447.4</ele>
        <time>2015-10-28T10:43:9.000Z</time>
      </trkpt>
      <trkpt lat="43.50033" lon="2.25984">
        <ele>449.3</ele>
        <time>2015-10-28T10:43:27.000Z</time>
      </trkpt>
      <trkpt lat="43.50024" lon="2.25985">
        <ele>450.7</ele>
        <time>2015-10-28T10:43:36.000Z</time>
      </trkpt>
      <trkpt lat="43.50016" lon="2.2599">
        <ele>451.8</ele>
        <time>2015-10-28T10:43:46.000Z</time>
      </trkpt>
      <trkpt lat="43.50007" lon="2.25995">
        <ele>452.7</ele>
        <time>2015-10-28T10:43:55.000Z</time>
      </trkpt>
      <trkpt lat="43.49998" lon="2.26">
        <ele>454.7</ele>
        <time>2015-10-28T10:44:6.000Z</time>
      </trkpt>
      <trkpt lat="43.49974" lon="2.26005">
        <ele>455</ele>
        <time>2015-10-28T10:44:13.000Z</time>
      </trkpt>
      <trkpt lat="43.49966" lon="2.26011">
        <ele>456.6</ele>
        <time>2015-10-28T10:44:22.000Z</time>
      </trkpt>
      <trkpt lat="43.49956" lon="2.2601">
        <ele>457.9</ele>
        <time>2015-10-28T10:44:36.000Z</time>
      </trkpt>
      <trkpt lat="43.49951" lon="2.26019">
        <ele>458.4</ele>
        <time>2015-10-28T10:44:43.000Z</time>
      </trkpt>
      <trkpt lat="43.49943" lon="2.26012">
        <ele>461.2</ele>
        <time>2015-10-28T10:45:6.000Z</time>
      </trkpt>
      <trkpt lat="43.49946" lon="2.25999">
        <ele>461.8</ele>
        <time>2015-10-28T10:45:18.000Z</time>
      </trkpt>
      <trkpt lat="43.49942" lon="2.25986">
        <ele>464</ele>
        <time>2015-10-28T10:45:31.000Z</time>
      </trkpt>
      <trkpt lat="43.49944" lon="2.25974">
        <ele>464.8</ele>
        <time>2015-10-28T10:45:38.000Z</time>
      </trkpt>
      <trkpt lat="43.49941" lon="2.25962">
        <ele>465.3</ele>
        <time>2015-10-28T10:45:42.000Z</time>
      </trkpt>
      <trkpt lat="43.49937" lon="2.25946">
        <ele>465.6</ele>
        <time>2015-10-28T10:45:46.000Z</time>
      </trkpt>
      <trkpt lat="43.49933" lon="2.25931">
        <ele>466.2</ele>
        <time>2015-10-28T10:45:50.000Z</time>
      </trkpt>
      <trkpt lat="43.49927" lon="2.25919">
        <ele>466.7</ele>
        <time>2015-10-28T10:45:53.000Z</time>
      </trkpt>
      <trkpt lat="43.49921" lon="2.2591">
        <ele>466.5</ele>
        <time>2015-10-28T10:45:55.000Z</time>
      </trkpt>
      <trkpt lat="43.49916" lon="2.25899">
        <ele>466.8</ele>
        <time>2015-10-28T10:45:57.000Z</time>
      </trkpt>
      <trkpt lat="43.4991" lon="2.25888">
        <ele>467.2</ele>
        <time>2015-10-28T10:45:59.000Z</time>
      </trkpt>
      <trkpt lat="43.49903" lon="2.25876">
        <ele>467.2</ele>
        <time>2015-10-28T10:46:1.000Z</time>
      </trkpt>
      <trkpt lat="43.49899" lon="2.25863">
        <ele>467.5</ele>
        <time>2015-10-28T10:46:3.000Z</time>
      </trkpt>
      <trkpt lat="43.49894" lon="2.2585">
        <ele>467.7</ele>
        <time>2015-10-28T10:46:5.000Z</time>
      </trkpt>
      <trkpt lat="43.4989" lon="2.25837">
        <ele>467.7</ele>
        <time>2015-10-28T10:46:7.000Z</time>
      </trkpt>
      <trkpt lat="43.49884" lon="2.25823">
        <ele>468.1</ele>
        <time>2015-10-28T10:46:9.000Z</time>
      </trkpt>
      <trkpt lat="43.49879" lon="2.25806">
        <ele>468.2</ele>
        <time>2015-10-28T10:46:11.000Z</time>
      </trkpt>
      <trkpt lat="43.4987" lon="2.25791">
        <ele>468.6</ele>
        <time>2015-10-28T10:46:13.000Z</time>
      </trkpt>
      <trkpt lat="43.49861" lon="2.25779">
        <ele>469</ele>
        <time>2015-10-28T10:46:15.000Z</time>
      </trkpt>
      <trkpt lat="43.49854" lon="2.25767">
        <ele>469.1</ele>
        <time>2015-10-28T10:46:17.000Z</time>
      </trkpt>
      <trkpt lat="43.49847" lon="2.25753">
        <ele>469.6</ele>
        <time>2015-10-28T10:46:20.000Z</time>
      </trkpt>
      <trkpt lat="43.49839" lon="2.25743">
        <ele>470.1</ele>
        <time>2015-10-28T10:46:23.000Z</time>
      </trkpt>
      <trkpt lat="43.49834" lon="2.25732">
        <ele>470.3</ele>
        <time>2015-10-28T10:46:25.000Z</time>
      </trkpt>
      <trkpt lat="43.49828" lon="2.2572">
        <ele>470.6</ele>
        <time>2015-10-28T10:46:27.000Z</time>
      </trkpt>
      <trkpt lat="43.49853" lon="2.25806">
        <ele>471</ele>
        <time>2015-10-28T10:46:38.000Z</time>
      </trkpt>
      <trkpt lat="43.49855" lon="2.25823">
        <ele>472.3</ele>
        <time>2015-10-28T10:46:43.000Z</time>
      </trkpt>
      <trkpt lat="43.49846" lon="2.25818">
        <ele>472.6</ele>
        <time>2015-10-28T10:46:50.000Z</time>
      </trkpt>
      <trkpt lat="43.49851" lon="2.25829">
        <ele>472.9</ele>
        <time>2015-10-28T10:46:56.000Z</time>
      </trkpt>
      <trkpt lat="43.49845" lon="2.25841">
        <ele>473.3</ele>
        <time>2015-10-28T10:47:3.000Z</time>
      </trkpt>
      <trkpt lat="43.49844" lon="2.25855">
        <ele>473.8</ele>
        <time>2015-10-28T10:47:7.000Z</time>
      </trkpt>
      <trkpt lat="43.49836" lon="2.25864">
        <ele>475.9</ele>
        <time>2015-10-28T10:47:24.000Z</time>
      </trkpt>
      <trkpt lat="43.49826" lon="2.25869">
        <ele>477.2</ele>
        <time>2015-10-28T10:47:37.000Z</time>
      </trkpt>
      <trkpt lat="43.49817" lon="2.25869">
        <ele>478.2</ele>
        <time>2015-10-28T10:47:50.000Z</time>
      </trkpt>
      <trkpt lat="43.49807" lon="2.25865">
        <ele>479</ele>
        <time>2015-10-28T10:47:59.000Z</time>
      </trkpt>
      <trkpt lat="43.49798" lon="2.25864">
        <ele>479.6</ele>
        <time>2015-10-28T10:48:6.000Z</time>
      </trkpt>
      <trkpt lat="43.49788" lon="2.25866">
        <ele>481.3</ele>
        <time>2015-10-28T10:48:21.000Z</time>
      </trkpt>
      <trkpt lat="43.49779" lon="2.25863">
        <ele>482.4</ele>
        <time>2015-10-28T10:48:31.000Z</time>
      </trkpt>
      <trkpt lat="43.4977" lon="2.25868">
        <ele>484.9</ele>
        <time>2015-10-28T10:48:49.000Z</time>
      </trkpt>
      <trkpt lat="43.49761" lon="2.25869">
        <ele>485.9</ele>
        <time>2015-10-28T10:48:56.000Z</time>
      </trkpt>
      <trkpt lat="43.49751" lon="2.25875">
        <ele>486</ele>
        <time>2015-10-28T10:49:1.000Z</time>
      </trkpt>
      <trkpt lat="43.49748" lon="2.25888">
        <ele>487.3</ele>
        <time>2015-10-28T10:49:10.000Z</time>
      </trkpt>
      <trkpt lat="43.4975" lon="2.25901">
        <ele>488.3</ele>
        <time>2015-10-28T10:49:15.000Z</time>
      </trkpt>
      <trkpt lat="43.49755" lon="2.25914">
        <ele>489.6</ele>
        <time>2015-10-28T10:49:20.000Z</time>
      </trkpt>
      <trkpt lat="43.49762" lon="2.25924">
        <ele>490.7</ele>
        <time>2015-10-28T10:49:26.000Z</time>
      </trkpt>
      <trkpt lat="43.4977" lon="2.25933">
        <ele>491.2</ele>
        <time>2015-10-28T10:49:32.000Z</time>
      </trkpt>
      <trkpt lat="43.49777" lon="2.25942">
        <ele>492.1</ele>
        <time>2015-10-28T10:49:38.000Z</time>
      </trkpt>
      <trkpt lat="43.49786" lon="2.25949">
        <ele>493.5</ele>
        <time>2015-10-28T10:49:45.000Z</time>
      </trkpt>
      <trkpt lat="43.49793" lon="2.25957">
        <ele>494.5</ele>
        <time>2015-10-28T10:49:52.000Z</time>
      </trkpt>
      <trkpt lat="43.49799" lon="2.25968">
        <ele>495.5</ele>
        <time>2015-10-28T10:50:0.000Z</time>
      </trkpt>
      <trkpt lat="43.49802" lon="2.2598">
        <ele>496.6</ele>
        <time>2015-10-28T10:50:8.000Z</time>
      </trkpt>
      <trkpt lat="43.49801" lon="2.25993">
        <ele>498.2</ele>
        <time>2015-10-28T10:50:17.000Z</time>
      </trkpt>
      <trkpt lat="43.49805" lon="2.26005">
        <ele>499</ele>
        <time>2015-10-28T10:50:24.000Z</time>
      </trkpt>
      <trkpt lat="43.49808" lon="2.26018">
        <ele>499.9</ele>
        <time>2015-10-28T10:50:33.000Z</time>
      </trkpt>
      <trkpt lat="43.49804" lon="2.2603">
        <ele>501.3</ele>
        <time>2015-10-28T10:50:42.000Z</time>
      </trkpt>
      <trkpt lat="43.49803" lon="2.26043">
        <ele>502.4</ele>
        <time>2015-10-28T10:50:51.000Z</time>
      </trkpt>
      <trkpt lat="43.49803" lon="2.26056">
        <ele>503.8</ele>
        <time>2015-10-28T10:51:1.000Z</time>
      </trkpt>
      <trkpt lat="43.49798" lon="2.26067">
        <ele>505.3</ele>
        <time>2015-10-28T10:51:12.000Z</time>
      </trkpt>
      <trkpt lat="43.49792" lon="2.26076">
        <ele>506.4</ele>
        <time>2015-10-28T10:51:20.000Z</time>
      </trkpt>
      <trkpt lat="43.49786" lon="2.26087">
        <ele>507.9</ele>
        <time>2015-10-28T10:51:30.000Z</time>
      </trkpt>
      <trkpt lat="43.49783" lon="2.26099">
        <ele>508.4</ele>
        <time>2015-10-28T10:51:37.000Z</time>
      </trkpt>
      <trkpt lat="43.49776" lon="2.26108">
        <ele>509.5</ele>
        <time>2015-10-28T10:51:45.000Z</time>
      </trkpt>
      <trkpt lat="43.49767" lon="2.26115">
        <ele>511.3</ele>
        <time>2015-10-28T10:51:56.000Z</time>
      </trkpt>
      <trkpt lat="43.49759" lon="2.26121">
        <ele>512.4</ele>
        <time>2015-10-28T10:52:5.000Z</time>
      </trkpt>
      <trkpt lat="43.4975" lon="2.26126">
        <ele>513.2</ele>
        <time>2015-10-28T10:52:12.000Z</time>
      </trkpt>
      <trkpt lat="43.49741" lon="2.26131">
        <ele>513.6</ele>
        <time>2015-10-28T10:52:18.000Z</time>
      </trkpt>
      <trkpt lat="43.49731" lon="2.26135">
        <ele>514.6</ele>
        <time>2015-10-28T10:52:25.000Z</time>
      </trkpt>
      <trkpt lat="43.49735" lon="2.26151">
        <ele>518</ele>
        <time>2015-10-28T10:53:26.000Z</time>
      </trkpt>
      <trkpt lat="43.49739" lon="2.26137">
        <ele>526</ele>
        <time>2015-10-28T10:57:48.000Z</time>
      </trkpt>
      <trkpt lat="43.49731" lon="2.26133">
        <ele>527.1</ele>
        <time>2015-10-28T10:58:48.000Z</time>
      </trkpt>
      <trkpt lat="43.49724" lon="2.26124">
        <ele>527.9</ele>
        <time>2015-10-28T10:58:57.000Z</time>
      </trkpt>
      <trkpt lat="43.49718" lon="2.26114">
        <ele>529</ele>
        <time>2015-10-28T10:59:7.000Z</time>
      </trkpt>
      <trkpt lat="43.49715" lon="2.26101">
        <ele>530</ele>
        <time>2015-10-28T10:59:18.000Z</time>
      </trkpt>
      <trkpt lat="43.49708" lon="2.26093">
        <ele>531.2</ele>
        <time>2015-10-28T10:59:27.000Z</time>
      </trkpt>
      <trkpt lat="43.49699" lon="2.26089">
        <ele>532.3</ele>
        <time>2015-10-28T10:59:34.000Z</time>
      </trkpt>
      <trkpt lat="43.4969" lon="2.26084">
        <ele>533.4</ele>
        <time>2015-10-28T10:59:43.000Z</time>
      </trkpt>
      <trkpt lat="43.49683" lon="2.26076">
        <ele>534.6</ele>
        <time>2015-10-28T10:59:53.000Z</time>
      </trkpt>
      <trkpt lat="43.49675" lon="2.26069">
        <ele>535.6</ele>
        <time>2015-10-28T11:00:1.000Z</time>
      </trkpt>
      <trkpt lat="43.49667" lon="2.26063">
        <ele>536.7</ele>
        <time>2015-10-28T11:00:11.000Z</time>
      </trkpt>
      <trkpt lat="43.49659" lon="2.26053">
        <ele>538.4</ele>
        <time>2015-10-28T11:00:21.000Z</time>
      </trkpt>
      <trkpt lat="43.49653" lon="2.26044">
        <ele>539.5</ele>
        <time>2015-10-28T11:00:31.000Z</time>
      </trkpt>
      <trkpt lat="43.49645" lon="2.26038">
        <ele>539.3</ele>
        <time>2015-10-28T11:00:40.000Z</time>
      </trkpt>
      <trkpt lat="43.49637" lon="2.26033">
        <ele>540.8</ele>
        <time>2015-10-28T11:00:50.000Z</time>
      </trkpt>
      <trkpt lat="43.49627" lon="2.2603">
        <ele>543</ele>
        <time>2015-10-28T11:01:0.000Z</time>
      </trkpt>
      <trkpt lat="43.49618" lon="2.26024">
        <ele>543.9</ele>
        <time>2015-10-28T11:01:9.000Z</time>
      </trkpt>
      <trkpt lat="43.49609" lon="2.26019">
        <ele>545</ele>
        <time>2015-10-28T11:01:19.000Z</time>
      </trkpt>
      <trkpt lat="43.496" lon="2.26016">
        <ele>545.7</ele>
        <time>2015-10-28T11:01:25.000Z</time>
      </trkpt>
      <trkpt lat="43.49592" lon="2.2601">
        <ele>546.6</ele>
        <time>2015-10-28T11:01:33.000Z</time>
      </trkpt>
      <trkpt lat="43.49584" lon="2.26003">
        <ele>547.5</ele>
        <time>2015-10-28T11:01:42.000Z</time>
      </trkpt>
      <trkpt lat="43.49576" lon="2.25995">
        <ele>548.4</ele>
        <time>2015-10-28T11:01:50.000Z</time>
      </trkpt>
      <trkpt lat="43.49566" lon="2.25992">
        <ele>550.1</ele>
        <time>2015-10-28T11:02:4.000Z</time>
      </trkpt>
      <trkpt lat="43.49562" lon="2.2598">
        <ele>550.9</ele>
        <time>2015-10-28T11:02:10.000Z</time>
      </trkpt>
      <trkpt lat="43.49556" lon="2.2597">
        <ele>551.5</ele>
        <time>2015-10-28T11:02:15.000Z</time>
      </trkpt>
      <trkpt lat="43.4955" lon="2.25958">
        <ele>552.2</ele>
        <time>2015-10-28T11:02:21.000Z</time>
      </trkpt>
      <trkpt lat="43.49544" lon="2.25949">
        <ele>553.2</ele>
        <time>2015-10-28T11:02:28.000Z</time>
      </trkpt>
      <trkpt lat="43.4954" lon="2.25936">
        <ele>554.7</ele>
        <time>2015-10-28T11:02:41.000Z</time>
      </trkpt>
      <trkpt lat="43.49533" lon="2.25926">
        <ele>555.6</ele>
        <time>2015-10-28T11:02:49.000Z</time>
      </trkpt>
      <trkpt lat="43.49526" lon="2.25935">
        <ele>556.4</ele>
        <time>2015-10-28T11:02:54.000Z</time>
      </trkpt>
      <trkpt lat="43.49519" lon="2.25927">
        <ele>556.8</ele>
        <time>2015-10-28T11:02:57.000Z</time>
      </trkpt>
      <trkpt lat="43.49513" lon="2.25918">
        <ele>557.2</ele>
        <time>2015-10-28T11:03:1.000Z</time>
      </trkpt>
      <trkpt lat="43.49505" lon="2.25907">
        <ele>557.6</ele>
        <time>2015-10-28T11:03:6.000Z</time>
      </trkpt>
      <trkpt lat="43.49495" lon="2.2591">
        <ele>558.1</ele>
        <time>2015-10-28T11:03:13.000Z</time>
      </trkpt>
      <trkpt lat="43.49485" lon="2.25913">
        <ele>558.5</ele>
        <time>2015-10-28T11:03:19.000Z</time>
      </trkpt>
      <trkpt lat="43.49483" lon="2.25926">
        <ele>559</ele>
        <time>2015-10-28T11:03:29.000Z</time>
      </trkpt>
      <trkpt lat="43.49476" lon="2.25916">
        <ele>559.3</ele>
        <time>2015-10-28T11:03:34.000Z</time>
      </trkpt>
      <trkpt lat="43.49469" lon="2.25908">
        <ele>559.5</ele>
        <time>2015-10-28T11:03:39.000Z</time>
      </trkpt>
      <trkpt lat="43.49462" lon="2.25901">
        <ele>559.7</ele>
        <time>2015-10-28T11:03:44.000Z</time>
      </trkpt>
      <trkpt lat="43.49453" lon="2.25897">
        <ele>560.1</ele>
        <time>2015-10-28T11:03:50.000Z</time>
      </trkpt>
      <trkpt lat="43.49444" lon="2.259">
        <ele>560.7</ele>
        <time>2015-10-28T11:03:57.000Z</time>
      </trkpt>
      <trkpt lat="43.49439" lon="2.2591">
        <ele>560.9</ele>
        <time>2015-10-28T11:04:1.000Z</time>
      </trkpt>
      <trkpt lat="43.4943" lon="2.25915">
        <ele>561.5</ele>
        <time>2015-10-28T11:04:9.000Z</time>
      </trkpt>
      <trkpt lat="43.49424" lon="2.25924">
        <ele>562.1</ele>
        <time>2015-10-28T11:04:18.000Z</time>
      </trkpt>
      <trkpt lat="43.49412" lon="2.25919">
        <ele>562.5</ele>
        <time>2015-10-28T11:04:26.000Z</time>
      </trkpt>
      <trkpt lat="43.49402" lon="2.25916">
        <ele>563.1</ele>
        <time>2015-10-28T11:04:36.000Z</time>
      </trkpt>
      <trkpt lat="43.49393" lon="2.25918">
        <ele>563.5</ele>
        <time>2015-10-28T11:04:42.000Z</time>
      </trkpt>
      <trkpt lat="43.49383" lon="2.25919">
        <ele>564</ele>
        <time>2015-10-28T11:04:49.000Z</time>
      </trkpt>
      <trkpt lat="43.49377" lon="2.2593">
        <ele>564.9</ele>
        <time>2015-10-28T11:04:58.000Z</time>
      </trkpt>
      <trkpt lat="43.49371" lon="2.2594">
        <ele>565.8</ele>
        <time>2015-10-28T11:05:6.000Z</time>
      </trkpt>
      <trkpt lat="43.49363" lon="2.25948">
        <ele>567.7</ele>
        <time>2015-10-28T11:05:22.000Z</time>
      </trkpt>
      <trkpt lat="43.49355" lon="2.25956">
        <ele>568.2</ele>
        <time>2015-10-28T11:05:29.000Z</time>
      </trkpt>
      <trkpt lat="43.4936" lon="2.2597">
        <ele>568.9</ele>
        <time>2015-10-28T11:05:36.000Z</time>
      </trkpt>
      <trkpt lat="43.49351" lon="2.25974">
        <ele>570.9</ele>
        <time>2015-10-28T11:05:53.000Z</time>
      </trkpt>
      <trkpt lat="43.49341" lon="2.25974">
        <ele>571.6</ele>
        <time>2015-10-28T11:05:59.000Z</time>
      </trkpt>
      <trkpt lat="43.49333" lon="2.25986">
        <ele>572.5</ele>
        <time>2015-10-28T11:06:5.000Z</time>
      </trkpt>
      <trkpt lat="43.49331" lon="2.25998">
        <ele>574.1</ele>
        <time>2015-10-28T11:06:15.000Z</time>
      </trkpt>
      <trkpt lat="43.49321" lon="2.26001">
        <ele>576</ele>
        <time>2015-10-28T11:06:27.000Z</time>
      </trkpt>
      <trkpt lat="43.49311" lon="2.25995">
        <ele>577.2</ele>
        <time>2015-10-28T11:06:33.000Z</time>
      </trkpt>
      <trkpt lat="43.49302" lon="2.25988">
        <ele>578.4</ele>
        <time>2015-10-28T11:06:38.000Z</time>
      </trkpt>
      <trkpt lat="43.493" lon="2.25976">
        <ele>579.9</ele>
        <time>2015-10-28T11:06:43.000Z</time>
      </trkpt>
      <trkpt lat="43.49302" lon="2.25962">
        <ele>581.5</ele>
        <time>2015-10-28T11:06:49.000Z</time>
      </trkpt>
      <trkpt lat="43.49306" lon="2.25951">
        <ele>583.8</ele>
        <time>2015-10-28T11:06:57.000Z</time>
      </trkpt>
      <trkpt lat="43.49317" lon="2.25947">
        <ele>587</ele>
        <time>2015-10-28T11:07:9.000Z</time>
      </trkpt>
      <trkpt lat="43.49324" lon="2.25937">
        <ele>589.6</ele>
        <time>2015-10-28T11:07:18.000Z</time>
      </trkpt>
      <trkpt lat="43.49321" lon="2.25925">
        <ele>591.9</ele>
        <time>2015-10-28T11:07:25.000Z</time>
      </trkpt>
      <trkpt lat="43.49312" lon="2.25917">
        <ele>595.3</ele>
        <time>2015-10-28T11:07:34.000Z</time>
      </trkpt>
      <trkpt lat="43.49305" lon="2.25905">
        <ele>596.9</ele>
        <time>2015-10-28T11:07:38.000Z</time>
      </trkpt>
      <trkpt lat="43.49299" lon="2.25895">
        <ele>598.1</ele>
        <time>2015-10-28T11:07:41.000Z</time>
      </trkpt>
      <trkpt lat="43.49297" lon="2.25882">
        <ele>602.4</ele>
        <time>2015-10-28T11:07:52.000Z</time>
      </trkpt>
      <trkpt lat="43.49292" lon="2.25872">
        <ele>604.3</ele>
        <time>2015-10-28T11:07:57.000Z</time>
      </trkpt>
      <trkpt lat="43.49283" lon="2.25865">
        <ele>606.7</ele>
        <time>2015-10-28T11:08:3.000Z</time>
      </trkpt>
      <trkpt lat="43.49279" lon="2.25854">
        <ele>615.3</ele>
        <time>2015-10-28T11:08:24.000Z</time>
      </trkpt>
      <trkpt lat="43.4928" lon="2.25841">
        <ele>616.9</ele>
        <time>2015-10-28T11:08:28.000Z</time>
      </trkpt>
      <trkpt lat="43.49276" lon="2.25828">
        <ele>609.2</ele>
        <time>2015-10-28T11:08:33.000Z</time>
      </trkpt>
      <trkpt lat="43.4927" lon="2.25818">
        <ele>610.8</ele>
        <time>2015-10-28T11:08:37.000Z</time>
      </trkpt>
      <trkpt lat="43.49261" lon="2.25809">
        <ele>609.1</ele>
        <time>2015-10-28T11:08:43.000Z</time>
      </trkpt>
      <trkpt lat="43.49251" lon="2.25803">
        <ele>615.9</ele>
        <time>2015-10-28T11:08:51.000Z</time>
      </trkpt>
      <trkpt lat="43.49247" lon="2.25788">
        <ele>618.4</ele>
        <time>2015-10-28T11:08:55.000Z</time>
      </trkpt>
      <trkpt lat="43.49258" lon="2.25789">
        <ele>622.1</ele>
        <time>2015-10-28T11:09:3.000Z</time>
      </trkpt>
      <trkpt lat="43.4925" lon="2.25785">
        <ele>624.7</ele>
        <time>2015-10-28T11:09:11.000Z</time>
      </trkpt>
      <trkpt lat="43.4926" lon="2.25784">
        <ele>627.2</ele>
        <time>2015-10-28T11:09:20.000Z</time>
      </trkpt>
      <trkpt lat="43.4927" lon="2.25787">
        <ele>628.5</ele>
        <time>2015-10-28T11:09:25.000Z</time>
      </trkpt>
      <trkpt lat="43.49273" lon="2.25798">
        <ele>629.1</ele>
        <time>2015-10-28T11:09:42.000Z</time>
      </trkpt>
      <trkpt lat="43.49268" lon="2.2581">
        <ele>626.6</ele>
        <time>2015-10-28T11:10:43.000Z</time>
      </trkpt>
      <trkpt lat="43.49265" lon="2.25822">
        <ele>627.5</ele>
        <time>2015-10-28T11:10:47.000Z</time>
      </trkpt>
      <trkpt lat="43.49261" lon="2.25835">
        <ele>628.9</ele>
        <time>2015-10-28T11:10:52.000Z</time>
      </trkpt>
      <trkpt lat="43.49259" lon="2.25849">
        <ele>631.9</ele>
        <time>2015-10-28T11:11:3.000Z</time>
      </trkpt>
      <trkpt lat="43.49268" lon="2.25855">
        <ele>633.4</ele>
        <time>2015-10-28T11:11:8.000Z</time>
      </trkpt>
      <trkpt lat="43.49277" lon="2.25861">
        <ele>635.1</ele>
        <time>2015-10-28T11:11:14.000Z</time>
      </trkpt>
      <trkpt lat="43.49287" lon="2.25868">
        <ele>636.4</ele>
        <time>2015-10-28T11:11:19.000Z</time>
      </trkpt>
      <trkpt lat="43.49294" lon="2.25875">
        <ele>638</ele>
        <time>2015-10-28T11:11:25.000Z</time>
      </trkpt>
      <trkpt lat="43.49301" lon="2.25883">
        <ele>639.9</ele>
        <time>2015-10-28T11:11:32.000Z</time>
      </trkpt>
      <trkpt lat="43.49293" lon="2.25895">
        <ele>641.3</ele>
        <time>2015-10-28T11:11:37.000Z</time>
      </trkpt>
      <trkpt lat="43.49301" lon="2.25903">
        <ele>643.5</ele>
        <time>2015-10-28T11:11:45.000Z</time>
      </trkpt>
      <trkpt lat="43.493" lon="2.25919">
        <ele>645.2</ele>
        <time>2015-10-28T11:11:51.000Z</time>
      </trkpt>
      <trkpt lat="43.49306" lon="2.25928">
        <ele>645.5</ele>
        <time>2015-10-28T11:11:52.000Z</time>
      </trkpt>
      <trkpt lat="43.49313" lon="2.25938">
        <ele>646</ele>
        <time>2015-10-28T11:11:54.000Z</time>
      </trkpt>
      <trkpt lat="43.49319" lon="2.25951">
        <ele>647.4</ele>
        <time>2015-10-28T11:11:59.000Z</time>
      </trkpt>
      <trkpt lat="43.49325" lon="2.25961">
        <ele>648.9</ele>
        <time>2015-10-28T11:12:5.000Z</time>
      </trkpt>
      <trkpt lat="43.49328" lon="2.25973">
        <ele>650.6</ele>
        <time>2015-10-28T11:12:12.000Z</time>
      </trkpt>
      <trkpt lat="43.49323" lon="2.25985">
        <ele>652.5</ele>
        <time>2015-10-28T11:12:20.000Z</time>
      </trkpt>
      <trkpt lat="43.49315" lon="2.25991">
        <ele>654.3</ele>
        <time>2015-10-28T11:12:28.000Z</time>
      </trkpt>
      <trkpt lat="43.49311" lon="2.26003">
        <ele>655.8</ele>
        <time>2015-10-28T11:12:35.000Z</time>
      </trkpt>
      <trkpt lat="43.49314" lon="2.26016">
        <ele>657.3</ele>
        <time>2015-10-28T11:12:43.000Z</time>
      </trkpt>
      <trkpt lat="43.49321" lon="2.26027">
        <ele>658.8</ele>
        <time>2015-10-28T11:12:51.000Z</time>
      </trkpt>
      <trkpt lat="43.49324" lon="2.2604">
        <ele>661.9</ele>
        <time>2015-10-28T11:13:10.000Z</time>
      </trkpt>
      <trkpt lat="43.49332" lon="2.26046">
        <ele>663.2</ele>
        <time>2015-10-28T11:13:19.000Z</time>
      </trkpt>
      <trkpt lat="43.49341" lon="2.26054">
        <ele>664.7</ele>
        <time>2015-10-28T11:13:31.000Z</time>
      </trkpt>
      <trkpt lat="43.49348" lon="2.26065">
        <ele>665.4</ele>
        <time>2015-10-28T11:13:38.000Z</time>
      </trkpt>
      <trkpt lat="43.49338" lon="2.26057">
        <ele>667.3</ele>
        <time>2015-10-28T11:13:52.000Z</time>
      </trkpt>
      <trkpt lat="43.49345" lon="2.26048">
        <ele>669.1</ele>
        <time>2015-10-28T11:14:9.000Z</time>
      </trkpt>
      <trkpt lat="43.49354" lon="2.2605">
        <ele>669.5</ele>
        <time>2015-10-28T11:14:15.000Z</time>
      </trkpt>
      <trkpt lat="43.49364" lon="2.26055">
        <ele>669.8</ele>
        <time>2015-10-28T11:14:20.000Z</time>
      </trkpt>
      <trkpt lat="43.49373" lon="2.26055">
        <ele>670.3</ele>
        <time>2015-10-28T11:14:28.000Z</time>
      </trkpt>
      <trkpt lat="43.49382" lon="2.26061">
        <ele>670.6</ele>
        <time>2015-10-28T11:14:32.000Z</time>
      </trkpt>
      <trkpt lat="43.49391" lon="2.26064">
        <ele>671.2</ele>
        <time>2015-10-28T11:14:39.000Z</time>
      </trkpt>
      <trkpt lat="43.494" lon="2.26066">
        <ele>672.2</ele>
        <time>2015-10-28T11:14:49.000Z</time>
      </trkpt>
      <trkpt lat="43.49411" lon="2.26083">
        <ele>672.6</ele>
        <time>2015-10-28T11:14:53.000Z</time>
      </trkpt>
      <trkpt lat="43.49421" lon="2.26093">
        <ele>672.9</ele>
        <time>2015-10-28T11:14:56.000Z</time>
      </trkpt>
      <trkpt lat="43.49429" lon="2.26101">
        <ele>673.4</ele>
        <time>2015-10-28T11:15:2.000Z</time>
      </trkpt>
      <trkpt lat="43.49437" lon="2.26109">
        <ele>673.9</ele>
        <time>2015-10-28T11:15:9.000Z</time>
      </trkpt>
      <trkpt lat="43.49438" lon="2.26123">
        <ele>674.4</ele>
        <time>2015-10-28T11:15:16.000Z</time>
      </trkpt>
      <trkpt lat="43.49446" lon="2.26131">
        <ele>674.8</ele>
        <time>2015-10-28T11:15:23.000Z</time>
      </trkpt>
      <trkpt lat="43.49453" lon="2.2614">
        <ele>675.3</ele>
        <time>2015-10-28T11:15:32.000Z</time>
      </trkpt>
      <trkpt lat="43.49461" lon="2.26148">
        <ele>675.6</ele>
        <time>2015-10-28T11:15:40.000Z</time>
      </trkpt>
      <trkpt lat="43.49468" lon="2.26156">
        <ele>676.2</ele>
        <time>2015-10-28T11:15:50.000Z</time>
      </trkpt>
      <trkpt lat="43.4946" lon="2.26165">
        <ele>676.9</ele>
        <time>2015-10-28T11:16:3.000Z</time>
      </trkpt>
      <trkpt lat="43.4945" lon="2.26171">
        <ele>677.4</ele>
        <time>2015-10-28T11:16:10.000Z</time>
      </trkpt>
      <trkpt lat="43.49438" lon="2.26178">
        <ele>677.6</ele>
        <time>2015-10-28T11:16:13.000Z</time>
      </trkpt>
      <trkpt lat="43.49428" lon="2.26188">
        <ele>677.9</ele>
        <time>2015-10-28T11:16:17.000Z</time>
      </trkpt>
      <trkpt lat="43.49423" lon="2.26199">
        <ele>678.4</ele>
        <time>2015-10-28T11:16:27.000Z</time>
      </trkpt>
      <trkpt lat="43.49425" lon="2.26211">
        <ele>679.2</ele>
        <time>2015-10-28T11:16:40.000Z</time>
      </trkpt>
      <trkpt lat="43.49417" lon="2.2622">
        <ele>679.6</ele>
        <time>2015-10-28T11:16:48.000Z</time>
      </trkpt>
      <trkpt lat="43.49409" lon="2.26227">
        <ele>679.8</ele>
        <time>2015-10-28T11:16:54.000Z</time>
      </trkpt>
      <trkpt lat="43.49405" lon="2.2624">
        <ele>680.3</ele>
        <time>2015-10-28T11:17:6.000Z</time>
      </trkpt>
      <trkpt lat="43.49397" lon="2.26247">
        <ele>680.6</ele>
        <time>2015-10-28T11:17:14.000Z</time>
      </trkpt>
      <trkpt lat="43.49388" lon="2.26254">
        <ele>681.1</ele>
        <time>2015-10-28T11:17:24.000Z</time>
      </trkpt>
      <trkpt lat="43.4938" lon="2.2626">
        <ele>681.6</ele>
        <time>2015-10-28T11:17:34.000Z</time>
      </trkpt>
      <trkpt lat="43.49379" lon="2.26248">
        <ele>682.4</ele>
        <time>2015-10-28T11:17:48.000Z</time>
      </trkpt>
      <trkpt lat="43.49386" lon="2.26238">
        <ele>683</ele>
        <time>2015-10-28T11:17:59.000Z</time>
      </trkpt>
      <trkpt lat="43.49392" lon="2.26228">
        <ele>683.3</ele>
        <time>2015-10-28T11:18:5.000Z</time>
      </trkpt>
      <trkpt lat="43.49391" lon="2.26216">
        <ele>683.7</ele>
        <time>2015-10-28T11:18:14.000Z</time>
      </trkpt>
      <trkpt lat="43.49387" lon="2.26205">
        <ele>684</ele>
        <time>2015-10-28T11:18:22.000Z</time>
      </trkpt>
      <trkpt lat="43.49383" lon="2.26192">
        <ele>684.3</ele>
        <time>2015-10-28T11:18:40.000Z</time>
      </trkpt>
      <trkpt lat="43.49374" lon="2.2619">
        <ele>684.4</ele>
        <time>2015-10-28T11:18:44.000Z</time>
      </trkpt>
      <trkpt lat="43.49366" lon="2.26181">
        <ele>684.4</ele>
        <time>2015-10-28T11:18:50.000Z</time>
      </trkpt>
      <trkpt lat="43.49357" lon="2.26176">
        <ele>684.5</ele>
        <time>2015-10-28T11:18:59.000Z</time>
      </trkpt>
      <trkpt lat="43.4936" lon="2.26189">
        <ele>684.4</ele>
        <time>2015-10-28T11:19:20.000Z</time>
      </trkpt>
      <trkpt lat="43.49368" lon="2.26198">
        <ele>684.6</ele>
        <time>2015-10-28T11:19:27.000Z</time>
      </trkpt>
      <trkpt lat="43.49371" lon="2.2621">
        <ele>684.9</ele>
        <time>2015-10-28T11:19:39.000Z</time>
      </trkpt>
      <trkpt lat="43.49364" lon="2.26219">
        <ele>685.2</ele>
        <time>2015-10-28T11:19:47.000Z</time>
      </trkpt>
      <trkpt lat="43.49356" lon="2.26227">
        <ele>685.3</ele>
        <time>2015-10-28T11:19:55.000Z</time>
      </trkpt>
      <trkpt lat="43.49351" lon="2.26237">
        <ele>685.4</ele>
        <time>2015-10-28T11:20:7.000Z</time>
      </trkpt>
      <trkpt lat="43.49341" lon="2.26244">
        <ele>685.7</ele>
        <time>2015-10-28T11:20:17.000Z</time>
      </trkpt>
      <trkpt lat="43.49331" lon="2.26246">
        <ele>685.9</ele>
        <time>2015-10-28T11:20:23.000Z</time>
      </trkpt>
      <trkpt lat="43.49321" lon="2.26247">
        <ele>686.2</ele>
        <time>2015-10-28T11:20:31.000Z</time>
      </trkpt>
      <trkpt lat="43.49312" lon="2.26241">
        <ele>686.4</ele>
        <time>2015-10-28T11:20:40.000Z</time>
      </trkpt>
      <trkpt lat="43.49304" lon="2.26248">
        <ele>686.7</ele>
        <time>2015-10-28T11:20:52.000Z</time>
      </trkpt>
      <trkpt lat="43.49297" lon="2.26255">
        <ele>686.9</ele>
        <time>2015-10-28T11:21:4.000Z</time>
      </trkpt>
      <trkpt lat="43.49287" lon="2.26257">
        <ele>687.3</ele>
        <time>2015-10-28T11:21:14.000Z</time>
      </trkpt>
      <trkpt lat="43.49283" lon="2.26246">
        <ele>687.4</ele>
        <time>2015-10-28T11:21:23.000Z</time>
      </trkpt>
      <trkpt lat="43.49288" lon="2.26233">
        <ele>687.5</ele>
        <time>2015-10-28T11:21:27.000Z</time>
      </trkpt>
      <trkpt lat="43.49291" lon="2.26221">
        <ele>687.8</ele>
        <time>2015-10-28T11:21:35.000Z</time>
      </trkpt>
      <trkpt lat="43.49284" lon="2.26212">
        <ele>688.1</ele>
        <time>2015-10-28T11:21:47.000Z</time>
      </trkpt>
      <trkpt lat="43.49275" lon="2.26216">
        <ele>688.5</ele>
        <time>2015-10-28T11:21:59.000Z</time>
      </trkpt>
      <trkpt lat="43.49273" lon="2.26229">
        <ele>688.8</ele>
        <time>2015-10-28T11:22:7.000Z</time>
      </trkpt>
      <trkpt lat="43.49269" lon="2.26241">
        <ele>690.6</ele>
        <time>2015-10-28T11:23:43.000Z</time>
      </trkpt>
      <trkpt lat="43.4926" lon="2.26246">
        <ele>690.6</ele>
        <time>2015-10-28T11:23:50.000Z</time>
      </trkpt>
      <trkpt lat="43.49252" lon="2.26252">
        <ele>690.5</ele>
        <time>2015-10-28T11:24:2.000Z</time>
      </trkpt>
      <trkpt lat="43.49243" lon="2.26256">
        <ele>690.5</ele>
        <time>2015-10-28T11:24:10.000Z</time>
      </trkpt>
      <trkpt lat="43.49233" lon="2.26258">
        <ele>690.5</ele>
        <time>2015-10-28T11:24:17.000Z</time>
      </trkpt>
      <trkpt lat="43.49224" lon="2.26259">
        <ele>690.8</ele>
        <time>2015-10-28T11:24:27.000Z</time>
      </trkpt>
      <trkpt lat="43.49214" lon="2.26259">
        <ele>691</ele>
        <time>2015-10-28T11:24:38.000Z</time>
      </trkpt>
      <trkpt lat="43.49205" lon="2.26257">
        <ele>691.4</ele>
        <time>2015-10-28T11:24:48.000Z</time>
      </trkpt>
      <trkpt lat="43.49195" lon="2.26253">
        <ele>691.7</ele>
        <time>2015-10-28T11:24:58.000Z</time>
      </trkpt>
      <trkpt lat="43.49186" lon="2.26248">
        <ele>691.7</ele>
        <time>2015-10-28T11:25:6.000Z</time>
      </trkpt>
      <trkpt lat="43.49177" lon="2.26247">
        <ele>692</ele>
        <time>2015-10-28T11:25:16.000Z</time>
      </trkpt>
      <trkpt lat="43.49168" lon="2.26244">
        <ele>692.4</ele>
        <time>2015-10-28T11:25:28.000Z</time>
      </trkpt>
      <trkpt lat="43.4916" lon="2.26238">
        <ele>692.8</ele>
        <time>2015-10-28T11:25:38.000Z</time>
      </trkpt>
      <trkpt lat="43.49152" lon="2.26232">
        <ele>693.2</ele>
        <time>2015-10-28T11:25:47.000Z</time>
      </trkpt>
      <trkpt lat="43.49143" lon="2.26229">
        <ele>694.1</ele>
        <time>2015-10-28T11:25:59.000Z</time>
      </trkpt>
      <trkpt lat="43.49134" lon="2.26227">
        <ele>694.7</ele>
        <time>2015-10-28T11:26:9.000Z</time>
      </trkpt>
      <trkpt lat="43.49126" lon="2.26219">
        <ele>695.2</ele>
        <time>2015-10-28T11:26:17.000Z</time>
      </trkpt>
      <trkpt lat="43.49117" lon="2.26216">
        <ele>696</ele>
        <time>2015-10-28T11:26:26.000Z</time>
      </trkpt>
      <trkpt lat="43.49109" lon="2.26212">
        <ele>696.5</ele>
        <time>2015-10-28T11:26:35.000Z</time>
      </trkpt>
      <trkpt lat="43.49099" lon="2.26209">
        <ele>697.5</ele>
        <time>2015-10-28T11:26:46.000Z</time>
      </trkpt>
      <trkpt lat="43.4909" lon="2.26206">
        <ele>698.5</ele>
        <time>2015-10-28T11:26:58.000Z</time>
      </trkpt>
      <trkpt lat="43.49081" lon="2.26201">
        <ele>699.4</ele>
        <time>2015-10-28T11:27:8.000Z</time>
      </trkpt>
      <trkpt lat="43.49073" lon="2.26194">
        <ele>700.3</ele>
        <time>2015-10-28T11:27:18.000Z</time>
      </trkpt>
      <trkpt lat="43.49065" lon="2.26187">
        <ele>701</ele>
        <time>2015-10-28T11:27:25.000Z</time>
      </trkpt>
      <trkpt lat="43.49056" lon="2.26182">
        <ele>701.6</ele>
        <time>2015-10-28T11:27:34.000Z</time>
      </trkpt>
      <trkpt lat="43.49048" lon="2.26177">
        <ele>702.5</ele>
        <time>2015-10-28T11:27:43.000Z</time>
      </trkpt>
      <trkpt lat="43.49039" lon="2.26171">
        <ele>703.3</ele>
        <time>2015-10-28T11:27:52.000Z</time>
      </trkpt>
      <trkpt lat="43.4903" lon="2.26163">
        <ele>704.1</ele>
        <time>2015-10-28T11:28:1.000Z</time>
      </trkpt>
      <trkpt lat="43.49022" lon="2.26156">
        <ele>704.9</ele>
        <time>2015-10-28T11:28:9.000Z</time>
      </trkpt>
      <trkpt lat="43.49014" lon="2.26148">
        <ele>705.5</ele>
        <time>2015-10-28T11:28:18.000Z</time>
      </trkpt>
      <trkpt lat="43.49007" lon="2.2614">
        <ele>706.2</ele>
        <time>2015-10-28T11:28:26.000Z</time>
      </trkpt>
      <trkpt lat="43.48999" lon="2.26133">
        <ele>707</ele>
        <time>2015-10-28T11:28:35.000Z</time>
      </trkpt>
      <trkpt lat="43.48991" lon="2.26127">
        <ele>707.6</ele>
        <time>2015-10-28T11:28:43.000Z</time>
      </trkpt>
      <trkpt lat="43.4898" lon="2.2612">
        <ele>708.2</ele>
        <time>2015-10-28T11:28:52.000Z</time>
      </trkpt>
      <trkpt lat="43.48972" lon="2.26112">
        <ele>708.7</ele>
        <time>2015-10-28T11:29:1.000Z</time>
      </trkpt>
      <trkpt lat="43.48962" lon="2.26107">
        <ele>709.4</ele>
        <time>2015-10-28T11:29:10.000Z</time>
      </trkpt>
      <trkpt lat="43.48954" lon="2.261">
        <ele>709.9</ele>
        <time>2015-10-28T11:29:18.000Z</time>
      </trkpt>
      <trkpt lat="43.48946" lon="2.26093">
        <ele>710.5</ele>
        <time>2015-10-28T11:29:27.000Z</time>
      </trkpt>
      <trkpt lat="43.48939" lon="2.26084">
        <ele>711.3</ele>
        <time>2015-10-28T11:29:37.000Z</time>
      </trkpt>
      <trkpt lat="43.48931" lon="2.26078">
        <ele>711.9</ele>
        <time>2015-10-28T11:29:45.000Z</time>
      </trkpt>
      <trkpt lat="43.48922" lon="2.26071">
        <ele>712.3</ele>
        <time>2015-10-28T11:29:52.000Z</time>
      </trkpt>
      <trkpt lat="43.48914" lon="2.26066">
        <ele>712.6</ele>
        <time>2015-10-28T11:29:59.000Z</time>
      </trkpt>
      <trkpt lat="43.48906" lon="2.26061">
        <ele>713</ele>
        <time>2015-10-28T11:30:6.000Z</time>
      </trkpt>
      <trkpt lat="43.48899" lon="2.26052">
        <ele>713.7</ele>
        <time>2015-10-28T11:30:16.000Z</time>
      </trkpt>
      <trkpt lat="43.48894" lon="2.2604">
        <ele>714.5</ele>
        <time>2015-10-28T11:30:25.000Z</time>
      </trkpt>
      <trkpt lat="43.48894" lon="2.26028">
        <ele>714.9</ele>
        <time>2015-10-28T11:30:33.000Z</time>
      </trkpt>
      <trkpt lat="43.48891" lon="2.26015">
        <ele>715.1</ele>
        <time>2015-10-28T11:30:38.000Z</time>
      </trkpt>
      <trkpt lat="43.48886" lon="2.26003">
        <ele>715.3</ele>
        <time>2015-10-28T11:30:44.000Z</time>
      </trkpt>
      <trkpt lat="43.48882" lon="2.25992">
        <ele>715.7</ele>
        <time>2015-10-28T11:30:51.000Z</time>
      </trkpt>
      <trkpt lat="43.48878" lon="2.25979">
        <ele>716.3</ele>
        <time>2015-10-28T11:31:2.000Z</time>
      </trkpt>
      <trkpt lat="43.48876" lon="2.25967">
        <ele>716.6</ele>
        <time>2015-10-28T11:31:9.000Z</time>
      </trkpt>
      <trkpt lat="43.48872" lon="2.25955">
        <ele>717</ele>
        <time>2015-10-28T11:31:18.000Z</time>
      </trkpt>
      <trkpt lat="43.48869" lon="2.25942">
        <ele>717.6</ele>
        <time>2015-10-28T11:31:29.000Z</time>
      </trkpt>
      <trkpt lat="43.48866" lon="2.2593">
        <ele>718.1</ele>
        <time>2015-10-28T11:31:39.000Z</time>
      </trkpt>
      <trkpt lat="43.48863" lon="2.25917">
        <ele>718.2</ele>
        <time>2015-10-28T11:31:46.000Z</time>
      </trkpt>
      <trkpt lat="43.48858" lon="2.25906">
        <ele>718.5</ele>
        <time>2015-10-28T11:31:53.000Z</time>
      </trkpt>
      <trkpt lat="43.48855" lon="2.25895">
        <ele>719</ele>
        <time>2015-10-28T11:32:5.000Z</time>
      </trkpt>
      <trkpt lat="43.48849" lon="2.25885">
        <ele>719.5</ele>
        <time>2015-10-28T11:32:13.000Z</time>
      </trkpt>
      <trkpt lat="43.48845" lon="2.25874">
        <ele>719.8</ele>
        <time>2015-10-28T11:32:20.000Z</time>
      </trkpt>
      <trkpt lat="43.48839" lon="2.25862">
        <ele>720.2</ele>
        <time>2015-10-28T11:32:28.000Z</time>
      </trkpt>
      <trkpt lat="43.48837" lon="2.2585">
        <ele>720.5</ele>
        <time>2015-10-28T11:32:37.000Z</time>
      </trkpt>
      <trkpt lat="43.48834" lon="2.25837">
        <ele>720.9</ele>
        <time>2015-10-28T11:32:46.000Z</time>
      </trkpt>
      <trkpt lat="43.48832" lon="2.25825">
        <ele>721.1</ele>
        <time>2015-10-28T11:32:50.000Z</time>
      </trkpt>
      <trkpt lat="43.48828" lon="2.25813">
        <ele>721.4</ele>
        <time>2015-10-28T11:32:56.000Z</time>
      </trkpt>
      <trkpt lat="43.48828" lon="2.25799">
        <ele>721.7</ele>
        <time>2015-10-28T11:33:6.000Z</time>
      </trkpt>
      <trkpt lat="43.48824" lon="2.25787">
        <ele>722.2</ele>
        <time>2015-10-28T11:33:14.000Z</time>
      </trkpt>
      <trkpt lat="43.48825" lon="2.25774">
        <ele>722.8</ele>
        <time>2015-10-28T11:33:23.000Z</time>
      </trkpt>
      <trkpt lat="43.48822" lon="2.25761">
        <ele>723.3</ele>
        <time>2015-10-28T11:33:31.000Z</time>
      </trkpt>
      <trkpt lat="43.48821" lon="2.25748">
        <ele>723.9</ele>
        <time>2015-10-28T11:33:40.000Z</time>
      </trkpt>
      <trkpt lat="43.4882" lon="2.25735">
        <ele>724.5</ele>
        <time>2015-10-28T11:33:51.000Z</time>
      </trkpt>
      <trkpt lat="43.48822" lon="2.25722">
        <ele>725.1</ele>
        <time>2015-10-28T11:34:3.000Z</time>
      </trkpt>
      <trkpt lat="43.48824" lon="2.2571">
        <ele>725.1</ele>
        <time>2015-10-28T11:34:14.000Z</time>
      </trkpt>
      <trkpt lat="43.48824" lon="2.25697">
        <ele>725.2</ele>
        <time>2015-10-28T11:34:22.000Z</time>
      </trkpt>
      <trkpt lat="43.48825" lon="2.25684">
        <ele>725.2</ele>
        <time>2015-10-28T11:34:27.000Z</time>
      </trkpt>
      <trkpt lat="43.48825" lon="2.25671">
        <ele>725.2</ele>
        <time>2015-10-28T11:34:34.000Z</time>
      </trkpt>
      <trkpt lat="43.48828" lon="2.25659">
        <ele>725.3</ele>
        <time>2015-10-28T11:34:43.000Z</time>
      </trkpt>
      <trkpt lat="43.48833" lon="2.25648">
        <ele>725.5</ele>
        <time>2015-10-28T11:34:54.000Z</time>
      </trkpt>
      <trkpt lat="43.48838" lon="2.25637">
        <ele>725.8</ele>
        <time>2015-10-28T11:35:5.000Z</time>
      </trkpt>
      <trkpt lat="43.4884" lon="2.25624">
        <ele>726</ele>
        <time>2015-10-28T11:35:14.000Z</time>
      </trkpt>
      <trkpt lat="43.48844" lon="2.25612">
        <ele>726.1</ele>
        <time>2015-10-28T11:35:19.000Z</time>
      </trkpt>
      <trkpt lat="43.48845" lon="2.25598">
        <ele>726.2</ele>
        <time>2015-10-28T11:35:27.000Z</time>
      </trkpt>
      <trkpt lat="43.48847" lon="2.25585">
        <ele>726.3</ele>
        <time>2015-10-28T11:35:35.000Z</time>
      </trkpt>
      <trkpt lat="43.4885" lon="2.25572">
        <ele>727.2</ele>
        <time>2015-10-28T11:35:45.000Z</time>
      </trkpt>
      <trkpt lat="43.48849" lon="2.25559">
        <ele>727.6</ele>
        <time>2015-10-28T11:35:53.000Z</time>
      </trkpt>
      <trkpt lat="43.48847" lon="2.25547">
        <ele>728.3</ele>
        <time>2015-10-28T11:36:7.000Z</time>
      </trkpt>
      <trkpt lat="43.48843" lon="2.25535">
        <ele>729</ele>
        <time>2015-10-28T11:36:18.000Z</time>
      </trkpt>
      <trkpt lat="43.48836" lon="2.25526">
        <ele>729.8</ele>
        <time>2015-10-28T11:36:26.000Z</time>
      </trkpt>
      <trkpt lat="43.4883" lon="2.25516">
        <ele>730.2</ele>
        <time>2015-10-28T11:36:33.000Z</time>
      </trkpt>
      <trkpt lat="43.48826" lon="2.25503">
        <ele>730.8</ele>
        <time>2015-10-28T11:36:41.000Z</time>
      </trkpt>
      <trkpt lat="43.48821" lon="2.2549">
        <ele>731.2</ele>
        <time>2015-10-28T11:36:50.000Z</time>
      </trkpt>
      <trkpt lat="43.48815" lon="2.25479">
        <ele>731.5</ele>
        <time>2015-10-28T11:36:57.000Z</time>
      </trkpt>
      <trkpt lat="43.48809" lon="2.25468">
        <ele>731.9</ele>
        <time>2015-10-28T11:37:4.000Z</time>
      </trkpt>
      <trkpt lat="43.48804" lon="2.25457">
        <ele>732.5</ele>
        <time>2015-10-28T11:37:13.000Z</time>
      </trkpt>
      <trkpt lat="43.48804" lon="2.25443">
        <ele>733</ele>
        <time>2015-10-28T11:37:20.000Z</time>
      </trkpt>
      <trkpt lat="43.48807" lon="2.25429">
        <ele>733.3</ele>
        <time>2015-10-28T11:37:27.000Z</time>
      </trkpt>
      <trkpt lat="43.48806" lon="2.25416">
        <ele>733.5</ele>
        <time>2015-10-28T11:37:31.000Z</time>
      </trkpt>
      <trkpt lat="43.48805" lon="2.25403">
        <ele>734</ele>
        <time>2015-10-28T11:37:38.000Z</time>
      </trkpt>
      <trkpt lat="43.48805" lon="2.2539">
        <ele>734.5</ele>
        <time>2015-10-28T11:37:46.000Z</time>
      </trkpt>
      <trkpt lat="43.48805" lon="2.25377">
        <ele>735</ele>
        <time>2015-10-28T11:37:54.000Z</time>
      </trkpt>
      <trkpt lat="43.48809" lon="2.25363">
        <ele>735.6</ele>
        <time>2015-10-28T11:38:1.000Z</time>
      </trkpt>
      <trkpt lat="43.4881" lon="2.25349">
        <ele>736</ele>
        <time>2015-10-28T11:38:7.000Z</time>
      </trkpt>
      <trkpt lat="43.48813" lon="2.25337">
        <ele>736.5</ele>
        <time>2015-10-28T11:38:15.000Z</time>
      </trkpt>
      <trkpt lat="43.48815" lon="2.25324">
        <ele>737</ele>
        <time>2015-10-28T11:38:23.000Z</time>
      </trkpt>
      <trkpt lat="43.48824" lon="2.25323">
        <ele>734.2</ele>
        <time>2015-10-28T11:39:1.000Z</time>
      </trkpt>
      <trkpt lat="43.48805" lon="2.25304">
        <ele>716</ele>
        <time>2015-10-28T11:45:11.000Z</time>
      </trkpt>
      <trkpt lat="43.48799" lon="2.25295">
        <ele>716.6</ele>
        <time>2015-10-28T11:45:23.000Z</time>
      </trkpt>
      <trkpt lat="43.48792" lon="2.25287">
        <ele>717</ele>
        <time>2015-10-28T11:45:35.000Z</time>
      </trkpt>
      <trkpt lat="43.48785" lon="2.25278">
        <ele>717.7</ele>
        <time>2015-10-28T11:45:46.000Z</time>
      </trkpt>
      <trkpt lat="43.4878" lon="2.25266">
        <ele>718.1</ele>
        <time>2015-10-28T11:45:56.000Z</time>
      </trkpt>
      <trkpt lat="43.48778" lon="2.25254">
        <ele>719.3</ele>
        <time>2015-10-28T11:46:9.000Z</time>
      </trkpt>
      <trkpt lat="43.48775" lon="2.25241">
        <ele>720.2</ele>
        <time>2015-10-28T11:46:18.000Z</time>
      </trkpt>
      <trkpt lat="43.48776" lon="2.25228">
        <ele>721.4</ele>
        <time>2015-10-28T11:46:29.000Z</time>
      </trkpt>
      <trkpt lat="43.48778" lon="2.25215">
        <ele>722.5</ele>
        <time>2015-10-28T11:46:40.000Z</time>
      </trkpt>
      <trkpt lat="43.48778" lon="2.25202">
        <ele>723.5</ele>
        <time>2015-10-28T11:46:50.000Z</time>
      </trkpt>
      <trkpt lat="43.48776" lon="2.25187">
        <ele>724.7</ele>
        <time>2015-10-28T11:46:59.000Z</time>
      </trkpt>
      <trkpt lat="43.48771" lon="2.25175">
        <ele>725.3</ele>
        <time>2015-10-28T11:47:5.000Z</time>
      </trkpt>
      <trkpt lat="43.48763" lon="2.25167">
        <ele>726</ele>
        <time>2015-10-28T11:47:12.000Z</time>
      </trkpt>
      <trkpt lat="43.48756" lon="2.25159">
        <ele>727</ele>
        <time>2015-10-28T11:47:21.000Z</time>
      </trkpt>
      <trkpt lat="43.48749" lon="2.2515">
        <ele>727.9</ele>
        <time>2015-10-28T11:47:30.000Z</time>
      </trkpt>
      <trkpt lat="43.4874" lon="2.25144">
        <ele>728.7</ele>
        <time>2015-10-28T11:47:38.000Z</time>
      </trkpt>
      <trkpt lat="43.48732" lon="2.25135">
        <ele>729.6</ele>
        <time>2015-10-28T11:47:47.000Z</time>
      </trkpt>
      <trkpt lat="43.48725" lon="2.25127">
        <ele>730.5</ele>
        <time>2015-10-28T11:47:57.000Z</time>
      </trkpt>
      <trkpt lat="43.48718" lon="2.2512">
        <ele>731.4</ele>
        <time>2015-10-28T11:48:7.000Z</time>
      </trkpt>
      <trkpt lat="43.4871" lon="2.25112">
        <ele>732.4</ele>
        <time>2015-10-28T11:48:17.000Z</time>
      </trkpt>
      <trkpt lat="43.48701" lon="2.25107">
        <ele>733.1</ele>
        <time>2015-10-28T11:48:25.000Z</time>
      </trkpt>
      <trkpt lat="43.48692" lon="2.25106">
        <ele>733.8</ele>
        <time>2015-10-28T11:48:35.000Z</time>
      </trkpt>
      <trkpt lat="43.48682" lon="2.25105">
        <ele>734.6</ele>
        <time>2015-10-28T11:48:45.000Z</time>
      </trkpt>
      <trkpt lat="43.48677" lon="2.25117">
        <ele>735.5</ele>
        <time>2015-10-28T11:48:55.000Z</time>
      </trkpt>
      <trkpt lat="43.4867" lon="2.25126">
        <ele>736.1</ele>
        <time>2015-10-28T11:49:4.000Z</time>
      </trkpt>
      <trkpt lat="43.48663" lon="2.25135">
        <ele>736.7</ele>
        <time>2015-10-28T11:49:13.000Z</time>
      </trkpt>
      <trkpt lat="43.48656" lon="2.25143">
        <ele>737.2</ele>
        <time>2015-10-28T11:49:21.000Z</time>
      </trkpt>
      <trkpt lat="43.48648" lon="2.25151">
        <ele>737.7</ele>
        <time>2015-10-28T11:49:30.000Z</time>
      </trkpt>
      <trkpt lat="43.4864" lon="2.25158">
        <ele>738</ele>
        <time>2015-10-28T11:49:38.000Z</time>
      </trkpt>
      <trkpt lat="43.48631" lon="2.25165">
        <ele>738.1</ele>
        <time>2015-10-28T11:49:47.000Z</time>
      </trkpt>
      <trkpt lat="43.48625" lon="2.25175">
        <ele>738.2</ele>
        <time>2015-10-28T11:49:54.000Z</time>
      </trkpt>
      <trkpt lat="43.48617" lon="2.25183">
        <ele>738.2</ele>
        <time>2015-10-28T11:50:3.000Z</time>
      </trkpt>
      <trkpt lat="43.48608" lon="2.2519">
        <ele>738.2</ele>
        <time>2015-10-28T11:50:11.000Z</time>
      </trkpt>
      <trkpt lat="43.48599" lon="2.25195">
        <ele>738.2</ele>
        <time>2015-10-28T11:50:20.000Z</time>
      </trkpt>
      <trkpt lat="43.48589" lon="2.25198">
        <ele>738.3</ele>
        <time>2015-10-28T11:50:29.000Z</time>
      </trkpt>
      <trkpt lat="43.4858" lon="2.25201">
        <ele>738.2</ele>
        <time>2015-10-28T11:50:38.000Z</time>
      </trkpt>
      <trkpt lat="43.4857" lon="2.25203">
        <ele>738.1</ele>
        <time>2015-10-28T11:50:46.000Z</time>
      </trkpt>
      <trkpt lat="43.4856" lon="2.25198">
        <ele>737.9</ele>
        <time>2015-10-28T11:50:55.000Z</time>
      </trkpt>
      <trkpt lat="43.48551" lon="2.25196">
        <ele>737.8</ele>
        <time>2015-10-28T11:51:2.000Z</time>
      </trkpt>
      <trkpt lat="43.48541" lon="2.25199">
        <ele>737.7</ele>
        <time>2015-10-28T11:51:7.000Z</time>
      </trkpt>
      <trkpt lat="43.48533" lon="2.25196">
        <ele>737.5</ele>
        <time>2015-10-28T11:51:14.000Z</time>
      </trkpt>
      <trkpt lat="43.48523" lon="2.25193">
        <ele>737.3</ele>
        <time>2015-10-28T11:51:22.000Z</time>
      </trkpt>
      <trkpt lat="43.48513" lon="2.25196">
        <ele>737.1</ele>
        <time>2015-10-28T11:51:30.000Z</time>
      </trkpt>
      <trkpt lat="43.48504" lon="2.25202">
        <ele>736.9</ele>
        <time>2015-10-28T11:51:37.000Z</time>
      </trkpt>
      <trkpt lat="43.48496" lon="2.2521">
        <ele>736.7</ele>
        <time>2015-10-28T11:51:44.000Z</time>
      </trkpt>
      <trkpt lat="43.48494" lon="2.25223">
        <ele>736.4</ele>
        <time>2015-10-28T11:51:52.000Z</time>
      </trkpt>
      <trkpt lat="43.48493" lon="2.25236">
        <ele>736</ele>
        <time>2015-10-28T11:52:1.000Z</time>
      </trkpt>
      <trkpt lat="43.48494" lon="2.25248">
        <ele>735</ele>
        <time>2015-10-28T11:52:9.000Z</time>
      </trkpt>
      <trkpt lat="43.48496" lon="2.25261">
        <ele>734.1</ele>
        <time>2015-10-28T11:52:15.000Z</time>
      </trkpt>
      <trkpt lat="43.48492" lon="2.25274">
        <ele>732.7</ele>
        <time>2015-10-28T11:52:23.000Z</time>
      </trkpt>
      <trkpt lat="43.48495" lon="2.25286">
        <ele>731.4</ele>
        <time>2015-10-28T11:52:31.000Z</time>
      </trkpt>
      <trkpt lat="43.48502" lon="2.25297">
        <ele>726.6</ele>
        <time>2015-10-28T11:54:6.000Z</time>
      </trkpt>
      <trkpt lat="43.4851" lon="2.25307">
        <ele>727.4</ele>
        <time>2015-10-28T11:54:45.000Z</time>
      </trkpt>
      <trkpt lat="43.48518" lon="2.25315">
        <ele>727.6</ele>
        <time>2015-10-28T11:54:53.000Z</time>
      </trkpt>
      <trkpt lat="43.48527" lon="2.25321">
        <ele>727.7</ele>
        <time>2015-10-28T11:55:1.000Z</time>
      </trkpt>
      <trkpt lat="43.48534" lon="2.25329">
        <ele>727.8</ele>
        <time>2015-10-28T11:55:12.000Z</time>
      </trkpt>
      <trkpt lat="43.48543" lon="2.25334">
        <ele>728.4</ele>
        <time>2015-10-28T11:55:24.000Z</time>
      </trkpt>
      <trkpt lat="43.48553" lon="2.25335">
        <ele>728.9</ele>
        <time>2015-10-28T11:55:36.000Z</time>
      </trkpt>
      <trkpt lat="43.48562" lon="2.25337">
        <ele>729.2</ele>
        <time>2015-10-28T11:55:44.000Z</time>
      </trkpt>
      <trkpt lat="43.48571" lon="2.25342">
        <ele>729.4</ele>
        <time>2015-10-28T11:55:52.000Z</time>
      </trkpt>
      <trkpt lat="43.48577" lon="2.25351">
        <ele>729.7</ele>
        <time>2015-10-28T11:56:0.000Z</time>
      </trkpt>
      <trkpt lat="43.48584" lon="2.2536">
        <ele>730</ele>
        <time>2015-10-28T11:56:9.000Z</time>
      </trkpt>
      <trkpt lat="43.48592" lon="2.25369">
        <ele>730.3</ele>
        <time>2015-10-28T11:56:17.000Z</time>
      </trkpt>
      <trkpt lat="43.486" lon="2.25378">
        <ele>730.6</ele>
        <time>2015-10-28T11:56:25.000Z</time>
      </trkpt>
      <trkpt lat="43.48604" lon="2.25389">
        <ele>731</ele>
        <time>2015-10-28T11:56:34.000Z</time>
      </trkpt>
      <trkpt lat="43.48608" lon="2.25402">
        <ele>731.2</ele>
        <time>2015-10-28T11:56:42.000Z</time>
      </trkpt>
      <trkpt lat="43.48613" lon="2.25412">
        <ele>731.6</ele>
        <time>2015-10-28T11:56:51.000Z</time>
      </trkpt>
      <trkpt lat="43.48617" lon="2.25424">
        <ele>731.9</ele>
        <time>2015-10-28T11:57:1.000Z</time>
      </trkpt>
      <trkpt lat="43.4862" lon="2.25435">
        <ele>732.3</ele>
        <time>2015-10-28T11:57:10.000Z</time>
      </trkpt>
      <trkpt lat="43.48622" lon="2.25448">
        <ele>732.9</ele>
        <time>2015-10-28T11:57:19.000Z</time>
      </trkpt>
      <trkpt lat="43.48624" lon="2.25461">
        <ele>733.3</ele>
        <time>2015-10-28T11:57:28.000Z</time>
      </trkpt>
      <trkpt lat="43.48624" lon="2.25475">
        <ele>733.5</ele>
        <time>2015-10-28T11:57:37.000Z</time>
      </trkpt>
      <trkpt lat="43.48625" lon="2.25488">
        <ele>733.9</ele>
        <time>2015-10-28T11:57:47.000Z</time>
      </trkpt>
      <trkpt lat="43.48624" lon="2.25501">
        <ele>734.3</ele>
        <time>2015-10-28T11:57:57.000Z</time>
      </trkpt>
      <trkpt lat="43.48624" lon="2.25514">
        <ele>734.5</ele>
        <time>2015-10-28T11:58:5.000Z</time>
      </trkpt>
      <trkpt lat="43.48622" lon="2.25526">
        <ele>734.7</ele>
        <time>2015-10-28T11:58:12.000Z</time>
      </trkpt>
      <trkpt lat="43.48621" lon="2.2554">
        <ele>735</ele>
        <time>2015-10-28T11:58:20.000Z</time>
      </trkpt>
      <trkpt lat="43.48619" lon="2.25553">
        <ele>735.4</ele>
        <time>2015-10-28T11:58:30.000Z</time>
      </trkpt>
      <trkpt lat="43.48619" lon="2.25568">
        <ele>735.8</ele>
        <time>2015-10-28T11:58:42.000Z</time>
      </trkpt>
      <trkpt lat="43.48619" lon="2.25581">
        <ele>736.2</ele>
        <time>2015-10-28T11:58:51.000Z</time>
      </trkpt>
      <trkpt lat="43.48618" lon="2.25594">
        <ele>736.6</ele>
        <time>2015-10-28T11:58:59.000Z</time>
      </trkpt>
      <trkpt lat="43.48615" lon="2.25606">
        <ele>737.1</ele>
        <time>2015-10-28T11:59:8.000Z</time>
      </trkpt>
      <trkpt lat="43.48617" lon="2.25618">
        <ele>737.5</ele>
        <time>2015-10-28T11:59:15.000Z</time>
      </trkpt>
      <trkpt lat="43.48614" lon="2.2563">
        <ele>737.9</ele>
        <time>2015-10-28T11:59:24.000Z</time>
      </trkpt>
      <trkpt lat="43.48612" lon="2.25644">
        <ele>738.4</ele>
        <time>2015-10-28T11:59:33.000Z</time>
      </trkpt>
      <trkpt lat="43.48609" lon="2.25656">
        <ele>738.8</ele>
        <time>2015-10-28T11:59:41.000Z</time>
      </trkpt>
      <trkpt lat="43.48608" lon="2.25669">
        <ele>739.2</ele>
        <time>2015-10-28T11:59:50.000Z</time>
      </trkpt>
      <trkpt lat="43.48605" lon="2.25681">
        <ele>739.5</ele>
        <time>2015-10-28T11:59:58.000Z</time>
      </trkpt>
      <trkpt lat="43.48602" lon="2.25693">
        <ele>739.9</ele>
        <time>2015-10-28T12:00:7.000Z</time>
      </trkpt>
      <trkpt lat="43.48597" lon="2.25705">
        <ele>740.1</ele>
        <time>2015-10-28T12:00:15.000Z</time>
      </trkpt>
      <trkpt lat="43.48591" lon="2.25714">
        <ele>740.4</ele>
        <time>2015-10-28T12:00:23.000Z</time>
      </trkpt>
      <trkpt lat="43.48583" lon="2.25722">
        <ele>740.7</ele>
        <time>2015-10-28T12:00:31.000Z</time>
      </trkpt>
      <trkpt lat="43.48574" lon="2.25727">
        <ele>740.9</ele>
        <time>2015-10-28T12:00:39.000Z</time>
      </trkpt>
      <trkpt lat="43.48565" lon="2.25732">
        <ele>741.1</ele>
        <time>2015-10-28T12:00:49.000Z</time>
      </trkpt>
      <trkpt lat="43.48556" lon="2.25734">
        <ele>741.3</ele>
        <time>2015-10-28T12:00:56.000Z</time>
      </trkpt>
      <trkpt lat="43.48547" lon="2.2574">
        <ele>741.5</ele>
        <time>2015-10-28T12:01:6.000Z</time>
      </trkpt>
      <trkpt lat="43.48538" lon="2.25745">
        <ele>741.6</ele>
        <time>2015-10-28T12:01:14.000Z</time>
      </trkpt>
      <trkpt lat="43.48529" lon="2.25747">
        <ele>741.9</ele>
        <time>2015-10-28T12:01:24.000Z</time>
      </trkpt>
      <trkpt lat="43.4852" lon="2.25748">
        <ele>742.1</ele>
        <time>2015-10-28T12:01:33.000Z</time>
      </trkpt>
      <trkpt lat="43.48511" lon="2.2575">
        <ele>742.3</ele>
        <time>2015-10-28T12:01:42.000Z</time>
      </trkpt>
      <trkpt lat="43.48501" lon="2.25749">
        <ele>742.7</ele>
        <time>2015-10-28T12:01:50.000Z</time>
      </trkpt>
      <trkpt lat="43.48491" lon="2.25745">
        <ele>742.9</ele>
        <time>2015-10-28T12:01:57.000Z</time>
      </trkpt>
      <trkpt lat="43.48483" lon="2.25738">
        <ele>742.9</ele>
        <time>2015-10-28T12:02:4.000Z</time>
      </trkpt>
      <trkpt lat="43.48476" lon="2.2573">
        <ele>742.9</ele>
        <time>2015-10-28T12:02:12.000Z</time>
      </trkpt>
      <trkpt lat="43.48472" lon="2.25718">
        <ele>742.7</ele>
        <time>2015-10-28T12:02:21.000Z</time>
      </trkpt>
      <trkpt lat="43.48466" lon="2.25707">
        <ele>742.6</ele>
        <time>2015-10-28T12:02:30.000Z</time>
      </trkpt>
      <trkpt lat="43.4846" lon="2.25697">
        <ele>742.4</ele>
        <time>2015-10-28T12:02:38.000Z</time>
      </trkpt>
      <trkpt lat="43.48455" lon="2.25687">
        <ele>742.4</ele>
        <time>2015-10-28T12:02:46.000Z</time>
      </trkpt>
      <trkpt lat="43.48449" lon="2.25677">
        <ele>742.4</ele>
        <time>2015-10-28T12:02:54.000Z</time>
      </trkpt>
      <trkpt lat="43.48442" lon="2.25668">
        <ele>742.3</ele>
        <time>2015-10-28T12:03:2.000Z</time>
      </trkpt>
      <trkpt lat="43.48434" lon="2.25662">
        <ele>742.4</ele>
        <time>2015-10-28T12:03:14.000Z</time>
      </trkpt>
      <trkpt lat="43.48425" lon="2.25665">
        <ele>742.5</ele>
        <time>2015-10-28T12:03:24.000Z</time>
      </trkpt>
      <trkpt lat="43.48416" lon="2.25671">
        <ele>742.4</ele>
        <time>2015-10-28T12:03:36.000Z</time>
      </trkpt>
      <trkpt lat="43.48408" lon="2.25677">
        <ele>742.3</ele>
        <time>2015-10-28T12:03:44.000Z</time>
      </trkpt>
      <trkpt lat="43.484" lon="2.25682">
        <ele>742.3</ele>
        <time>2015-10-28T12:03:52.000Z</time>
      </trkpt>
      <trkpt lat="43.48391" lon="2.25686">
        <ele>742.2</ele>
        <time>2015-10-28T12:03:58.000Z</time>
      </trkpt>
      <trkpt lat="43.48382" lon="2.25686">
        <ele>742.3</ele>
        <time>2015-10-28T12:04:4.000Z</time>
      </trkpt>
      <trkpt lat="43.48372" lon="2.25684">
        <ele>742.3</ele>
        <time>2015-10-28T12:04:10.000Z</time>
      </trkpt>
      <trkpt lat="43.48363" lon="2.25679">
        <ele>742.3</ele>
        <time>2015-10-28T12:04:16.000Z</time>
      </trkpt>
      <trkpt lat="43.48355" lon="2.25673">
        <ele>742.3</ele>
        <time>2015-10-28T12:04:24.000Z</time>
      </trkpt>
      <trkpt lat="43.48347" lon="2.25666">
        <ele>742.4</ele>
        <time>2015-10-28T12:04:32.000Z</time>
      </trkpt>
      <trkpt lat="43.4834" lon="2.25658">
        <ele>742.4</ele>
        <time>2015-10-28T12:04:41.000Z</time>
      </trkpt>
      <trkpt lat="43.48331" lon="2.25657">
        <ele>742.4</ele>
        <time>2015-10-28T12:04:51.000Z</time>
      </trkpt>
      <trkpt lat="43.48321" lon="2.2566">
        <ele>742.4</ele>
        <time>2015-10-28T12:04:58.000Z</time>
      </trkpt>
      <trkpt lat="43.48312" lon="2.25663">
        <ele>742.3</ele>
        <time>2015-10-28T12:05:6.000Z</time>
      </trkpt>
      <trkpt lat="43.48302" lon="2.25668">
        <ele>742.1</ele>
        <time>2015-10-28T12:05:15.000Z</time>
      </trkpt>
      <trkpt lat="43.48292" lon="2.25666">
        <ele>741.9</ele>
        <time>2015-10-28T12:05:23.000Z</time>
      </trkpt>
      <trkpt lat="43.48284" lon="2.25669">
        <ele>741.7</ele>
        <time>2015-10-28T12:05:32.000Z</time>
      </trkpt>
      <trkpt lat="43.48274" lon="2.25667">
        <ele>741.6</ele>
        <time>2015-10-28T12:05:39.000Z</time>
      </trkpt>
      <trkpt lat="43.48265" lon="2.25662">
        <ele>741.3</ele>
        <time>2015-10-28T12:05:46.000Z</time>
      </trkpt>
      <trkpt lat="43.48257" lon="2.25654">
        <ele>740.7</ele>
        <time>2015-10-28T12:05:54.000Z</time>
      </trkpt>
      <trkpt lat="43.4825" lon="2.25647">
        <ele>740</ele>
        <time>2015-10-28T12:06:2.000Z</time>
      </trkpt>
      <trkpt lat="43.4824" lon="2.25647">
        <ele>739.5</ele>
        <time>2015-10-28T12:06:8.000Z</time>
      </trkpt>
      <trkpt lat="43.4823" lon="2.25647">
        <ele>739</ele>
        <time>2015-10-28T12:06:15.000Z</time>
      </trkpt>
      <trkpt lat="43.48221" lon="2.25651">
        <ele>738.4</ele>
        <time>2015-10-28T12:06:23.000Z</time>
      </trkpt>
      <trkpt lat="43.48212" lon="2.25655">
        <ele>737.5</ele>
        <time>2015-10-28T12:06:33.000Z</time>
      </trkpt>
      <trkpt lat="43.48202" lon="2.25652">
        <ele>736.9</ele>
        <time>2015-10-28T12:06:46.000Z</time>
      </trkpt>
      <trkpt lat="43.48193" lon="2.25649">
        <ele>736.6</ele>
        <time>2015-10-28T12:06:58.000Z</time>
      </trkpt>
      <trkpt lat="43.48186" lon="2.25641">
        <ele>736.4</ele>
        <time>2015-10-28T12:07:10.000Z</time>
      </trkpt>
      <trkpt lat="43.48176" lon="2.25637">
        <ele>736.3</ele>
        <time>2015-10-28T12:07:24.000Z</time>
      </trkpt>
      <trkpt lat="43.48167" lon="2.25641">
        <ele>736.2</ele>
        <time>2015-10-28T12:07:38.000Z</time>
      </trkpt>
      <trkpt lat="43.48164" lon="2.25653">
        <ele>736</ele>
        <time>2015-10-28T12:07:47.000Z</time>
      </trkpt>
      <trkpt lat="43.48162" lon="2.25666">
        <ele>736</ele>
        <time>2015-10-28T12:07:54.000Z</time>
      </trkpt>
      <trkpt lat="43.48156" lon="2.25675">
        <ele>734.9</ele>
        <time>2015-10-28T12:08:29.000Z</time>
      </trkpt>
      <trkpt lat="43.48156" lon="2.25675">
        <ele>694.5</ele>
        <time>2015-10-28T12:36:34.000Z</time>
      </trkpt>
      <trkpt lat="43.48156" lon="2.25688">
        <ele>682.5</ele>
        <time>2015-10-28T12:46:43.000Z</time>
      </trkpt>
      <trkpt lat="43.48153" lon="2.257">
        <ele>683.6</ele>
        <time>2015-10-28T12:47:3.000Z</time>
      </trkpt>
      <trkpt lat="43.48149" lon="2.25751">
        <ele>686</ele>
        <time>2015-10-28T12:47:20.000Z</time>
      </trkpt>
      <trkpt lat="43.48157" lon="2.25759">
        <ele>689.6</ele>
        <time>2015-10-28T12:47:30.000Z</time>
      </trkpt>
      <trkpt lat="43.48166" lon="2.25758">
        <ele>694.1</ele>
        <time>2015-10-28T12:47:40.000Z</time>
      </trkpt>
      <trkpt lat="43.48175" lon="2.25754">
        <ele>704.7</ele>
        <time>2015-10-28T12:48:2.000Z</time>
      </trkpt>
      <trkpt lat="43.48185" lon="2.25754">
        <ele>710.6</ele>
        <time>2015-10-28T12:48:15.000Z</time>
      </trkpt>
      <trkpt lat="43.48193" lon="2.25758">
        <ele>715.2</ele>
        <time>2015-10-28T12:48:26.000Z</time>
      </trkpt>
      <trkpt lat="43.48203" lon="2.2576">
        <ele>718.8</ele>
        <time>2015-10-28T12:48:35.000Z</time>
      </trkpt>
      <trkpt lat="43.48212" lon="2.25757">
        <ele>721</ele>
        <time>2015-10-28T12:48:41.000Z</time>
      </trkpt>
      <trkpt lat="43.48221" lon="2.25756">
        <ele>722.7</ele>
        <time>2015-10-28T12:48:45.000Z</time>
      </trkpt>
      <trkpt lat="43.4823" lon="2.25755">
        <ele>726.8</ele>
        <time>2015-10-28T12:48:55.000Z</time>
      </trkpt>
      <trkpt lat="43.48222" lon="2.25761">
        <ele>732.9</ele>
        <time>2015-10-28T12:50:0.000Z</time>
      </trkpt>
      <trkpt lat="43.48219" lon="2.25773">
        <ele>734.7</ele>
        <time>2015-10-28T12:50:13.000Z</time>
      </trkpt>
      <trkpt lat="43.48223" lon="2.25784">
        <ele>737.1</ele>
        <time>2015-10-28T12:50:27.000Z</time>
      </trkpt>
      <trkpt lat="43.4823" lon="2.25792">
        <ele>739.6</ele>
        <time>2015-10-28T12:50:37.000Z</time>
      </trkpt>
      <trkpt lat="43.4823" lon="2.25807">
        <ele>741.5</ele>
        <time>2015-10-28T12:50:46.000Z</time>
      </trkpt>
      <trkpt lat="43.48232" lon="2.2582">
        <ele>743.8</ele>
        <time>2015-10-28T12:50:56.000Z</time>
      </trkpt>
      <trkpt lat="43.48237" lon="2.25831">
        <ele>745.7</ele>
        <time>2015-10-28T12:51:5.000Z</time>
      </trkpt>
      <trkpt lat="43.48238" lon="2.25844">
        <ele>748.1</ele>
        <time>2015-10-28T12:51:16.000Z</time>
      </trkpt>
      <trkpt lat="43.4824" lon="2.25857">
        <ele>750.3</ele>
        <time>2015-10-28T12:51:26.000Z</time>
      </trkpt>
      <trkpt lat="43.48248" lon="2.25864">
        <ele>752</ele>
        <time>2015-10-28T12:51:33.000Z</time>
      </trkpt>
      <trkpt lat="43.48253" lon="2.25876">
        <ele>754.3</ele>
        <time>2015-10-28T12:51:43.000Z</time>
      </trkpt>
      <trkpt lat="43.48252" lon="2.2589">
        <ele>756</ele>
        <time>2015-10-28T12:51:52.000Z</time>
      </trkpt>
      <trkpt lat="43.48252" lon="2.25903">
        <ele>756.8</ele>
        <time>2015-10-28T12:51:57.000Z</time>
      </trkpt>
      <trkpt lat="43.48251" lon="2.25916">
        <ele>758.5</ele>
        <time>2015-10-28T12:52:6.000Z</time>
      </trkpt>
      <trkpt lat="43.48249" lon="2.2593">
        <ele>760.1</ele>
        <time>2015-10-28T12:52:14.000Z</time>
      </trkpt>
      <trkpt lat="43.48249" lon="2.25944">
        <ele>761.4</ele>
        <time>2015-10-28T12:52:22.000Z</time>
      </trkpt>
      <trkpt lat="43.48248" lon="2.25956">
        <ele>763</ele>
        <time>2015-10-28T12:52:32.000Z</time>
      </trkpt>
      <trkpt lat="43.48247" lon="2.25969">
        <ele>764.9</ele>
        <time>2015-10-28T12:52:41.000Z</time>
      </trkpt>
      <trkpt lat="43.48246" lon="2.25982">
        <ele>766.2</ele>
        <time>2015-10-28T12:52:49.000Z</time>
      </trkpt>
      <trkpt lat="43.48241" lon="2.25994">
        <ele>767.9</ele>
        <time>2015-10-28T12:52:57.000Z</time>
      </trkpt>
      <trkpt lat="43.48241" lon="2.26007">
        <ele>769.2</ele>
        <time>2015-10-28T12:53:5.000Z</time>
      </trkpt>
      <trkpt lat="43.48244" lon="2.26019">
        <ele>770.3</ele>
        <time>2015-10-28T12:53:12.000Z</time>
      </trkpt>
      <trkpt lat="43.48248" lon="2.26031">
        <ele>771.3</ele>
        <time>2015-10-28T12:53:19.000Z</time>
      </trkpt>
      <trkpt lat="43.48247" lon="2.26044">
        <ele>772.7</ele>
        <time>2015-10-28T12:53:31.000Z</time>
      </trkpt>
      <trkpt lat="43.4825" lon="2.26057">
        <ele>773.4</ele>
        <time>2015-10-28T12:53:40.000Z</time>
      </trkpt>
      <trkpt lat="43.48257" lon="2.26067">
        <ele>774.5</ele>
        <time>2015-10-28T12:53:49.000Z</time>
      </trkpt>
      <trkpt lat="43.48263" lon="2.26077">
        <ele>775.3</ele>
        <time>2015-10-28T12:53:59.000Z</time>
      </trkpt>
      <trkpt lat="43.48265" lon="2.26091">
        <ele>775.7</ele>
        <time>2015-10-28T12:54:7.000Z</time>
      </trkpt>
      <trkpt lat="43.4827" lon="2.26102">
        <ele>775.9</ele>
        <time>2015-10-28T12:54:13.000Z</time>
      </trkpt>
      <trkpt lat="43.48271" lon="2.26115">
        <ele>776.3</ele>
        <time>2015-10-28T12:54:20.000Z</time>
      </trkpt>
      <trkpt lat="43.48273" lon="2.26127">
        <ele>776.9</ele>
        <time>2015-10-28T12:54:29.000Z</time>
      </trkpt>
      <trkpt lat="43.48275" lon="2.26141">
        <ele>777.2</ele>
        <time>2015-10-28T12:54:38.000Z</time>
      </trkpt>
      <trkpt lat="43.48275" lon="2.26154">
        <ele>777.5</ele>
        <time>2015-10-28T12:54:46.000Z</time>
      </trkpt>
      <trkpt lat="43.48275" lon="2.26167">
        <ele>777.9</ele>
        <time>2015-10-28T12:54:56.000Z</time>
      </trkpt>
      <trkpt lat="43.48275" lon="2.2618">
        <ele>778</ele>
        <time>2015-10-28T12:55:7.000Z</time>
      </trkpt>
      <trkpt lat="43.48279" lon="2.26192">
        <ele>778.1</ele>
        <time>2015-10-28T12:55:16.000Z</time>
      </trkpt>
      <trkpt lat="43.48284" lon="2.26204">
        <ele>778</ele>
        <time>2015-10-28T12:55:21.000Z</time>
      </trkpt>
      <trkpt lat="43.48289" lon="2.26215">
        <ele>777.7</ele>
        <time>2015-10-28T12:55:30.000Z</time>
      </trkpt>
      <trkpt lat="43.48286" lon="2.26228">
        <ele>777.4</ele>
        <time>2015-10-28T12:55:39.000Z</time>
      </trkpt>
      <trkpt lat="43.48278" lon="2.26236">
        <ele>777.1</ele>
        <time>2015-10-28T12:55:48.000Z</time>
      </trkpt>
      <trkpt lat="43.48268" lon="2.26234">
        <ele>776.8</ele>
        <time>2015-10-28T12:55:57.000Z</time>
      </trkpt>
      <trkpt lat="43.4826" lon="2.26231">
        <ele>776.5</ele>
        <time>2015-10-28T12:56:5.000Z</time>
      </trkpt>
      <trkpt lat="43.48251" lon="2.26224">
        <ele>776.3</ele>
        <time>2015-10-28T12:56:12.000Z</time>
      </trkpt>
      <trkpt lat="43.48242" lon="2.2622">
        <ele>775.3</ele>
        <time>2015-10-28T12:56:20.000Z</time>
      </trkpt>
      <trkpt lat="43.48232" lon="2.26218">
        <ele>773.7</ele>
        <time>2015-10-28T12:56:28.000Z</time>
      </trkpt>
      <trkpt lat="43.48223" lon="2.26223">
        <ele>772.1</ele>
        <time>2015-10-28T12:56:36.000Z</time>
      </trkpt>
      <trkpt lat="43.48216" lon="2.26232">
        <ele>770.5</ele>
        <time>2015-10-28T12:56:43.000Z</time>
      </trkpt>
      <trkpt lat="43.48209" lon="2.2624">
        <ele>769.1</ele>
        <time>2015-10-28T12:56:49.000Z</time>
      </trkpt>
      <trkpt lat="43.48202" lon="2.26248">
        <ele>767.7</ele>
        <time>2015-10-28T12:56:56.000Z</time>
      </trkpt>
      <trkpt lat="43.48196" lon="2.26258">
        <ele>766.5</ele>
        <time>2015-10-28T12:57:4.000Z</time>
      </trkpt>
      <trkpt lat="43.48191" lon="2.26268">
        <ele>765.7</ele>
        <time>2015-10-28T12:57:13.000Z</time>
      </trkpt>
      <trkpt lat="43.48188" lon="2.26281">
        <ele>764.6</ele>
        <time>2015-10-28T12:57:24.000Z</time>
      </trkpt>
      <trkpt lat="43.48185" lon="2.26293">
        <ele>764.4</ele>
        <time>2015-10-28T12:57:30.000Z</time>
      </trkpt>
      <trkpt lat="43.48189" lon="2.26305">
        <ele>763.9</ele>
        <time>2015-10-28T12:57:38.000Z</time>
      </trkpt>
      <trkpt lat="43.48193" lon="2.26318">
        <ele>763.8</ele>
        <time>2015-10-28T12:57:47.000Z</time>
      </trkpt>
      <trkpt lat="43.48201" lon="2.26326">
        <ele>763.7</ele>
        <time>2015-10-28T12:57:57.000Z</time>
      </trkpt>
      <trkpt lat="43.48211" lon="2.26332">
        <ele>763.5</ele>
        <time>2015-10-28T12:58:4.000Z</time>
      </trkpt>
      <trkpt lat="43.48221" lon="2.26338">
        <ele>763.4</ele>
        <time>2015-10-28T12:58:13.000Z</time>
      </trkpt>
      <trkpt lat="43.48229" lon="2.26343">
        <ele>763.1</ele>
        <time>2015-10-28T12:58:21.000Z</time>
      </trkpt>
      <trkpt lat="43.48238" lon="2.26349">
        <ele>762.8</ele>
        <time>2015-10-28T12:58:28.000Z</time>
      </trkpt>
      <trkpt lat="43.48245" lon="2.26356">
        <ele>762.3</ele>
        <time>2015-10-28T12:58:35.000Z</time>
      </trkpt>
      <trkpt lat="43.48253" lon="2.26363">
        <ele>762.1</ele>
        <time>2015-10-28T12:58:42.000Z</time>
      </trkpt>
      <trkpt lat="43.48261" lon="2.2637">
        <ele>761.8</ele>
        <time>2015-10-28T12:58:50.000Z</time>
      </trkpt>
      <trkpt lat="43.48269" lon="2.26377">
        <ele>761.7</ele>
        <time>2015-10-28T12:58:59.000Z</time>
      </trkpt>
      <trkpt lat="43.48273" lon="2.2639">
        <ele>761.8</ele>
        <time>2015-10-28T12:59:7.000Z</time>
      </trkpt>
      <trkpt lat="43.48279" lon="2.26401">
        <ele>761.4</ele>
        <time>2015-10-28T12:59:16.000Z</time>
      </trkpt>
      <trkpt lat="43.48286" lon="2.2641">
        <ele>761.4</ele>
        <time>2015-10-28T12:59:25.000Z</time>
      </trkpt>
      <trkpt lat="43.4829" lon="2.26422">
        <ele>761.1</ele>
        <time>2015-10-28T12:59:33.000Z</time>
      </trkpt>
      <trkpt lat="43.48294" lon="2.26434">
        <ele>760.8</ele>
        <time>2015-10-28T12:59:40.000Z</time>
      </trkpt>
      <trkpt lat="43.48298" lon="2.26445">
        <ele>760.5</ele>
        <time>2015-10-28T12:59:47.000Z</time>
      </trkpt>
      <trkpt lat="43.48302" lon="2.26457">
        <ele>760.2</ele>
        <time>2015-10-28T12:59:55.000Z</time>
      </trkpt>
      <trkpt lat="43.48308" lon="2.26468">
        <ele>760.1</ele>
        <time>2015-10-28T13:00:3.000Z</time>
      </trkpt>
      <trkpt lat="43.48309" lon="2.2648">
        <ele>759.7</ele>
        <time>2015-10-28T13:00:11.000Z</time>
      </trkpt>
      <trkpt lat="43.48311" lon="2.26493">
        <ele>759.3</ele>
        <time>2015-10-28T13:00:18.000Z</time>
      </trkpt>
      <trkpt lat="43.48314" lon="2.26505">
        <ele>758.7</ele>
        <time>2015-10-28T13:00:27.000Z</time>
      </trkpt>
      <trkpt lat="43.48318" lon="2.26517">
        <ele>758.3</ele>
        <time>2015-10-28T13:00:35.000Z</time>
      </trkpt>
      <trkpt lat="43.48322" lon="2.26528">
        <ele>757.9</ele>
        <time>2015-10-28T13:00:42.000Z</time>
      </trkpt>
      <trkpt lat="43.48326" lon="2.2654">
        <ele>757.5</ele>
        <time>2015-10-28T13:00:50.000Z</time>
      </trkpt>
      <trkpt lat="43.48328" lon="2.26553">
        <ele>757.3</ele>
        <time>2015-10-28T13:00:57.000Z</time>
      </trkpt>
      <trkpt lat="43.48334" lon="2.26564">
        <ele>756.6</ele>
        <time>2015-10-28T13:01:7.000Z</time>
      </trkpt>
      <trkpt lat="43.48332" lon="2.26578">
        <ele>755.9</ele>
        <time>2015-10-28T13:01:16.000Z</time>
      </trkpt>
      <trkpt lat="43.48331" lon="2.26592">
        <ele>754.9</ele>
        <time>2015-10-28T13:01:25.000Z</time>
      </trkpt>
      <trkpt lat="43.48331" lon="2.26605">
        <ele>754.5</ele>
        <time>2015-10-28T13:01:33.000Z</time>
      </trkpt>
      <trkpt lat="43.4833" lon="2.26619">
        <ele>753.9</ele>
        <time>2015-10-28T13:01:41.000Z</time>
      </trkpt>
      <trkpt lat="43.48329" lon="2.26633">
        <ele>752.6</ele>
        <time>2015-10-28T13:01:50.000Z</time>
      </trkpt>
      <trkpt lat="43.4833" lon="2.26646">
        <ele>752.3</ele>
        <time>2015-10-28T13:01:59.000Z</time>
      </trkpt>
      <trkpt lat="43.48327" lon="2.2666">
        <ele>751.8</ele>
        <time>2015-10-28T13:02:4.000Z</time>
      </trkpt>
      <trkpt lat="43.48328" lon="2.26674">
        <ele>751.7</ele>
        <time>2015-10-28T13:02:9.000Z</time>
      </trkpt>
      <trkpt lat="43.4833" lon="2.26687">
        <ele>751.2</ele>
        <time>2015-10-28T13:02:16.000Z</time>
      </trkpt>
      <trkpt lat="43.48336" lon="2.26698">
        <ele>750.5</ele>
        <time>2015-10-28T13:02:24.000Z</time>
      </trkpt>
      <trkpt lat="43.48342" lon="2.26709">
        <ele>749.5</ele>
        <time>2015-10-28T13:02:31.000Z</time>
      </trkpt>
      <trkpt lat="43.48346" lon="2.2672">
        <ele>748.8</ele>
        <time>2015-10-28T13:02:39.000Z</time>
      </trkpt>
      <trkpt lat="43.48348" lon="2.26734">
        <ele>748</ele>
        <time>2015-10-28T13:02:47.000Z</time>
      </trkpt>
      <trkpt lat="43.48349" lon="2.26747">
        <ele>747.2</ele>
        <time>2015-10-28T13:02:54.000Z</time>
      </trkpt>
      <trkpt lat="43.48352" lon="2.26761">
        <ele>746.2</ele>
        <time>2015-10-28T13:03:2.000Z</time>
      </trkpt>
      <trkpt lat="43.48357" lon="2.26772">
        <ele>745.3</ele>
        <time>2015-10-28T13:03:9.000Z</time>
      </trkpt>
      <trkpt lat="43.48363" lon="2.26781">
        <ele>744.7</ele>
        <time>2015-10-28T13:03:15.000Z</time>
      </trkpt>
      <trkpt lat="43.48369" lon="2.26792">
        <ele>743.8</ele>
        <time>2015-10-28T13:03:23.000Z</time>
      </trkpt>
      <trkpt lat="43.48374" lon="2.26802">
        <ele>742.4</ele>
        <time>2015-10-28T13:03:32.000Z</time>
      </trkpt>
      <trkpt lat="43.48374" lon="2.26815">
        <ele>741.7</ele>
        <time>2015-10-28T13:03:39.000Z</time>
      </trkpt>
      <trkpt lat="43.48375" lon="2.26829">
        <ele>740.6</ele>
        <time>2015-10-28T13:03:48.000Z</time>
      </trkpt>
      <trkpt lat="43.48372" lon="2.26841">
        <ele>739.5</ele>
        <time>2015-10-28T13:03:55.000Z</time>
      </trkpt>
      <trkpt lat="43.48368" lon="2.26852">
        <ele>738.7</ele>
        <time>2015-10-28T13:04:2.000Z</time>
      </trkpt>
      <trkpt lat="43.48365" lon="2.26866">
        <ele>738.1</ele>
        <time>2015-10-28T13:04:8.000Z</time>
      </trkpt>
      <trkpt lat="43.48369" lon="2.26879">
        <ele>737.5</ele>
        <time>2015-10-28T13:04:15.000Z</time>
      </trkpt>
      <trkpt lat="43.48375" lon="2.26889">
        <ele>736.3</ele>
        <time>2015-10-28T13:04:21.000Z</time>
      </trkpt>
      <trkpt lat="43.48383" lon="2.26896">
        <ele>735.7</ele>
        <time>2015-10-28T13:04:29.000Z</time>
      </trkpt>
      <trkpt lat="43.48391" lon="2.26903">
        <ele>734.8</ele>
        <time>2015-10-28T13:04:38.000Z</time>
      </trkpt>
      <trkpt lat="43.48402" lon="2.2691">
        <ele>734.5</ele>
        <time>2015-10-28T13:04:42.000Z</time>
      </trkpt>
      <trkpt lat="43.48411" lon="2.26908">
        <ele>733.6</ele>
        <time>2015-10-28T13:04:50.000Z</time>
      </trkpt>
      <trkpt lat="43.4842" lon="2.26903">
        <ele>732.9</ele>
        <time>2015-10-28T13:04:57.000Z</time>
      </trkpt>
      <trkpt lat="43.48428" lon="2.26898">
        <ele>732.2</ele>
        <time>2015-10-28T13:05:4.000Z</time>
      </trkpt>
      <trkpt lat="43.48436" lon="2.26891">
        <ele>731.6</ele>
        <time>2015-10-28T13:05:10.000Z</time>
      </trkpt>
      <trkpt lat="43.48446" lon="2.26885">
        <ele>730.6</ele>
        <time>2015-10-28T13:05:16.000Z</time>
      </trkpt>
      <trkpt lat="43.48455" lon="2.2688">
        <ele>730.3</ele>
        <time>2015-10-28T13:05:21.000Z</time>
      </trkpt>
      <trkpt lat="43.48464" lon="2.26874">
        <ele>729.3</ele>
        <time>2015-10-28T13:05:28.000Z</time>
      </trkpt>
      <trkpt lat="43.48473" lon="2.26867">
        <ele>728.3</ele>
        <time>2015-10-28T13:05:37.000Z</time>
      </trkpt>
      <trkpt lat="43.48482" lon="2.26865">
        <ele>727.3</ele>
        <time>2015-10-28T13:05:45.000Z</time>
      </trkpt>
      <trkpt lat="43.48492" lon="2.26863">
        <ele>726.3</ele>
        <time>2015-10-28T13:05:51.000Z</time>
      </trkpt>
      <trkpt lat="43.48499" lon="2.26857">
        <ele>725.6</ele>
        <time>2015-10-28T13:05:58.000Z</time>
      </trkpt>
      <trkpt lat="43.48509" lon="2.26855">
        <ele>725.1</ele>
        <time>2015-10-28T13:06:2.000Z</time>
      </trkpt>
      <trkpt lat="43.48506" lon="2.26843">
        <ele>724.6</ele>
        <time>2015-10-28T13:06:8.000Z</time>
      </trkpt>
      <trkpt lat="43.48513" lon="2.26834">
        <ele>723</ele>
        <time>2015-10-28T13:06:17.000Z</time>
      </trkpt>
      <trkpt lat="43.48523" lon="2.2683">
        <ele>722.7</ele>
        <time>2015-10-28T13:06:21.000Z</time>
      </trkpt>
      <trkpt lat="43.48529" lon="2.26821">
        <ele>721.6</ele>
        <time>2015-10-28T13:06:30.000Z</time>
      </trkpt>
      <trkpt lat="43.48539" lon="2.26816">
        <ele>720.5</ele>
        <time>2015-10-28T13:06:40.000Z</time>
      </trkpt>
      <trkpt lat="43.48549" lon="2.26815">
        <ele>720.1</ele>
        <time>2015-10-28T13:06:44.000Z</time>
      </trkpt>
      <trkpt lat="43.4856" lon="2.26815">
        <ele>719.6</ele>
        <time>2015-10-28T13:06:49.000Z</time>
      </trkpt>
      <trkpt lat="43.48569" lon="2.26813">
        <ele>719</ele>
        <time>2015-10-28T13:06:54.000Z</time>
      </trkpt>
      <trkpt lat="43.48578" lon="2.26815">
        <ele>716.2</ele>
        <time>2015-10-28T13:07:13.000Z</time>
      </trkpt>
      <trkpt lat="43.48588" lon="2.26814">
        <ele>714.9</ele>
        <time>2015-10-28T13:07:20.000Z</time>
      </trkpt>
      <trkpt lat="43.48597" lon="2.26816">
        <ele>713.2</ele>
        <time>2015-10-28T13:07:33.000Z</time>
      </trkpt>
      <trkpt lat="43.48599" lon="2.2683">
        <ele>711.7</ele>
        <time>2015-10-28T13:07:44.000Z</time>
      </trkpt>
      <trkpt lat="43.48601" lon="2.26842">
        <ele>710.5</ele>
        <time>2015-10-28T13:07:53.000Z</time>
      </trkpt>
      <trkpt lat="43.48601" lon="2.26856">
        <ele>709.1</ele>
        <time>2015-10-28T13:08:3.000Z</time>
      </trkpt>
      <trkpt lat="43.48597" lon="2.26868">
        <ele>708.1</ele>
        <time>2015-10-28T13:08:11.000Z</time>
      </trkpt>
      <trkpt lat="43.48594" lon="2.26883">
        <ele>707.4</ele>
        <time>2015-10-28T13:08:19.000Z</time>
      </trkpt>
      <trkpt lat="43.48594" lon="2.26897">
        <ele>706</ele>
        <time>2015-10-28T13:08:27.000Z</time>
      </trkpt>
      <trkpt lat="43.48595" lon="2.26911">
        <ele>705.2</ele>
        <time>2015-10-28T13:08:34.000Z</time>
      </trkpt>
      <trkpt lat="43.48593" lon="2.26923">
        <ele>704.3</ele>
        <time>2015-10-28T13:08:42.000Z</time>
      </trkpt>
      <trkpt lat="43.4859" lon="2.26938">
        <ele>703.8</ele>
        <time>2015-10-28T13:08:47.000Z</time>
      </trkpt>
      <trkpt lat="43.4859" lon="2.26951">
        <ele>702.4</ele>
        <time>2015-10-28T13:08:57.000Z</time>
      </trkpt>
      <trkpt lat="43.48593" lon="2.26964">
        <ele>701.8</ele>
        <time>2015-10-28T13:09:3.000Z</time>
      </trkpt>
      <trkpt lat="43.48592" lon="2.26978">
        <ele>700.6</ele>
        <time>2015-10-28T13:09:16.000Z</time>
      </trkpt>
      <trkpt lat="43.48592" lon="2.26992">
        <ele>699.2</ele>
        <time>2015-10-28T13:09:27.000Z</time>
      </trkpt>
      <trkpt lat="43.48595" lon="2.27004">
        <ele>698.2</ele>
        <time>2015-10-28T13:09:35.000Z</time>
      </trkpt>
      <trkpt lat="43.48592" lon="2.27018">
        <ele>697.3</ele>
        <time>2015-10-28T13:09:42.000Z</time>
      </trkpt>
      <trkpt lat="43.4859" lon="2.27031">
        <ele>696.4</ele>
        <time>2015-10-28T13:09:48.000Z</time>
      </trkpt>
      <trkpt lat="43.48586" lon="2.27042">
        <ele>695.5</ele>
        <time>2015-10-28T13:09:54.000Z</time>
      </trkpt>
      <trkpt lat="43.48586" lon="2.27055">
        <ele>694.2</ele>
        <time>2015-10-28T13:10:1.000Z</time>
      </trkpt>
      <trkpt lat="43.48587" lon="2.27073">
        <ele>693.3</ele>
        <time>2015-10-28T13:10:6.000Z</time>
      </trkpt>
      <trkpt lat="43.4859" lon="2.27085">
        <ele>692.1</ele>
        <time>2015-10-28T13:10:13.000Z</time>
      </trkpt>
      <trkpt lat="43.48596" lon="2.27096">
        <ele>690.6</ele>
        <time>2015-10-28T13:10:22.000Z</time>
      </trkpt>
      <trkpt lat="43.48605" lon="2.27098">
        <ele>689.7</ele>
        <time>2015-10-28T13:10:30.000Z</time>
      </trkpt>
      <trkpt lat="43.48613" lon="2.27106">
        <ele>689.2</ele>
        <time>2015-10-28T13:10:35.000Z</time>
      </trkpt>
      <trkpt lat="43.48622" lon="2.27113">
        <ele>688.6</ele>
        <time>2015-10-28T13:10:41.000Z</time>
      </trkpt>
      <trkpt lat="43.48632" lon="2.27114">
        <ele>687.3</ele>
        <time>2015-10-28T13:10:46.000Z</time>
      </trkpt>
      <trkpt lat="43.48641" lon="2.27116">
        <ele>685.1</ele>
        <time>2015-10-28T13:10:54.000Z</time>
      </trkpt>
      <trkpt lat="43.48649" lon="2.27122">
        <ele>681.6</ele>
        <time>2015-10-28T13:11:6.000Z</time>
      </trkpt>
      <trkpt lat="43.48657" lon="2.2713">
        <ele>677.8</ele>
        <time>2015-10-28T13:11:19.000Z</time>
      </trkpt>
      <trkpt lat="43.48665" lon="2.27137">
        <ele>676.1</ele>
        <time>2015-10-28T13:11:25.000Z</time>
      </trkpt>
      <trkpt lat="43.48671" lon="2.27146">
        <ele>673.9</ele>
        <time>2015-10-28T13:11:32.000Z</time>
      </trkpt>
      <trkpt lat="43.48681" lon="2.27151">
        <ele>671.4</ele>
        <time>2015-10-28T13:11:40.000Z</time>
      </trkpt>
      <trkpt lat="43.4869" lon="2.27157">
        <ele>669.1</ele>
        <time>2015-10-28T13:11:48.000Z</time>
      </trkpt>
      <trkpt lat="43.48692" lon="2.2717">
        <ele>667.4</ele>
        <time>2015-10-28T13:11:57.000Z</time>
      </trkpt>
      <trkpt lat="43.48701" lon="2.27178">
        <ele>666</ele>
        <time>2015-10-28T13:12:6.000Z</time>
      </trkpt>
      <trkpt lat="43.4871" lon="2.27173">
        <ele>664.2</ele>
        <time>2015-10-28T13:12:27.000Z</time>
      </trkpt>
      <trkpt lat="43.48721" lon="2.27175">
        <ele>661.9</ele>
        <time>2015-10-28T13:12:49.000Z</time>
      </trkpt>
      <trkpt lat="43.4873" lon="2.27168">
        <ele>659.3</ele>
        <time>2015-10-28T13:13:6.000Z</time>
      </trkpt>
      <trkpt lat="43.48738" lon="2.27162">
        <ele>656</ele>
        <time>2015-10-28T13:13:22.000Z</time>
      </trkpt>
      <trkpt lat="43.48745" lon="2.27172">
        <ele>629.8</ele>
        <time>2015-10-28T13:15:20.000Z</time>
      </trkpt>
      <trkpt lat="43.48752" lon="2.27179">
        <ele>625.5</ele>
        <time>2015-10-28T13:15:37.000Z</time>
      </trkpt>
      <trkpt lat="43.48762" lon="2.27176">
        <ele>621.6</ele>
        <time>2015-10-28T13:15:49.000Z</time>
      </trkpt>
      <trkpt lat="43.48771" lon="2.27176">
        <ele>618.7</ele>
        <time>2015-10-28T13:16:0.000Z</time>
      </trkpt>
      <trkpt lat="43.4878" lon="2.27176">
        <ele>616.3</ele>
        <time>2015-10-28T13:16:10.000Z</time>
      </trkpt>
      <trkpt lat="43.4879" lon="2.27176">
        <ele>615</ele>
        <time>2015-10-28T13:16:18.000Z</time>
      </trkpt>
      <trkpt lat="43.488" lon="2.27173">
        <ele>613.9</ele>
        <time>2015-10-28T13:16:26.000Z</time>
      </trkpt>
      <trkpt lat="43.48809" lon="2.27174">
        <ele>612.8</ele>
        <time>2015-10-28T13:16:34.000Z</time>
      </trkpt>
      <trkpt lat="43.48819" lon="2.27172">
        <ele>611.7</ele>
        <time>2015-10-28T13:16:41.000Z</time>
      </trkpt>
      <trkpt lat="43.48826" lon="2.27179">
        <ele>610.3</ele>
        <time>2015-10-28T13:16:50.000Z</time>
      </trkpt>
      <trkpt lat="43.48835" lon="2.27185">
        <ele>610.2</ele>
        <time>2015-10-28T13:16:54.000Z</time>
      </trkpt>
      <trkpt lat="43.48843" lon="2.27191">
        <ele>609.6</ele>
        <time>2015-10-28T13:17:2.000Z</time>
      </trkpt>
      <trkpt lat="43.48853" lon="2.27195">
        <ele>606.5</ele>
        <time>2015-10-28T13:17:19.000Z</time>
      </trkpt>
      <trkpt lat="43.48861" lon="2.27199">
        <ele>605.6</ele>
        <time>2015-10-28T13:17:26.000Z</time>
      </trkpt>
      <trkpt lat="43.4887" lon="2.27204">
        <ele>605.1</ele>
        <time>2015-10-28T13:17:31.000Z</time>
      </trkpt>
      <trkpt lat="43.48878" lon="2.2721">
        <ele>604.1</ele>
        <time>2015-10-28T13:17:37.000Z</time>
      </trkpt>
      <trkpt lat="43.48887" lon="2.27217">
        <ele>603.1</ele>
        <time>2015-10-28T13:17:44.000Z</time>
      </trkpt>
      <trkpt lat="43.48896" lon="2.27224">
        <ele>602.7</ele>
        <time>2015-10-28T13:17:52.000Z</time>
      </trkpt>
      <trkpt lat="43.48902" lon="2.27235">
        <ele>601.8</ele>
        <time>2015-10-28T13:18:1.000Z</time>
      </trkpt>
      <trkpt lat="43.48906" lon="2.27246">
        <ele>600.3</ele>
        <time>2015-10-28T13:18:10.000Z</time>
      </trkpt>
      <trkpt lat="43.48912" lon="2.27257">
        <ele>599.6</ele>
        <time>2015-10-28T13:18:15.000Z</time>
      </trkpt>
      <trkpt lat="43.48919" lon="2.27268">
        <ele>598.8</ele>
        <time>2015-10-28T13:18:21.000Z</time>
      </trkpt>
      <trkpt lat="43.48919" lon="2.27281">
        <ele>597.6</ele>
        <time>2015-10-28T13:18:32.000Z</time>
      </trkpt>
      <trkpt lat="43.48923" lon="2.27293">
        <ele>596.6</ele>
        <time>2015-10-28T13:18:39.000Z</time>
      </trkpt>
      <trkpt lat="43.48928" lon="2.27304">
        <ele>596</ele>
        <time>2015-10-28T13:18:46.000Z</time>
      </trkpt>
      <trkpt lat="43.48936" lon="2.27311">
        <ele>595</ele>
        <time>2015-10-28T13:18:56.000Z</time>
      </trkpt>
      <trkpt lat="43.48945" lon="2.27309">
        <ele>594.2</ele>
        <time>2015-10-28T13:19:2.000Z</time>
      </trkpt>
      <trkpt lat="43.48953" lon="2.27318">
        <ele>594.4</ele>
        <time>2015-10-28T13:19:9.000Z</time>
      </trkpt>
      <trkpt lat="43.48959" lon="2.2733">
        <ele>593.4</ele>
        <time>2015-10-28T13:19:16.000Z</time>
      </trkpt>
      <trkpt lat="43.48964" lon="2.27341">
        <ele>592.3</ele>
        <time>2015-10-28T13:19:24.000Z</time>
      </trkpt>
      <trkpt lat="43.48966" lon="2.27354">
        <ele>591.7</ele>
        <time>2015-10-28T13:19:31.000Z</time>
      </trkpt>
      <trkpt lat="43.48973" lon="2.27362">
        <ele>591.1</ele>
        <time>2015-10-28T13:19:39.000Z</time>
      </trkpt>
      <trkpt lat="43.4898" lon="2.27371">
        <ele>590.6</ele>
        <time>2015-10-28T13:19:47.000Z</time>
      </trkpt>
      <trkpt lat="43.48987" lon="2.27379">
        <ele>589.7</ele>
        <time>2015-10-28T13:19:55.000Z</time>
      </trkpt>
      <trkpt lat="43.48996" lon="2.27386">
        <ele>589</ele>
        <time>2015-10-28T13:20:2.000Z</time>
      </trkpt>
      <trkpt lat="43.49004" lon="2.27395">
        <ele>587.5</ele>
        <time>2015-10-28T13:20:10.000Z</time>
      </trkpt>
      <trkpt lat="43.4901" lon="2.27404">
        <ele>586.7</ele>
        <time>2015-10-28T13:20:17.000Z</time>
      </trkpt>
      <trkpt lat="43.49018" lon="2.27413">
        <ele>586.1</ele>
        <time>2015-10-28T13:20:24.000Z</time>
      </trkpt>
      <trkpt lat="43.49027" lon="2.27417">
        <ele>584.6</ele>
        <time>2015-10-28T13:20:31.000Z</time>
      </trkpt>
      <trkpt lat="43.49033" lon="2.27427">
        <ele>584</ele>
        <time>2015-10-28T13:20:38.000Z</time>
      </trkpt>
      <trkpt lat="43.49036" lon="2.2744">
        <ele>583.3</ele>
        <time>2015-10-28T13:20:47.000Z</time>
      </trkpt>
      <trkpt lat="43.49037" lon="2.27453">
        <ele>582.5</ele>
        <time>2015-10-28T13:20:57.000Z</time>
      </trkpt>
      <trkpt lat="43.49032" lon="2.27466">
        <ele>581</ele>
        <time>2015-10-28T13:21:4.000Z</time>
      </trkpt>
      <trkpt lat="43.49028" lon="2.27478">
        <ele>580.2</ele>
        <time>2015-10-28T13:21:12.000Z</time>
      </trkpt>
      <trkpt lat="43.49032" lon="2.27491">
        <ele>579.2</ele>
        <time>2015-10-28T13:21:24.000Z</time>
      </trkpt>
      <trkpt lat="43.49034" lon="2.27503">
        <ele>570.6</ele>
        <time>2015-10-28T13:23:17.000Z</time>
      </trkpt>
      <trkpt lat="43.49028" lon="2.27512">
        <ele>568.4</ele>
        <time>2015-10-28T13:23:37.000Z</time>
      </trkpt>
      <trkpt lat="43.49024" lon="2.27523">
        <ele>568.1</ele>
        <time>2015-10-28T13:23:49.000Z</time>
      </trkpt>
      <trkpt lat="43.49019" lon="2.27536">
        <ele>566.5</ele>
        <time>2015-10-28T13:24:0.000Z</time>
      </trkpt>
      <trkpt lat="43.49014" lon="2.27547">
        <ele>566.1</ele>
        <time>2015-10-28T13:24:7.000Z</time>
      </trkpt>
      <trkpt lat="43.49007" lon="2.27556">
        <ele>564.8</ele>
        <time>2015-10-28T13:24:21.000Z</time>
      </trkpt>
      <trkpt lat="43.48998" lon="2.27561">
        <ele>564.1</ele>
        <time>2015-10-28T13:24:31.000Z</time>
      </trkpt>
      <trkpt lat="43.48994" lon="2.27573">
        <ele>562.6</ele>
        <time>2015-10-28T13:24:41.000Z</time>
      </trkpt>
      <trkpt lat="43.48992" lon="2.27586">
        <ele>561.2</ele>
        <time>2015-10-28T13:24:54.000Z</time>
      </trkpt>
      <trkpt lat="43.48984" lon="2.27592">
        <ele>560.5</ele>
        <time>2015-10-28T13:25:2.000Z</time>
      </trkpt>
      <trkpt lat="43.48977" lon="2.276">
        <ele>559.7</ele>
        <time>2015-10-28T13:25:10.000Z</time>
      </trkpt>
      <trkpt lat="43.48969" lon="2.27607">
        <ele>559.5</ele>
        <time>2015-10-28T13:25:16.000Z</time>
      </trkpt>
      <trkpt lat="43.48959" lon="2.27609">
        <ele>558.1</ele>
        <time>2015-10-28T13:25:28.000Z</time>
      </trkpt>
      <trkpt lat="43.48951" lon="2.27615">
        <ele>557.4</ele>
        <time>2015-10-28T13:25:36.000Z</time>
      </trkpt>
      <trkpt lat="43.48942" lon="2.27617">
        <ele>557.1</ele>
        <time>2015-10-28T13:25:42.000Z</time>
      </trkpt>
      <trkpt lat="43.48933" lon="2.27613">
        <ele>556.6</ele>
        <time>2015-10-28T13:25:50.000Z</time>
      </trkpt>
      <trkpt lat="43.48924" lon="2.27609">
        <ele>555.6</ele>
        <time>2015-10-28T13:26:1.000Z</time>
      </trkpt>
      <trkpt lat="43.48915" lon="2.27605">
        <ele>554.8</ele>
        <time>2015-10-28T13:26:8.000Z</time>
      </trkpt>
      <trkpt lat="43.48905" lon="2.276">
        <ele>553.9</ele>
        <time>2015-10-28T13:26:16.000Z</time>
      </trkpt>
      <trkpt lat="43.48895" lon="2.27603">
        <ele>553.3</ele>
        <time>2015-10-28T13:26:21.000Z</time>
      </trkpt>
      <trkpt lat="43.48886" lon="2.27605">
        <ele>552.3</ele>
        <time>2015-10-28T13:26:29.000Z</time>
      </trkpt>
      <trkpt lat="43.48884" lon="2.27618">
        <ele>550.8</ele>
        <time>2015-10-28T13:26:38.000Z</time>
      </trkpt>
      <trkpt lat="43.48879" lon="2.2763">
        <ele>550.7</ele>
        <time>2015-10-28T13:26:45.000Z</time>
      </trkpt>
      <trkpt lat="43.48872" lon="2.27641">
        <ele>549.6</ele>
        <time>2015-10-28T13:26:54.000Z</time>
      </trkpt>
      <trkpt lat="43.48865" lon="2.27654">
        <ele>548.8</ele>
        <time>2015-10-28T13:27:2.000Z</time>
      </trkpt>
      <trkpt lat="43.48857" lon="2.27662">
        <ele>547.8</ele>
        <time>2015-10-28T13:27:11.000Z</time>
      </trkpt>
      <trkpt lat="43.48849" lon="2.27667">
        <ele>546.8</ele>
        <time>2015-10-28T13:27:20.000Z</time>
      </trkpt>
      <trkpt lat="43.4884" lon="2.27666">
        <ele>546.3</ele>
        <time>2015-10-28T13:27:27.000Z</time>
      </trkpt>
      <trkpt lat="43.4883" lon="2.27673">
        <ele>545.1</ele>
        <time>2015-10-28T13:27:39.000Z</time>
      </trkpt>
      <trkpt lat="43.48821" lon="2.27679">
        <ele>545.2</ele>
        <time>2015-10-28T13:27:43.000Z</time>
      </trkpt>
      <trkpt lat="43.48818" lon="2.27691">
        <ele>544.9</ele>
        <time>2015-10-28T13:27:49.000Z</time>
      </trkpt>
      <trkpt lat="43.48831" lon="2.27699">
        <ele>542.8</ele>
        <time>2015-10-28T13:28:9.000Z</time>
      </trkpt>
      <trkpt lat="43.48841" lon="2.27696">
        <ele>541.3</ele>
        <time>2015-10-28T13:28:21.000Z</time>
      </trkpt>
      <trkpt lat="43.4885" lon="2.27691">
        <ele>540.6</ele>
        <time>2015-10-28T13:28:28.000Z</time>
      </trkpt>
      <trkpt lat="43.4886" lon="2.27691">
        <ele>539.9</ele>
        <time>2015-10-28T13:28:35.000Z</time>
      </trkpt>
      <trkpt lat="43.48868" lon="2.27687">
        <ele>539.1</ele>
        <time>2015-10-28T13:28:41.000Z</time>
      </trkpt>
      <trkpt lat="43.48876" lon="2.2768">
        <ele>538.3</ele>
        <time>2015-10-28T13:28:50.000Z</time>
      </trkpt>
      <trkpt lat="43.48885" lon="2.27681">
        <ele>537.4</ele>
        <time>2015-10-28T13:28:59.000Z</time>
      </trkpt>
      <trkpt lat="43.48895" lon="2.27684">
        <ele>536</ele>
        <time>2015-10-28T13:29:9.000Z</time>
      </trkpt>
      <trkpt lat="43.48904" lon="2.27685">
        <ele>535.4</ele>
        <time>2015-10-28T13:29:16.000Z</time>
      </trkpt>
      <trkpt lat="43.48915" lon="2.27691">
        <ele>534.5</ele>
        <time>2015-10-28T13:29:22.000Z</time>
      </trkpt>
      <trkpt lat="43.48924" lon="2.27697">
        <ele>533.6</ele>
        <time>2015-10-28T13:29:26.000Z</time>
      </trkpt>
      <trkpt lat="43.48933" lon="2.27703">
        <ele>533.7</ele>
        <time>2015-10-28T13:29:32.000Z</time>
      </trkpt>
      <trkpt lat="43.4894" lon="2.27711">
        <ele>532.9</ele>
        <time>2015-10-28T13:29:41.000Z</time>
      </trkpt>
      <trkpt lat="43.48947" lon="2.27721">
        <ele>532.2</ele>
        <time>2015-10-28T13:29:50.000Z</time>
      </trkpt>
      <trkpt lat="43.48955" lon="2.27728">
        <ele>531</ele>
        <time>2015-10-28T13:29:58.000Z</time>
      </trkpt>
      <trkpt lat="43.48962" lon="2.2774">
        <ele>530.4</ele>
        <time>2015-10-28T13:30:7.000Z</time>
      </trkpt>
      <trkpt lat="43.48969" lon="2.27748">
        <ele>529.9</ele>
        <time>2015-10-28T13:30:16.000Z</time>
      </trkpt>
      <trkpt lat="43.48976" lon="2.27757">
        <ele>529.5</ele>
        <time>2015-10-28T13:30:25.000Z</time>
      </trkpt>
      <trkpt lat="43.48984" lon="2.27764">
        <ele>529.2</ele>
        <time>2015-10-28T13:30:34.000Z</time>
      </trkpt>
      <trkpt lat="43.48993" lon="2.27772">
        <ele>528.6</ele>
        <time>2015-10-28T13:30:43.000Z</time>
      </trkpt>
      <trkpt lat="43.49001" lon="2.27777">
        <ele>528.2</ele>
        <time>2015-10-28T13:30:51.000Z</time>
      </trkpt>
      <trkpt lat="43.49009" lon="2.27785">
        <ele>528.1</ele>
        <time>2015-10-28T13:31:0.000Z</time>
      </trkpt>
      <trkpt lat="43.49017" lon="2.27791">
        <ele>528.2</ele>
        <time>2015-10-28T13:31:10.000Z</time>
      </trkpt>
      <trkpt lat="43.49027" lon="2.27789">
        <ele>528.3</ele>
        <time>2015-10-28T13:31:17.000Z</time>
      </trkpt>
      <trkpt lat="43.49035" lon="2.27782">
        <ele>528.7</ele>
        <time>2015-10-28T13:31:28.000Z</time>
      </trkpt>
      <trkpt lat="43.49044" lon="2.27778">
        <ele>529.3</ele>
        <time>2015-10-28T13:31:35.000Z</time>
      </trkpt>
      <trkpt lat="43.49053" lon="2.27774">
        <ele>529.9</ele>
        <time>2015-10-28T13:31:43.000Z</time>
      </trkpt>
      <trkpt lat="43.49064" lon="2.27775">
        <ele>530.3</ele>
        <time>2015-10-28T13:31:50.000Z</time>
      </trkpt>
      <trkpt lat="43.49074" lon="2.27779">
        <ele>530.6</ele>
        <time>2015-10-28T13:31:57.000Z</time>
      </trkpt>
      <trkpt lat="43.49083" lon="2.27784">
        <ele>531</ele>
        <time>2015-10-28T13:32:5.000Z</time>
      </trkpt>
      <trkpt lat="43.49091" lon="2.2779">
        <ele>531.4</ele>
        <time>2015-10-28T13:32:13.000Z</time>
      </trkpt>
      <trkpt lat="43.49101" lon="2.27792">
        <ele>531.6</ele>
        <time>2015-10-28T13:32:21.000Z</time>
      </trkpt>
      <trkpt lat="43.4911" lon="2.27791">
        <ele>531.7</ele>
        <time>2015-10-28T13:32:27.000Z</time>
      </trkpt>
      <trkpt lat="43.4912" lon="2.27792">
        <ele>531.8</ele>
        <time>2015-10-28T13:32:34.000Z</time>
      </trkpt>
      <trkpt lat="43.4913" lon="2.27792">
        <ele>531.8</ele>
        <time>2015-10-28T13:32:42.000Z</time>
      </trkpt>
      <trkpt lat="43.49139" lon="2.27792">
        <ele>531.8</ele>
        <time>2015-10-28T13:32:55.000Z</time>
      </trkpt>
      <trkpt lat="43.49148" lon="2.27789">
        <ele>531.7</ele>
        <time>2015-10-28T13:33:1.000Z</time>
      </trkpt>
      <trkpt lat="43.49158" lon="2.27785">
        <ele>531.3</ele>
        <time>2015-10-28T13:33:8.000Z</time>
      </trkpt>
      <trkpt lat="43.49169" lon="2.27782">
        <ele>530.9</ele>
        <time>2015-10-28T13:33:16.000Z</time>
      </trkpt>
      <trkpt lat="43.49179" lon="2.27781">
        <ele>530.5</ele>
        <time>2015-10-28T13:33:25.000Z</time>
      </trkpt>
      <trkpt lat="43.49188" lon="2.27778">
        <ele>530.5</ele>
        <time>2015-10-28T13:33:31.000Z</time>
      </trkpt>
      <trkpt lat="43.49198" lon="2.27777">
        <ele>530.2</ele>
        <time>2015-10-28T13:33:37.000Z</time>
      </trkpt>
      <trkpt lat="43.49208" lon="2.27773">
        <ele>530</ele>
        <time>2015-10-28T13:33:46.000Z</time>
      </trkpt>
      <trkpt lat="43.49216" lon="2.27766">
        <ele>529.8</ele>
        <time>2015-10-28T13:33:52.000Z</time>
      </trkpt>
      <trkpt lat="43.49224" lon="2.27757">
        <ele>529.3</ele>
        <time>2015-10-28T13:33:59.000Z</time>
      </trkpt>
      <trkpt lat="43.49232" lon="2.2775">
        <ele>529.2</ele>
        <time>2015-10-28T13:34:6.000Z</time>
      </trkpt>
      <trkpt lat="43.49241" lon="2.27744">
        <ele>529.1</ele>
        <time>2015-10-28T13:34:12.000Z</time>
      </trkpt>
      <trkpt lat="43.49249" lon="2.27739">
        <ele>528.9</ele>
        <time>2015-10-28T13:34:20.000Z</time>
      </trkpt>
      <trkpt lat="43.49257" lon="2.27732">
        <ele>528.4</ele>
        <time>2015-10-28T13:34:31.000Z</time>
      </trkpt>
      <trkpt lat="43.49266" lon="2.27725">
        <ele>527.8</ele>
        <time>2015-10-28T13:34:39.000Z</time>
      </trkpt>
      <trkpt lat="43.49274" lon="2.27719">
        <ele>527.4</ele>
        <time>2015-10-28T13:34:46.000Z</time>
      </trkpt>
      <trkpt lat="43.49282" lon="2.27711">
        <ele>527.1</ele>
        <time>2015-10-28T13:34:53.000Z</time>
      </trkpt>
      <trkpt lat="43.49287" lon="2.27701">
        <ele>526.7</ele>
        <time>2015-10-28T13:34:59.000Z</time>
      </trkpt>
      <trkpt lat="43.49296" lon="2.277">
        <ele>526.3</ele>
        <time>2015-10-28T13:35:7.000Z</time>
      </trkpt>
      <trkpt lat="43.49301" lon="2.27688">
        <ele>525.9</ele>
        <time>2015-10-28T13:35:13.000Z</time>
      </trkpt>
      <trkpt lat="43.49312" lon="2.27687">
        <ele>524</ele>
        <time>2015-10-28T13:35:30.000Z</time>
      </trkpt>
      <trkpt lat="43.4932" lon="2.27684">
        <ele>523.2</ele>
        <time>2015-10-28T13:35:36.000Z</time>
      </trkpt>
      <trkpt lat="43.49325" lon="2.27672">
        <ele>522.8</ele>
        <time>2015-10-28T13:35:43.000Z</time>
      </trkpt>
      <trkpt lat="43.49331" lon="2.27661">
        <ele>522.7</ele>
        <time>2015-10-28T13:35:47.000Z</time>
      </trkpt>
      <trkpt lat="43.49338" lon="2.27652">
        <ele>522.4</ele>
        <time>2015-10-28T13:35:53.000Z</time>
      </trkpt>
      <trkpt lat="43.49347" lon="2.2765">
        <ele>522.1</ele>
        <time>2015-10-28T13:35:58.000Z</time>
      </trkpt>
      <trkpt lat="43.49353" lon="2.27633">
        <ele>521.7</ele>
        <time>2015-10-28T13:36:4.000Z</time>
      </trkpt>
      <trkpt lat="43.4936" lon="2.27625">
        <ele>521.4</ele>
        <time>2015-10-28T13:36:9.000Z</time>
      </trkpt>
      <trkpt lat="43.4937" lon="2.27619">
        <ele>520.9</ele>
        <time>2015-10-28T13:36:16.000Z</time>
      </trkpt>
      <trkpt lat="43.49379" lon="2.27617">
        <ele>520</ele>
        <time>2015-10-28T13:36:24.000Z</time>
      </trkpt>
      <trkpt lat="43.49388" lon="2.27622">
        <ele>519.6</ele>
        <time>2015-10-28T13:36:29.000Z</time>
      </trkpt>
      <trkpt lat="43.49395" lon="2.27631">
        <ele>519.4</ele>
        <time>2015-10-28T13:36:32.000Z</time>
      </trkpt>
      <trkpt lat="43.49406" lon="2.27631">
        <ele>519.2</ele>
        <time>2015-10-28T13:36:35.000Z</time>
      </trkpt>
      <trkpt lat="43.49415" lon="2.27628">
        <ele>517.9</ele>
        <time>2015-10-28T13:36:46.000Z</time>
      </trkpt>
      <trkpt lat="43.49423" lon="2.27622">
        <ele>517.4</ele>
        <time>2015-10-28T13:36:53.000Z</time>
      </trkpt>
      <trkpt lat="43.49432" lon="2.27627">
        <ele>516.3</ele>
        <time>2015-10-28T13:37:6.000Z</time>
      </trkpt>
      <trkpt lat="43.49439" lon="2.27617">
        <ele>515.9</ele>
        <time>2015-10-28T13:37:12.000Z</time>
      </trkpt>
      <trkpt lat="43.49448" lon="2.27613">
        <ele>515.6</ele>
        <time>2015-10-28T13:37:18.000Z</time>
      </trkpt>
      <trkpt lat="43.49456" lon="2.27606">
        <ele>514.9</ele>
        <time>2015-10-28T13:37:24.000Z</time>
      </trkpt>
      <trkpt lat="43.49465" lon="2.27599">
        <ele>514.4</ele>
        <time>2015-10-28T13:37:31.000Z</time>
      </trkpt>
      <trkpt lat="43.49474" lon="2.27599">
        <ele>513.4</ele>
        <time>2015-10-28T13:37:44.000Z</time>
      </trkpt>
      <trkpt lat="43.49479" lon="2.27588">
        <ele>512.7</ele>
        <time>2015-10-28T13:37:50.000Z</time>
      </trkpt>
      <trkpt lat="43.49483" lon="2.27577">
        <ele>511.9</ele>
        <time>2015-10-28T13:37:58.000Z</time>
      </trkpt>
      <trkpt lat="43.4949" lon="2.27566">
        <ele>511.6</ele>
        <time>2015-10-28T13:38:4.000Z</time>
      </trkpt>
      <trkpt lat="43.49498" lon="2.27558">
        <ele>511.3</ele>
        <time>2015-10-28T13:38:8.000Z</time>
      </trkpt>
      <trkpt lat="43.49506" lon="2.27566">
        <ele>510.7</ele>
        <time>2015-10-28T13:38:11.000Z</time>
      </trkpt>
      <trkpt lat="43.49516" lon="2.27569">
        <ele>510.4</ele>
        <time>2015-10-28T13:38:15.000Z</time>
      </trkpt>
      <trkpt lat="43.49524" lon="2.27561">
        <ele>510.1</ele>
        <time>2015-10-28T13:38:22.000Z</time>
      </trkpt>
      <trkpt lat="43.49534" lon="2.27556">
        <ele>509.7</ele>
        <time>2015-10-28T13:38:30.000Z</time>
      </trkpt>
      <trkpt lat="43.49543" lon="2.27552">
        <ele>509.2</ele>
        <time>2015-10-28T13:38:37.000Z</time>
      </trkpt>
      <trkpt lat="43.49548" lon="2.27541">
        <ele>508</ele>
        <time>2015-10-28T13:38:47.000Z</time>
      </trkpt>
      <trkpt lat="43.49556" lon="2.27535">
        <ele>507.5</ele>
        <time>2015-10-28T13:38:57.000Z</time>
      </trkpt>
      <trkpt lat="43.49567" lon="2.27535">
        <ele>507.2</ele>
        <time>2015-10-28T13:39:6.000Z</time>
      </trkpt>
      <trkpt lat="43.49574" lon="2.27529">
        <ele>506.3</ele>
        <time>2015-10-28T13:39:21.000Z</time>
      </trkpt>
      <trkpt lat="43.49585" lon="2.27526">
        <ele>506.1</ele>
        <time>2015-10-28T13:39:26.000Z</time>
      </trkpt>
      <trkpt lat="43.49593" lon="2.27519">
        <ele>505.7</ele>
        <time>2015-10-28T13:39:33.000Z</time>
      </trkpt>
      <trkpt lat="43.49594" lon="2.27506">
        <ele>505.1</ele>
        <time>2015-10-28T13:39:44.000Z</time>
      </trkpt>
      <trkpt lat="43.49598" lon="2.27494">
        <ele>504.8</ele>
        <time>2015-10-28T13:39:54.000Z</time>
      </trkpt>
      <trkpt lat="43.49592" lon="2.27485">
        <ele>504.3</ele>
        <time>2015-10-28T13:40:2.000Z</time>
      </trkpt>
      <trkpt lat="43.49587" lon="2.27473">
        <ele>503.9</ele>
        <time>2015-10-28T13:40:10.000Z</time>
      </trkpt>
      <trkpt lat="43.49582" lon="2.27459">
        <ele>503.7</ele>
        <time>2015-10-28T13:40:15.000Z</time>
      </trkpt>
      <trkpt lat="43.49587" lon="2.27447">
        <ele>503.3</ele>
        <time>2015-10-28T13:40:21.000Z</time>
      </trkpt>
      <trkpt lat="43.49588" lon="2.27433">
        <ele>503</ele>
        <time>2015-10-28T13:40:30.000Z</time>
      </trkpt>
      <trkpt lat="43.49594" lon="2.27423">
        <ele>502.5</ele>
        <time>2015-10-28T13:40:34.000Z</time>
      </trkpt>
      <trkpt lat="43.49599" lon="2.27412">
        <ele>501.6</ele>
        <time>2015-10-28T13:40:42.000Z</time>
      </trkpt>
      <trkpt lat="43.49604" lon="2.274">
        <ele>501.5</ele>
        <time>2015-10-28T13:40:47.000Z</time>
      </trkpt>
      <trkpt lat="43.49614" lon="2.27399">
        <ele>501.5</ele>
        <time>2015-10-28T13:40:54.000Z</time>
      </trkpt>
      <trkpt lat="43.49619" lon="2.27387">
        <ele>501.3</ele>
        <time>2015-10-28T13:41:1.000Z</time>
      </trkpt>
      <trkpt lat="43.49628" lon="2.27385">
        <ele>501.2</ele>
        <time>2015-10-28T13:41:7.000Z</time>
      </trkpt>
      <trkpt lat="43.49635" lon="2.27376">
        <ele>501.3</ele>
        <time>2015-10-28T13:41:16.000Z</time>
      </trkpt>
      <trkpt lat="43.49644" lon="2.27384">
        <ele>501.4</ele>
        <time>2015-10-28T13:41:23.000Z</time>
      </trkpt>
      <trkpt lat="43.49653" lon="2.27387">
        <ele>500.2</ele>
        <time>2015-10-28T13:41:30.000Z</time>
      </trkpt>
      <trkpt lat="43.49662" lon="2.27392">
        <ele>500</ele>
        <time>2015-10-28T13:41:36.000Z</time>
      </trkpt>
      <trkpt lat="43.49671" lon="2.27398">
        <ele>500.7</ele>
        <time>2015-10-28T13:41:43.000Z</time>
      </trkpt>
      <trkpt lat="43.49681" lon="2.27402">
        <ele>501.1</ele>
        <time>2015-10-28T13:41:50.000Z</time>
      </trkpt>
      <trkpt lat="43.49689" lon="2.27408">
        <ele>501.3</ele>
        <time>2015-10-28T13:41:56.000Z</time>
      </trkpt>
      <trkpt lat="43.49699" lon="2.27419">
        <ele>501.4</ele>
        <time>2015-10-28T13:41:58.000Z</time>
      </trkpt>
      <trkpt lat="43.49708" lon="2.27427">
        <ele>502</ele>
        <time>2015-10-28T13:42:6.000Z</time>
      </trkpt>
      <trkpt lat="43.49718" lon="2.27435">
        <ele>502.2</ele>
        <time>2015-10-28T13:42:10.000Z</time>
      </trkpt>
      <trkpt lat="43.49725" lon="2.27443">
        <ele>502.3</ele>
        <time>2015-10-28T13:42:17.000Z</time>
      </trkpt>
      <trkpt lat="43.49733" lon="2.2745">
        <ele>502.4</ele>
        <time>2015-10-28T13:42:23.000Z</time>
      </trkpt>
      <trkpt lat="43.49741" lon="2.27457">
        <ele>502.5</ele>
        <time>2015-10-28T13:42:28.000Z</time>
      </trkpt>
      <trkpt lat="43.49751" lon="2.2746">
        <ele>502.5</ele>
        <time>2015-10-28T13:42:37.000Z</time>
      </trkpt>
      <trkpt lat="43.4976" lon="2.27463">
        <ele>502.6</ele>
        <time>2015-10-28T13:42:46.000Z</time>
      </trkpt>
      <trkpt lat="43.49769" lon="2.27465">
        <ele>502.5</ele>
        <time>2015-10-28T13:42:54.000Z</time>
      </trkpt>
      <trkpt lat="43.49778" lon="2.27466">
        <ele>502.8</ele>
        <time>2015-10-28T13:43:4.000Z</time>
      </trkpt>
      <trkpt lat="43.49799" lon="2.27455">
        <ele>502</ele>
        <time>2015-10-28T13:43:24.000Z</time>
      </trkpt>
      <trkpt lat="43.49808" lon="2.2745">
        <ele>503.1</ele>
        <time>2015-10-28T13:43:31.000Z</time>
      </trkpt>
      <trkpt lat="43.49817" lon="2.27445">
        <ele>503.5</ele>
        <time>2015-10-28T13:43:37.000Z</time>
      </trkpt>
      <trkpt lat="43.49826" lon="2.2744">
        <ele>503.9</ele>
        <time>2015-10-28T13:43:44.000Z</time>
      </trkpt>
      <trkpt lat="43.49835" lon="2.27434">
        <ele>504.4</ele>
        <time>2015-10-28T13:43:54.000Z</time>
      </trkpt>
      <trkpt lat="43.4984" lon="2.27423">
        <ele>504.5</ele>
        <time>2015-10-28T13:44:2.000Z</time>
      </trkpt>
      <trkpt lat="43.49847" lon="2.27412">
        <ele>504.8</ele>
        <time>2015-10-28T13:44:9.000Z</time>
      </trkpt>
      <trkpt lat="43.49855" lon="2.27405">
        <ele>505.2</ele>
        <time>2015-10-28T13:44:15.000Z</time>
      </trkpt>
      <trkpt lat="43.49863" lon="2.27397">
        <ele>505.1</ele>
        <time>2015-10-28T13:44:21.000Z</time>
      </trkpt>
      <trkpt lat="43.4987" lon="2.27387">
        <ele>505.3</ele>
        <time>2015-10-28T13:44:28.000Z</time>
      </trkpt>
      <trkpt lat="43.49877" lon="2.27377">
        <ele>505.6</ele>
        <time>2015-10-28T13:44:35.000Z</time>
      </trkpt>
      <trkpt lat="43.49882" lon="2.27366">
        <ele>505.8</ele>
        <time>2015-10-28T13:44:41.000Z</time>
      </trkpt>
      <trkpt lat="43.49887" lon="2.27354">
        <ele>505.6</ele>
        <time>2015-10-28T13:44:48.000Z</time>
      </trkpt>
      <trkpt lat="43.49892" lon="2.27343">
        <ele>505.8</ele>
        <time>2015-10-28T13:44:55.000Z</time>
      </trkpt>
      <trkpt lat="43.49898" lon="2.27333">
        <ele>505.7</ele>
        <time>2015-10-28T13:45:2.000Z</time>
      </trkpt>
      <trkpt lat="43.49904" lon="2.27323">
        <ele>505.6</ele>
        <time>2015-10-28T13:45:10.000Z</time>
      </trkpt>
      <trkpt lat="43.49912" lon="2.27317">
        <ele>505.7</ele>
        <time>2015-10-28T13:45:17.000Z</time>
      </trkpt>
      <trkpt lat="43.4992" lon="2.27309">
        <ele>505.7</ele>
        <time>2015-10-28T13:45:24.000Z</time>
      </trkpt>
      <trkpt lat="43.49926" lon="2.273">
        <ele>505.5</ele>
        <time>2015-10-28T13:45:31.000Z</time>
      </trkpt>
      <trkpt lat="43.49934" lon="2.27293">
        <ele>505.1</ele>
        <time>2015-10-28T13:45:39.000Z</time>
      </trkpt>
      <trkpt lat="43.49943" lon="2.27288">
        <ele>505.2</ele>
        <time>2015-10-28T13:45:46.000Z</time>
      </trkpt>
      <trkpt lat="43.4995" lon="2.2728">
        <ele>505.2</ele>
        <time>2015-10-28T13:45:54.000Z</time>
      </trkpt>
      <trkpt lat="43.49958" lon="2.27274">
        <ele>504.7</ele>
        <time>2015-10-28T13:46:2.000Z</time>
      </trkpt>
      <trkpt lat="43.49964" lon="2.27264">
        <ele>504.5</ele>
        <time>2015-10-28T13:46:10.000Z</time>
      </trkpt>
      <trkpt lat="43.49973" lon="2.2726">
        <ele>504.7</ele>
        <time>2015-10-28T13:46:18.000Z</time>
      </trkpt>
      <trkpt lat="43.49983" lon="2.27261">
        <ele>504.8</ele>
        <time>2015-10-28T13:46:25.000Z</time>
      </trkpt>
      <trkpt lat="43.49993" lon="2.27259">
        <ele>505.1</ele>
        <time>2015-10-28T13:46:33.000Z</time>
      </trkpt>
      <trkpt lat="43.50002" lon="2.27254">
        <ele>505.4</ele>
        <time>2015-10-28T13:46:42.000Z</time>
      </trkpt>
      <trkpt lat="43.50011" lon="2.2725">
        <ele>505.7</ele>
        <time>2015-10-28T13:46:50.000Z</time>
      </trkpt>
      <trkpt lat="43.50021" lon="2.27251">
        <ele>505.6</ele>
        <time>2015-10-28T13:46:58.000Z</time>
      </trkpt>
      <trkpt lat="43.5003" lon="2.27253">
        <ele>505.6</ele>
        <time>2015-10-28T13:47:4.000Z</time>
      </trkpt>
      <trkpt lat="43.50038" lon="2.27262">
        <ele>505.6</ele>
        <time>2015-10-28T13:47:13.000Z</time>
      </trkpt>
      <trkpt lat="43.50044" lon="2.27273">
        <ele>505.8</ele>
        <time>2015-10-28T13:47:23.000Z</time>
      </trkpt>
      <trkpt lat="43.50051" lon="2.27281">
        <ele>506</ele>
        <time>2015-10-28T13:47:31.000Z</time>
      </trkpt>
      <trkpt lat="43.5006" lon="2.27285">
        <ele>506</ele>
        <time>2015-10-28T13:47:37.000Z</time>
      </trkpt>
      <trkpt lat="43.5007" lon="2.27288">
        <ele>506.2</ele>
        <time>2015-10-28T13:47:43.000Z</time>
      </trkpt>
      <trkpt lat="43.50079" lon="2.2729">
        <ele>506.6</ele>
        <time>2015-10-28T13:47:51.000Z</time>
      </trkpt>
      <trkpt lat="43.50089" lon="2.27292">
        <ele>506.5</ele>
        <time>2015-10-28T13:48:3.000Z</time>
      </trkpt>
      <trkpt lat="43.50099" lon="2.27294">
        <ele>506.4</ele>
        <time>2015-10-28T13:48:14.000Z</time>
      </trkpt>
      <trkpt lat="43.50108" lon="2.27297">
        <ele>506.4</ele>
        <time>2015-10-28T13:48:27.000Z</time>
      </trkpt>
      <trkpt lat="43.50118" lon="2.27296">
        <ele>506.3</ele>
        <time>2015-10-28T13:48:37.000Z</time>
      </trkpt>
      <trkpt lat="43.50126" lon="2.27292">
        <ele>505.8</ele>
        <time>2015-10-28T13:48:48.000Z</time>
      </trkpt>
      <trkpt lat="43.50135" lon="2.27289">
        <ele>505.5</ele>
        <time>2015-10-28T13:48:57.000Z</time>
      </trkpt>
      <trkpt lat="43.50144" lon="2.27283">
        <ele>504.7</ele>
        <time>2015-10-28T13:49:6.000Z</time>
      </trkpt>
      <trkpt lat="43.50153" lon="2.2728">
        <ele>504.2</ele>
        <time>2015-10-28T13:49:18.000Z</time>
      </trkpt>
      <trkpt lat="43.50158" lon="2.27269">
        <ele>501.7</ele>
        <time>2015-10-28T13:49:49.000Z</time>
      </trkpt>
      <trkpt lat="43.5016" lon="2.27256">
        <ele>499.7</ele>
        <time>2015-10-28T13:49:58.000Z</time>
      </trkpt>
      <trkpt lat="43.50162" lon="2.27243">
        <ele>497.7</ele>
        <time>2015-10-28T13:50:8.000Z</time>
      </trkpt>
      <trkpt lat="43.50167" lon="2.27232">
        <ele>494.8</ele>
        <time>2015-10-28T13:50:20.000Z</time>
      </trkpt>
      <trkpt lat="43.50171" lon="2.27219">
        <ele>491.6</ele>
        <time>2015-10-28T13:50:28.000Z</time>
      </trkpt>
      <trkpt lat="43.50174" lon="2.27208">
        <ele>489.1</ele>
        <time>2015-10-28T13:50:39.000Z</time>
      </trkpt>
      <trkpt lat="43.5018" lon="2.27196">
        <ele>488.7</ele>
        <time>2015-10-28T13:50:50.000Z</time>
      </trkpt>
      <trkpt lat="43.50182" lon="2.27184">
        <ele>488.4</ele>
        <time>2015-10-28T13:50:56.000Z</time>
      </trkpt>
      <trkpt lat="43.50184" lon="2.2717">
        <ele>488.3</ele>
        <time>2015-10-28T13:51:1.000Z</time>
      </trkpt>
      <trkpt lat="43.50186" lon="2.27156">
        <ele>488.4</ele>
        <time>2015-10-28T13:51:7.000Z</time>
      </trkpt>
      <trkpt lat="43.50186" lon="2.27142">
        <ele>488.8</ele>
        <time>2015-10-28T13:51:12.000Z</time>
      </trkpt>
      <trkpt lat="43.50193" lon="2.27134">
        <ele>489.5</ele>
        <time>2015-10-28T13:51:21.000Z</time>
      </trkpt>
      <trkpt lat="43.50201" lon="2.27127">
        <ele>490</ele>
        <time>2015-10-28T13:51:28.000Z</time>
      </trkpt>
      <trkpt lat="43.50211" lon="2.27126">
        <ele>490.2</ele>
        <time>2015-10-28T13:51:33.000Z</time>
      </trkpt>
      <trkpt lat="43.5022" lon="2.27124">
        <ele>490.4</ele>
        <time>2015-10-28T13:51:40.000Z</time>
      </trkpt>
      <trkpt lat="43.50224" lon="2.27112">
        <ele>490.6</ele>
        <time>2015-10-28T13:51:48.000Z</time>
      </trkpt>
      <trkpt lat="43.50229" lon="2.27102">
        <ele>490.9</ele>
        <time>2015-10-28T13:51:56.000Z</time>
      </trkpt>
      <trkpt lat="43.50235" lon="2.27091">
        <ele>491</ele>
        <time>2015-10-28T13:52:5.000Z</time>
      </trkpt>
      <trkpt lat="43.50238" lon="2.27079">
        <ele>490.7</ele>
        <time>2015-10-28T13:52:12.000Z</time>
      </trkpt>
      <trkpt lat="43.5024" lon="2.27065">
        <ele>490.3</ele>
        <time>2015-10-28T13:52:19.000Z</time>
      </trkpt>
      <trkpt lat="43.50243" lon="2.27052">
        <ele>490.3</ele>
        <time>2015-10-28T13:52:25.000Z</time>
      </trkpt>
      <trkpt lat="43.50246" lon="2.27039">
        <ele>490.2</ele>
        <time>2015-10-28T13:52:29.000Z</time>
      </trkpt>
      <trkpt lat="43.50251" lon="2.27029">
        <ele>490</ele>
        <time>2015-10-28T13:52:36.000Z</time>
      </trkpt>
      <trkpt lat="43.50255" lon="2.27017">
        <ele>489.8</ele>
        <time>2015-10-28T13:52:44.000Z</time>
      </trkpt>
      <trkpt lat="43.50262" lon="2.27007">
        <ele>489.7</ele>
        <time>2015-10-28T13:52:52.000Z</time>
      </trkpt>
      <trkpt lat="43.5027" lon="2.26999">
        <ele>489.3</ele>
        <time>2015-10-28T13:53:0.000Z</time>
      </trkpt>
      <trkpt lat="43.50269" lon="2.26984">
        <ele>488.7</ele>
        <time>2015-10-28T13:53:8.000Z</time>
      </trkpt>
      <trkpt lat="43.50278" lon="2.26983">
        <ele>487.3</ele>
        <time>2015-10-28T13:53:38.000Z</time>
      </trkpt>
      <trkpt lat="43.50281" lon="2.26995">
        <ele>487.2</ele>
        <time>2015-10-28T13:53:44.000Z</time>
      </trkpt>
      <trkpt lat="43.50282" lon="2.27016">
        <ele>484.4</ele>
        <time>2015-10-28T13:54:10.000Z</time>
      </trkpt>
      <trkpt lat="43.50292" lon="2.27014">
        <ele>484.4</ele>
        <time>2015-10-28T13:54:14.000Z</time>
      </trkpt>
      <trkpt lat="43.50303" lon="2.27005">
        <ele>484</ele>
        <time>2015-10-28T13:54:23.000Z</time>
      </trkpt>
      <trkpt lat="43.50293" lon="2.27004">
        <ele>484.1</ele>
        <time>2015-10-28T13:54:30.000Z</time>
      </trkpt>
      <trkpt lat="43.50302" lon="2.26997">
        <ele>483.7</ele>
        <time>2015-10-28T13:54:38.000Z</time>
      </trkpt>
      <trkpt lat="43.50302" lon="2.26983">
        <ele>483.6</ele>
        <time>2015-10-28T13:54:43.000Z</time>
      </trkpt>
      <trkpt lat="43.5031" lon="2.26978">
        <ele>482.7</ele>
        <time>2015-10-28T13:54:53.000Z</time>
      </trkpt>
      <trkpt lat="43.5032" lon="2.26979">
        <ele>482.2</ele>
        <time>2015-10-28T13:55:3.000Z</time>
      </trkpt>
      <trkpt lat="43.50328" lon="2.26971">
        <ele>481.6</ele>
        <time>2015-10-28T13:55:15.000Z</time>
      </trkpt>
      <trkpt lat="43.50328" lon="2.26956">
        <ele>480.5</ele>
        <time>2015-10-28T13:55:27.000Z</time>
      </trkpt>
      <trkpt lat="43.50334" lon="2.26945">
        <ele>479.8</ele>
        <time>2015-10-28T13:55:37.000Z</time>
      </trkpt>
      <trkpt lat="43.50341" lon="2.26938">
        <ele>478.5</ele>
        <time>2015-10-28T13:55:51.000Z</time>
      </trkpt>
      <trkpt lat="43.50346" lon="2.26927">
        <ele>477.7</ele>
        <time>2015-10-28T13:56:0.000Z</time>
      </trkpt>
      <trkpt lat="43.5035" lon="2.26914">
        <ele>477.2</ele>
        <time>2015-10-28T13:56:8.000Z</time>
      </trkpt>
      <trkpt lat="43.50359" lon="2.26909">
        <ele>476.6</ele>
        <time>2015-10-28T13:56:15.000Z</time>
      </trkpt>
      <trkpt lat="43.50363" lon="2.26897">
        <ele>476.8</ele>
        <time>2015-10-28T13:56:24.000Z</time>
      </trkpt>
      <trkpt lat="43.50364" lon="2.26884">
        <ele>476.9</ele>
        <time>2015-10-28T13:56:30.000Z</time>
      </trkpt>
      <trkpt lat="43.50372" lon="2.26878">
        <ele>476.5</ele>
        <time>2015-10-28T13:56:40.000Z</time>
      </trkpt>
      <trkpt lat="43.5038" lon="2.2687">
        <ele>475.9</ele>
        <time>2015-10-28T13:56:51.000Z</time>
      </trkpt>
      <trkpt lat="43.50387" lon="2.26862">
        <ele>475</ele>
        <time>2015-10-28T13:57:1.000Z</time>
      </trkpt>
      <trkpt lat="43.50396" lon="2.26854">
        <ele>474.1</ele>
        <time>2015-10-28T13:57:12.000Z</time>
      </trkpt>
      <trkpt lat="43.50402" lon="2.26844">
        <ele>473.6</ele>
        <time>2015-10-28T13:57:20.000Z</time>
      </trkpt>
      <trkpt lat="43.50405" lon="2.2683">
        <ele>473.1</ele>
        <time>2015-10-28T13:57:28.000Z</time>
      </trkpt>
      <trkpt lat="43.5041" lon="2.2682">
        <ele>472.7</ele>
        <time>2015-10-28T13:57:41.000Z</time>
      </trkpt>
      <trkpt lat="43.50419" lon="2.26813">
        <ele>471.7</ele>
        <time>2015-10-28T13:57:54.000Z</time>
      </trkpt>
      <trkpt lat="43.50427" lon="2.26805">
        <ele>471.1</ele>
        <time>2015-10-28T13:58:3.000Z</time>
      </trkpt>
      <trkpt lat="43.50433" lon="2.26796">
        <ele>470.4</ele>
        <time>2015-10-28T13:58:13.000Z</time>
      </trkpt>
      <trkpt lat="43.50441" lon="2.26788">
        <ele>469.7</ele>
        <time>2015-10-28T13:58:24.000Z</time>
      </trkpt>
      <trkpt lat="43.50451" lon="2.26783">
        <ele>469.2</ele>
        <time>2015-10-28T13:58:34.000Z</time>
      </trkpt>
      <trkpt lat="43.50458" lon="2.26775">
        <ele>469.2</ele>
        <time>2015-10-28T13:58:42.000Z</time>
      </trkpt>
      <trkpt lat="43.50468" lon="2.26777">
        <ele>468.2</ele>
        <time>2015-10-28T13:59:2.000Z</time>
      </trkpt>
      <trkpt lat="43.50479" lon="2.26771">
        <ele>467.7</ele>
        <time>2015-10-28T13:59:13.000Z</time>
      </trkpt>
      <trkpt lat="43.50488" lon="2.26766">
        <ele>467.2</ele>
        <time>2015-10-28T13:59:23.000Z</time>
      </trkpt>
      <trkpt lat="43.50496" lon="2.2676">
        <ele>466.8</ele>
        <time>2015-10-28T13:59:32.000Z</time>
      </trkpt>
      <trkpt lat="43.50504" lon="2.26754">
        <ele>466.7</ele>
        <time>2015-10-28T13:59:41.000Z</time>
      </trkpt>
      <trkpt lat="43.50514" lon="2.26749">
        <ele>466.4</ele>
        <time>2015-10-28T13:59:49.000Z</time>
      </trkpt>
      <trkpt lat="43.50524" lon="2.26747">
        <ele>465.2</ele>
        <time>2015-10-28T13:59:59.000Z</time>
      </trkpt>
      <trkpt lat="43.50531" lon="2.26739">
        <ele>464.5</ele>
        <time>2015-10-28T14:00:15.000Z</time>
      </trkpt>
      <trkpt lat="43.50538" lon="2.26731">
        <ele>419.7</ele>
        <time>2015-10-28T14:03:14.000Z</time>
      </trkpt>
      <trkpt lat="43.50542" lon="2.26742">
        <ele>422.4</ele>
        <time>2015-10-28T14:03:37.000Z</time>
      </trkpt>
      <trkpt lat="43.50551" lon="2.2674">
        <ele>424.8</ele>
        <time>2015-10-28T14:03:46.000Z</time>
      </trkpt>
      <trkpt lat="43.5056" lon="2.26736">
        <ele>429.7</ele>
        <time>2015-10-28T14:04:0.000Z</time>
      </trkpt>
      <trkpt lat="43.50568" lon="2.26731">
        <ele>442</ele>
        <time>2015-10-28T14:04:27.000Z</time>
      </trkpt>
      <trkpt lat="43.50577" lon="2.26729">
        <ele>448.1</ele>
        <time>2015-10-28T14:04:41.000Z</time>
      </trkpt>
      <trkpt lat="43.50587" lon="2.26726">
        <ele>453.8</ele>
        <time>2015-10-28T14:04:54.000Z</time>
      </trkpt>
      <trkpt lat="43.50596" lon="2.26722">
        <ele>458.9</ele>
        <time>2015-10-28T14:05:6.000Z</time>
      </trkpt>
      <trkpt lat="43.50605" lon="2.26724">
        <ele>464.2</ele>
        <time>2015-10-28T14:05:18.000Z</time>
      </trkpt>
      <trkpt lat="43.50616" lon="2.2672">
        <ele>468.3</ele>
        <time>2015-10-28T14:05:28.000Z</time>
      </trkpt>
      <trkpt lat="43.50623" lon="2.26712">
        <ele>471.6</ele>
        <time>2015-10-28T14:05:37.000Z</time>
      </trkpt>
      <trkpt lat="43.50628" lon="2.26701">
        <ele>474.9</ele>
        <time>2015-10-28T14:05:46.000Z</time>
      </trkpt>
      <trkpt lat="43.50634" lon="2.26691">
        <ele>478.4</ele>
        <time>2015-10-28T14:05:56.000Z</time>
      </trkpt>
      <trkpt lat="43.5064" lon="2.26681">
        <ele>482.3</ele>
        <time>2015-10-28T14:06:7.000Z</time>
      </trkpt>
      <trkpt lat="43.5065" lon="2.26678">
        <ele>485.5</ele>
        <time>2015-10-28T14:06:17.000Z</time>
      </trkpt>
      <trkpt lat="43.50659" lon="2.26679">
        <ele>488.3</ele>
        <time>2015-10-28T14:06:26.000Z</time>
      </trkpt>
      <trkpt lat="43.50668" lon="2.26674">
        <ele>492.2</ele>
        <time>2015-10-28T14:06:39.000Z</time>
      </trkpt>
      <trkpt lat="43.50677" lon="2.26672">
        <ele>494.8</ele>
        <time>2015-10-28T14:06:49.000Z</time>
      </trkpt>
      <trkpt lat="43.50687" lon="2.26672">
        <ele>497.7</ele>
        <time>2015-10-28T14:07:0.000Z</time>
      </trkpt>
      <trkpt lat="43.50696" lon="2.26674">
        <ele>499.9</ele>
        <time>2015-10-28T14:07:9.000Z</time>
      </trkpt>
      <trkpt lat="43.50705" lon="2.26677">
        <ele>502.6</ele>
        <time>2015-10-28T14:07:21.000Z</time>
      </trkpt>
      <trkpt lat="43.50714" lon="2.2668">
        <ele>504.1</ele>
        <time>2015-10-28T14:07:29.000Z</time>
      </trkpt>
      <trkpt lat="43.50724" lon="2.26683">
        <ele>505.5</ele>
        <time>2015-10-28T14:07:36.000Z</time>
      </trkpt>
      <trkpt lat="43.50733" lon="2.26684">
        <ele>507</ele>
        <time>2015-10-28T14:07:44.000Z</time>
      </trkpt>
      <trkpt lat="43.50743" lon="2.26685">
        <ele>508.2</ele>
        <time>2015-10-28T14:07:51.000Z</time>
      </trkpt>
      <trkpt lat="43.50753" lon="2.26686">
        <ele>509.6</ele>
        <time>2015-10-28T14:08:0.000Z</time>
      </trkpt>
      <trkpt lat="43.50762" lon="2.26685">
        <ele>510.8</ele>
        <time>2015-10-28T14:08:10.000Z</time>
      </trkpt>
      <trkpt lat="43.50771" lon="2.26685">
        <ele>512</ele>
        <time>2015-10-28T14:08:18.000Z</time>
      </trkpt>
      <trkpt lat="43.50781" lon="2.26684">
        <ele>513.1</ele>
        <time>2015-10-28T14:08:27.000Z</time>
      </trkpt>
      <trkpt lat="43.50791" lon="2.26683">
        <ele>514.2</ele>
        <time>2015-10-28T14:08:37.000Z</time>
      </trkpt>
      <trkpt lat="43.50798" lon="2.26675">
        <ele>515</ele>
        <time>2015-10-28T14:08:45.000Z</time>
      </trkpt>
      <trkpt lat="43.50808" lon="2.26672">
        <ele>515.9</ele>
        <time>2015-10-28T14:08:54.000Z</time>
      </trkpt>
      <trkpt lat="43.50817" lon="2.26668">
        <ele>516.7</ele>
        <time>2015-10-28T14:09:2.000Z</time>
      </trkpt>
      <trkpt lat="43.50826" lon="2.26659">
        <ele>517.7</ele>
        <time>2015-10-28T14:09:12.000Z</time>
      </trkpt>
      <trkpt lat="43.50835" lon="2.26654">
        <ele>517.9</ele>
        <time>2015-10-28T14:09:21.000Z</time>
      </trkpt>
      <trkpt lat="43.50843" lon="2.2665">
        <ele>518.4</ele>
        <time>2015-10-28T14:09:30.000Z</time>
      </trkpt>
      <trkpt lat="43.50852" lon="2.26645">
        <ele>519</ele>
        <time>2015-10-28T14:09:40.000Z</time>
      </trkpt>
      <trkpt lat="43.5086" lon="2.26639">
        <ele>519.5</ele>
        <time>2015-10-28T14:09:47.000Z</time>
      </trkpt>
      <trkpt lat="43.50869" lon="2.26634">
        <ele>519.9</ele>
        <time>2015-10-28T14:09:54.000Z</time>
      </trkpt>
      <trkpt lat="43.50879" lon="2.26632">
        <ele>520.6</ele>
        <time>2015-10-28T14:10:10.000Z</time>
      </trkpt>
      <trkpt lat="43.50888" lon="2.26626">
        <ele>520.7</ele>
        <time>2015-10-28T14:10:18.000Z</time>
      </trkpt>
      <trkpt lat="43.50895" lon="2.26617">
        <ele>520.8</ele>
        <time>2015-10-28T14:10:25.000Z</time>
      </trkpt>
      <trkpt lat="43.50905" lon="2.26616">
        <ele>520.8</ele>
        <time>2015-10-28T14:10:34.000Z</time>
      </trkpt>
      <trkpt lat="43.50914" lon="2.26614">
        <ele>520.6</ele>
        <time>2015-10-28T14:10:43.000Z</time>
      </trkpt>
      <trkpt lat="43.50923" lon="2.26618">
        <ele>520.4</ele>
        <time>2015-10-28T14:10:51.000Z</time>
      </trkpt>
      <trkpt lat="43.50932" lon="2.26618">
        <ele>519.9</ele>
        <time>2015-10-28T14:11:2.000Z</time>
      </trkpt>
      <trkpt lat="43.50941" lon="2.26617">
        <ele>519.5</ele>
        <time>2015-10-28T14:11:12.000Z</time>
      </trkpt>
      <trkpt lat="43.5095" lon="2.26614">
        <ele>518.9</ele>
        <time>2015-10-28T14:11:20.000Z</time>
      </trkpt>
      <trkpt lat="43.50958" lon="2.26606">
        <ele>518.5</ele>
        <time>2015-10-28T14:11:24.000Z</time>
      </trkpt>
      <trkpt lat="43.50967" lon="2.26603">
        <ele>517.5</ele>
        <time>2015-10-28T14:11:32.000Z</time>
      </trkpt>
      <trkpt lat="43.50977" lon="2.26599">
        <ele>515.7</ele>
        <time>2015-10-28T14:11:44.000Z</time>
      </trkpt>
      <trkpt lat="43.50986" lon="2.26605">
        <ele>514.3</ele>
        <time>2015-10-28T14:11:54.000Z</time>
      </trkpt>
      <trkpt lat="43.50995" lon="2.26605">
        <ele>513.2</ele>
        <time>2015-10-28T14:12:1.000Z</time>
      </trkpt>
      <trkpt lat="43.51004" lon="2.26609">
        <ele>511.8</ele>
        <time>2015-10-28T14:12:11.000Z</time>
      </trkpt>
      <trkpt lat="43.51013" lon="2.26613">
        <ele>510.9</ele>
        <time>2015-10-28T14:12:18.000Z</time>
      </trkpt>
      <trkpt lat="43.5102" lon="2.26623">
        <ele>510.2</ele>
        <time>2015-10-28T14:12:25.000Z</time>
      </trkpt>
      <trkpt lat="43.51029" lon="2.26621">
        <ele>509.3</ele>
        <time>2015-10-28T14:12:32.000Z</time>
      </trkpt>
      <trkpt lat="43.51035" lon="2.26632">
        <ele>507.7</ele>
        <time>2015-10-28T14:12:45.000Z</time>
      </trkpt>
      <trkpt lat="43.51036" lon="2.26646">
        <ele>506.5</ele>
        <time>2015-10-28T14:12:54.000Z</time>
      </trkpt>
      <trkpt lat="43.51034" lon="2.26659">
        <ele>505.6</ele>
        <time>2015-10-28T14:13:2.000Z</time>
      </trkpt>
      <trkpt lat="43.51036" lon="2.26672">
        <ele>504.6</ele>
        <time>2015-10-28T14:13:11.000Z</time>
      </trkpt>
      <trkpt lat="43.51037" lon="2.26686">
        <ele>503.9</ele>
        <time>2015-10-28T14:13:19.000Z</time>
      </trkpt>
      <trkpt lat="43.51037" lon="2.26699">
        <ele>502.9</ele>
        <time>2015-10-28T14:13:28.000Z</time>
      </trkpt>
      <trkpt lat="43.51036" lon="2.26713">
        <ele>501.5</ele>
        <time>2015-10-28T14:13:38.000Z</time>
      </trkpt>
      <trkpt lat="43.51045" lon="2.26716">
        <ele>500.1</ele>
        <time>2015-10-28T14:13:51.000Z</time>
      </trkpt>
      <trkpt lat="43.51054" lon="2.26722">
        <ele>498.1</ele>
        <time>2015-10-28T14:14:7.000Z</time>
      </trkpt>
      <trkpt lat="43.51063" lon="2.26724">
        <ele>497.1</ele>
        <time>2015-10-28T14:14:15.000Z</time>
      </trkpt>
      <trkpt lat="43.51073" lon="2.26728">
        <ele>496</ele>
        <time>2015-10-28T14:14:24.000Z</time>
      </trkpt>
      <trkpt lat="43.51082" lon="2.26728">
        <ele>495</ele>
        <time>2015-10-28T14:14:33.000Z</time>
      </trkpt>
      <trkpt lat="43.51091" lon="2.26729">
        <ele>494</ele>
        <time>2015-10-28T14:14:42.000Z</time>
      </trkpt>
      <trkpt lat="43.51097" lon="2.26739">
        <ele>492.6</ele>
        <time>2015-10-28T14:14:50.000Z</time>
      </trkpt>
      <trkpt lat="43.51106" lon="2.26745">
        <ele>490.7</ele>
        <time>2015-10-28T14:14:59.000Z</time>
      </trkpt>
      <trkpt lat="43.51114" lon="2.26751">
        <ele>489</ele>
        <time>2015-10-28T14:15:7.000Z</time>
      </trkpt>
      <trkpt lat="43.51121" lon="2.26761">
        <ele>487.2</ele>
        <time>2015-10-28T14:15:16.000Z</time>
      </trkpt>
      <trkpt lat="43.51129" lon="2.26768">
        <ele>484.9</ele>
        <time>2015-10-28T14:15:26.000Z</time>
      </trkpt>
      <trkpt lat="43.51138" lon="2.26768">
        <ele>482.3</ele>
        <time>2015-10-28T14:15:38.000Z</time>
      </trkpt>
      <trkpt lat="43.51148" lon="2.26766">
        <ele>479.5</ele>
        <time>2015-10-28T14:15:50.000Z</time>
      </trkpt>
      <trkpt lat="43.51157" lon="2.26759">
        <ele>477.7</ele>
        <time>2015-10-28T14:15:57.000Z</time>
      </trkpt>
      <trkpt lat="43.51161" lon="2.2677">
        <ele>475.1</ele>
        <time>2015-10-28T14:16:8.000Z</time>
      </trkpt>
      <trkpt lat="43.51163" lon="2.26783">
        <ele>472.1</ele>
        <time>2015-10-28T14:16:18.000Z</time>
      </trkpt>
      <trkpt lat="43.51164" lon="2.26796">
        <ele>469.9</ele>
        <time>2015-10-28T14:16:27.000Z</time>
      </trkpt>
      <trkpt lat="43.51162" lon="2.2681">
        <ele>467.6</ele>
        <time>2015-10-28T14:16:37.000Z</time>
      </trkpt>
      <trkpt lat="43.51161" lon="2.26823">
        <ele>466</ele>
        <time>2015-10-28T14:16:44.000Z</time>
      </trkpt>
      <trkpt lat="43.5116" lon="2.26836">
        <ele>463.6</ele>
        <time>2015-10-28T14:16:53.000Z</time>
      </trkpt>
      <trkpt lat="43.51159" lon="2.26849">
        <ele>461.9</ele>
        <time>2015-10-28T14:17:1.000Z</time>
      </trkpt>
      <trkpt lat="43.5116" lon="2.26863">
        <ele>459.6</ele>
        <time>2015-10-28T14:17:12.000Z</time>
      </trkpt>
      <trkpt lat="43.5116" lon="2.26876">
        <ele>457.8</ele>
        <time>2015-10-28T14:17:21.000Z</time>
      </trkpt>
      <trkpt lat="43.51159" lon="2.26889">
        <ele>455.4</ele>
        <time>2015-10-28T14:17:32.000Z</time>
      </trkpt>
      <trkpt lat="43.51163" lon="2.26901">
        <ele>452.9</ele>
        <time>2015-10-28T14:17:44.000Z</time>
      </trkpt>
      <trkpt lat="43.5117" lon="2.26909">
        <ele>449.9</ele>
        <time>2015-10-28T14:17:59.000Z</time>
      </trkpt>
      <trkpt lat="43.51179" lon="2.26915">
        <ele>447.5</ele>
        <time>2015-10-28T14:18:10.000Z</time>
      </trkpt>
      <trkpt lat="43.51188" lon="2.26917">
        <ele>445.5</ele>
        <time>2015-10-28T14:18:19.000Z</time>
      </trkpt>
      <trkpt lat="43.51197" lon="2.26921">
        <ele>443.2</ele>
        <time>2015-10-28T14:18:31.000Z</time>
      </trkpt>
      <trkpt lat="43.51207" lon="2.26927">
        <ele>441.5</ele>
        <time>2015-10-28T14:18:40.000Z</time>
      </trkpt>
      <trkpt lat="43.51216" lon="2.2693">
        <ele>440.2</ele>
        <time>2015-10-28T14:18:48.000Z</time>
      </trkpt>
      <trkpt lat="43.51226" lon="2.26934">
        <ele>438.8</ele>
        <time>2015-10-28T14:18:56.000Z</time>
      </trkpt>
      <trkpt lat="43.51236" lon="2.26935">
        <ele>437.2</ele>
        <time>2015-10-28T14:19:4.000Z</time>
      </trkpt>
      <trkpt lat="43.51245" lon="2.26934">
        <ele>435.1</ele>
        <time>2015-10-28T14:19:14.000Z</time>
      </trkpt>
      <trkpt lat="43.51255" lon="2.26936">
        <ele>433.6</ele>
        <time>2015-10-28T14:19:22.000Z</time>
      </trkpt>
      <trkpt lat="43.51265" lon="2.26936">
        <ele>432</ele>
        <time>2015-10-28T14:19:31.000Z</time>
      </trkpt>
      <trkpt lat="43.51276" lon="2.26936">
        <ele>430.6</ele>
        <time>2015-10-28T14:19:39.000Z</time>
      </trkpt>
      <trkpt lat="43.51285" lon="2.26937">
        <ele>428.8</ele>
        <time>2015-10-28T14:19:49.000Z</time>
      </trkpt>
      <trkpt lat="43.51294" lon="2.26943">
        <ele>427.6</ele>
        <time>2015-10-28T14:19:56.000Z</time>
      </trkpt>
      <trkpt lat="43.51303" lon="2.26948">
        <ele>425.8</ele>
        <time>2015-10-28T14:20:6.000Z</time>
      </trkpt>
      <trkpt lat="43.51312" lon="2.26952">
        <ele>424.6</ele>
        <time>2015-10-28T14:20:13.000Z</time>
      </trkpt>
      <trkpt lat="43.51321" lon="2.26953">
        <ele>423.4</ele>
        <time>2015-10-28T14:20:20.000Z</time>
      </trkpt>
      <trkpt lat="43.5133" lon="2.26959">
        <ele>422</ele>
        <time>2015-10-28T14:20:30.000Z</time>
      </trkpt>
      <trkpt lat="43.51338" lon="2.26967">
        <ele>420.7</ele>
        <time>2015-10-28T14:20:40.000Z</time>
      </trkpt>
      <trkpt lat="43.51346" lon="2.26975">
        <ele>419.6</ele>
        <time>2015-10-28T14:20:47.000Z</time>
      </trkpt>
      <trkpt lat="43.51354" lon="2.26982">
        <ele>418.9</ele>
        <time>2015-10-28T14:20:52.000Z</time>
      </trkpt>
      <trkpt lat="43.51361" lon="2.26991">
        <ele>417.8</ele>
        <time>2015-10-28T14:21:1.000Z</time>
      </trkpt>
      <trkpt lat="43.51366" lon="2.2698">
        <ele>402.5</ele>
        <time>2015-10-28T14:22:56.000Z</time>
      </trkpt>
      <trkpt lat="43.51372" lon="2.2697">
        <ele>401.5</ele>
        <time>2015-10-28T14:23:6.000Z</time>
      </trkpt>
      <trkpt lat="43.5138" lon="2.26962">
        <ele>400.3</ele>
        <time>2015-10-28T14:23:17.000Z</time>
      </trkpt>
      <trkpt lat="43.51386" lon="2.26953">
        <ele>399.6</ele>
        <time>2015-10-28T14:23:30.000Z</time>
      </trkpt>
      <trkpt lat="43.51391" lon="2.26941">
        <ele>399.2</ele>
        <time>2015-10-28T14:23:39.000Z</time>
      </trkpt>
      <trkpt lat="43.51398" lon="2.26932">
        <ele>398.6</ele>
        <time>2015-10-28T14:23:48.000Z</time>
      </trkpt>
      <trkpt lat="43.51407" lon="2.26928">
        <ele>397.8</ele>
        <time>2015-10-28T14:23:56.000Z</time>
      </trkpt>
      <trkpt lat="43.51416" lon="2.26922">
        <ele>397.6</ele>
        <time>2015-10-28T14:24:4.000Z</time>
      </trkpt>
      <trkpt lat="43.51423" lon="2.26914">
        <ele>394.4</ele>
        <time>2015-10-28T14:24:14.000Z</time>
      </trkpt>
      <trkpt lat="43.51432" lon="2.26907">
        <ele>389.3</ele>
        <time>2015-10-28T14:24:24.000Z</time>
      </trkpt>
      <trkpt lat="43.5144" lon="2.269">
        <ele>382.8</ele>
        <time>2015-10-28T14:24:34.000Z</time>
      </trkpt>
      <trkpt lat="43.51448" lon="2.26892">
        <ele>378.3</ele>
        <time>2015-10-28T14:24:40.000Z</time>
      </trkpt>
      <trkpt lat="43.51455" lon="2.26884">
        <ele>371.5</ele>
        <time>2015-10-28T14:24:49.000Z</time>
      </trkpt>
      <trkpt lat="43.51462" lon="2.26877">
        <ele>366.4</ele>
        <time>2015-10-28T14:24:56.000Z</time>
      </trkpt>
      <trkpt lat="43.5147" lon="2.26869">
        <ele>361.9</ele>
        <time>2015-10-28T14:25:3.000Z</time>
      </trkpt>
      <trkpt lat="43.51476" lon="2.2686">
        <ele>357.5</ele>
        <time>2015-10-28T14:25:10.000Z</time>
      </trkpt>
      <trkpt lat="43.51485" lon="2.26853">
        <ele>352.6</ele>
        <time>2015-10-28T14:25:19.000Z</time>
      </trkpt>
      <trkpt lat="43.51493" lon="2.26848">
        <ele>348.9</ele>
        <time>2015-10-28T14:25:29.000Z</time>
      </trkpt>
      <trkpt lat="43.515" lon="2.26839">
        <ele>345.9</ele>
        <time>2015-10-28T14:25:38.000Z</time>
      </trkpt>
      <trkpt lat="43.51509" lon="2.26834">
        <ele>344.5</ele>
        <time>2015-10-28T14:25:44.000Z</time>
      </trkpt>
      <trkpt lat="43.51516" lon="2.26825">
        <ele>343.1</ele>
        <time>2015-10-28T14:25:52.000Z</time>
      </trkpt>
      <trkpt lat="43.51524" lon="2.26817">
        <ele>341.9</ele>
        <time>2015-10-28T14:26:1.000Z</time>
      </trkpt>
      <trkpt lat="43.51531" lon="2.26809">
        <ele>341.2</ele>
        <time>2015-10-28T14:26:8.000Z</time>
      </trkpt>
      <trkpt lat="43.5154" lon="2.26802">
        <ele>340.9</ele>
        <time>2015-10-28T14:26:16.000Z</time>
      </trkpt>
      <trkpt lat="43.51545" lon="2.26791">
        <ele>341.3</ele>
        <time>2015-10-28T14:26:24.000Z</time>
      </trkpt>
      <trkpt lat="43.51552" lon="2.2678">
        <ele>342.1</ele>
        <time>2015-10-28T14:26:32.000Z</time>
      </trkpt>
      <trkpt lat="43.51558" lon="2.2677">
        <ele>343.1</ele>
        <time>2015-10-28T14:26:39.000Z</time>
      </trkpt>
      <trkpt lat="43.51564" lon="2.2676">
        <ele>344.7</ele>
        <time>2015-10-28T14:26:47.000Z</time>
      </trkpt>
      <trkpt lat="43.51572" lon="2.26752">
        <ele>346.4</ele>
        <time>2015-10-28T14:26:56.000Z</time>
      </trkpt>
      <trkpt lat="43.51579" lon="2.26741">
        <ele>348.5</ele>
        <time>2015-10-28T14:27:5.000Z</time>
      </trkpt>
      <trkpt lat="43.51585" lon="2.26733">
        <ele>350.2</ele>
        <time>2015-10-28T14:27:12.000Z</time>
      </trkpt>
      <trkpt lat="43.5159" lon="2.26722">
        <ele>351.6</ele>
        <time>2015-10-28T14:27:18.000Z</time>
      </trkpt>
      <trkpt lat="43.51592" lon="2.26709">
        <ele>353</ele>
        <time>2015-10-28T14:27:24.000Z</time>
      </trkpt>
      <trkpt lat="43.51592" lon="2.26696">
        <ele>354.6</ele>
        <time>2015-10-28T14:27:31.000Z</time>
      </trkpt>
      <trkpt lat="43.51591" lon="2.26683">
        <ele>356.6</ele>
        <time>2015-10-28T14:27:39.000Z</time>
      </trkpt>
      <trkpt lat="43.51588" lon="2.26671">
        <ele>358.3</ele>
        <time>2015-10-28T14:27:46.000Z</time>
      </trkpt>
      <trkpt lat="43.51585" lon="2.26658">
        <ele>359.8</ele>
        <time>2015-10-28T14:27:53.000Z</time>
      </trkpt>
      <trkpt lat="43.51582" lon="2.26645">
        <ele>361.4</ele>
        <time>2015-10-28T14:28:2.000Z</time>
      </trkpt>
      <trkpt lat="43.51579" lon="2.26633">
        <ele>363.1</ele>
        <time>2015-10-28T14:28:10.000Z</time>
      </trkpt>
      <trkpt lat="43.51577" lon="2.26621">
        <ele>364.7</ele>
        <time>2015-10-28T14:28:18.000Z</time>
      </trkpt>
      <trkpt lat="43.51574" lon="2.26608">
        <ele>366.4</ele>
        <time>2015-10-28T14:28:27.000Z</time>
      </trkpt>
      <trkpt lat="43.51569" lon="2.26596">
        <ele>367.9</ele>
        <time>2015-10-28T14:28:36.000Z</time>
      </trkpt>
      <trkpt lat="43.51561" lon="2.26588">
        <ele>369</ele>
        <time>2015-10-28T14:28:44.000Z</time>
      </trkpt>
      <trkpt lat="43.51552" lon="2.26582">
        <ele>370</ele>
        <time>2015-10-28T14:28:51.000Z</time>
      </trkpt>
      <trkpt lat="43.51543" lon="2.26578">
        <ele>371.2</ele>
        <time>2015-10-28T14:28:59.000Z</time>
      </trkpt>
      <trkpt lat="43.51534" lon="2.26576">
        <ele>372.2</ele>
        <time>2015-10-28T14:29:6.000Z</time>
      </trkpt>
      <trkpt lat="43.51524" lon="2.26575">
        <ele>373.3</ele>
        <time>2015-10-28T14:29:15.000Z</time>
      </trkpt>
      <trkpt lat="43.51514" lon="2.26575">
        <ele>374.3</ele>
        <time>2015-10-28T14:29:23.000Z</time>
      </trkpt>
      <trkpt lat="43.51505" lon="2.26574">
        <ele>375.2</ele>
        <time>2015-10-28T14:29:31.000Z</time>
      </trkpt>
      <trkpt lat="43.51495" lon="2.26571">
        <ele>376</ele>
        <time>2015-10-28T14:29:38.000Z</time>
      </trkpt>
      <trkpt lat="43.51486" lon="2.26569">
        <ele>376.9</ele>
        <time>2015-10-28T14:29:46.000Z</time>
      </trkpt>
      <trkpt lat="43.51476" lon="2.26568">
        <ele>377.6</ele>
        <time>2015-10-28T14:29:53.000Z</time>
      </trkpt>
      <trkpt lat="43.51467" lon="2.26566">
        <ele>378.3</ele>
        <time>2015-10-28T14:30:0.000Z</time>
      </trkpt>
      <trkpt lat="43.51458" lon="2.26562">
        <ele>379</ele>
        <time>2015-10-28T14:30:6.000Z</time>
      </trkpt>
      <trkpt lat="43.5145" lon="2.26556">
        <ele>380</ele>
        <time>2015-10-28T14:30:15.000Z</time>
      </trkpt>
      <trkpt lat="43.51442" lon="2.26548">
        <ele>380.5</ele>
        <time>2015-10-28T14:30:22.000Z</time>
      </trkpt>
      <trkpt lat="43.51437" lon="2.26536">
        <ele>381.2</ele>
        <time>2015-10-28T14:30:30.000Z</time>
      </trkpt>
      <trkpt lat="43.51433" lon="2.26525">
        <ele>381.9</ele>
        <time>2015-10-28T14:30:38.000Z</time>
      </trkpt>
      <trkpt lat="43.51429" lon="2.26512">
        <ele>382.8</ele>
        <time>2015-10-28T14:30:46.000Z</time>
      </trkpt>
      <trkpt lat="43.51426" lon="2.26499">
        <ele>383.5</ele>
        <time>2015-10-28T14:30:53.000Z</time>
      </trkpt>
      <trkpt lat="43.51422" lon="2.26487">
        <ele>384.2</ele>
        <time>2015-10-28T14:31:0.000Z</time>
      </trkpt>
      <trkpt lat="43.51418" lon="2.26475">
        <ele>385.1</ele>
        <time>2015-10-28T14:31:8.000Z</time>
      </trkpt>
      <trkpt lat="43.51415" lon="2.26462">
        <ele>385.7</ele>
        <time>2015-10-28T14:31:16.000Z</time>
      </trkpt>
      <trkpt lat="43.51411" lon="2.26451">
        <ele>385.9</ele>
        <time>2015-10-28T14:31:23.000Z</time>
      </trkpt>
      <trkpt lat="43.51406" lon="2.26439">
        <ele>385.6</ele>
        <time>2015-10-28T14:31:31.000Z</time>
      </trkpt>
      <trkpt lat="43.51401" lon="2.26428">
        <ele>385.7</ele>
        <time>2015-10-28T14:31:38.000Z</time>
      </trkpt>
      <trkpt lat="43.51395" lon="2.26417">
        <ele>385.8</ele>
        <time>2015-10-28T14:31:46.000Z</time>
      </trkpt>
      <trkpt lat="43.5139" lon="2.26406">
        <ele>386</ele>
        <time>2015-10-28T14:31:53.000Z</time>
      </trkpt>
      <trkpt lat="43.51384" lon="2.26395">
        <ele>386.1</ele>
        <time>2015-10-28T14:32:1.000Z</time>
      </trkpt>
      <trkpt lat="43.51378" lon="2.26386">
        <ele>385.9</ele>
        <time>2015-10-28T14:32:8.000Z</time>
      </trkpt>
      <trkpt lat="43.51371" lon="2.26376">
        <ele>385.7</ele>
        <time>2015-10-28T14:32:16.000Z</time>
      </trkpt>
      <trkpt lat="43.51364" lon="2.26366">
        <ele>385.5</ele>
        <time>2015-10-28T14:32:23.000Z</time>
      </trkpt>
      <trkpt lat="43.51358" lon="2.26356">
        <ele>385.2</ele>
        <time>2015-10-28T14:32:30.000Z</time>
      </trkpt>
      <trkpt lat="43.51351" lon="2.26347">
        <ele>384.9</ele>
        <time>2015-10-28T14:32:37.000Z</time>
      </trkpt>
      <trkpt lat="43.51343" lon="2.26337">
        <ele>384.4</ele>
        <time>2015-10-28T14:32:45.000Z</time>
      </trkpt>
      <trkpt lat="43.51336" lon="2.26328">
        <ele>384</ele>
        <time>2015-10-28T14:32:52.000Z</time>
      </trkpt>
      <trkpt lat="43.51327" lon="2.26321">
        <ele>383.6</ele>
        <time>2015-10-28T14:32:59.000Z</time>
      </trkpt>
      <trkpt lat="43.51318" lon="2.26315">
        <ele>382.8</ele>
        <time>2015-10-28T14:33:7.000Z</time>
      </trkpt>
      <trkpt lat="43.51309" lon="2.26308">
        <ele>382</ele>
        <time>2015-10-28T14:33:14.000Z</time>
      </trkpt>
      <trkpt lat="43.513" lon="2.26303">
        <ele>381.2</ele>
        <time>2015-10-28T14:33:22.000Z</time>
      </trkpt>
      <trkpt lat="43.51292" lon="2.26297">
        <ele>380.4</ele>
        <time>2015-10-28T14:33:29.000Z</time>
      </trkpt>
      <trkpt lat="43.51283" lon="2.26291">
        <ele>379.5</ele>
        <time>2015-10-28T14:33:36.000Z</time>
      </trkpt>
      <trkpt lat="43.51274" lon="2.26285">
        <ele>378.5</ele>
        <time>2015-10-28T14:33:44.000Z</time>
      </trkpt>
      <trkpt lat="43.51267" lon="2.26276">
        <ele>377.4</ele>
        <time>2015-10-28T14:33:52.000Z</time>
      </trkpt>
      <trkpt lat="43.51261" lon="2.26266">
        <ele>376.4</ele>
        <time>2015-10-28T14:34:0.000Z</time>
      </trkpt>
      <trkpt lat="43.51259" lon="2.26254">
        <ele>375.5</ele>
        <time>2015-10-28T14:34:8.000Z</time>
      </trkpt>
      <trkpt lat="43.51257" lon="2.26242">
        <ele>374.8</ele>
        <time>2015-10-28T14:34:15.000Z</time>
      </trkpt>
      <trkpt lat="43.51256" lon="2.26229">
        <ele>374.2</ele>
        <time>2015-10-28T14:34:22.000Z</time>
      </trkpt>
      <trkpt lat="43.51255" lon="2.26216">
        <ele>373.5</ele>
        <time>2015-10-28T14:34:29.000Z</time>
      </trkpt>
      <trkpt lat="43.51255" lon="2.26203">
        <ele>372.6</ele>
        <time>2015-10-28T14:34:37.000Z</time>
      </trkpt>
      <trkpt lat="43.51252" lon="2.26189">
        <ele>371.7</ele>
        <time>2015-10-28T14:34:46.000Z</time>
      </trkpt>
      <trkpt lat="43.5125" lon="2.26177">
        <ele>371.1</ele>
        <time>2015-10-28T14:34:53.000Z</time>
      </trkpt>
      <trkpt lat="43.51249" lon="2.26164">
        <ele>370.4</ele>
        <time>2015-10-28T14:35:1.000Z</time>
      </trkpt>
      <trkpt lat="43.51249" lon="2.26151">
        <ele>369.9</ele>
        <time>2015-10-28T14:35:8.000Z</time>
      </trkpt>
      <trkpt lat="43.51249" lon="2.26138">
        <ele>369.3</ele>
        <time>2015-10-28T14:35:16.000Z</time>
      </trkpt>
      <trkpt lat="43.51248" lon="2.26126">
        <ele>368.9</ele>
        <time>2015-10-28T14:35:22.000Z</time>
      </trkpt>
      <trkpt lat="43.51248" lon="2.26113">
        <ele>368.4</ele>
        <time>2015-10-28T14:35:29.000Z</time>
      </trkpt>
      <trkpt lat="43.51249" lon="2.26101">
        <ele>367.9</ele>
        <time>2015-10-28T14:35:36.000Z</time>
      </trkpt>
      <trkpt lat="43.51251" lon="2.26088">
        <ele>367.2</ele>
        <time>2015-10-28T14:35:45.000Z</time>
      </trkpt>
      <trkpt lat="43.51253" lon="2.26074">
        <ele>366.5</ele>
        <time>2015-10-28T14:35:54.000Z</time>
      </trkpt>
      <trkpt lat="43.51254" lon="2.26061">
        <ele>365.8</ele>
        <time>2015-10-28T14:36:2.000Z</time>
      </trkpt>
      <trkpt lat="43.51255" lon="2.26048">
        <ele>365.2</ele>
        <time>2015-10-28T14:36:10.000Z</time>
      </trkpt>
      <trkpt lat="43.51258" lon="2.26036">
        <ele>364.6</ele>
        <time>2015-10-28T14:36:18.000Z</time>
      </trkpt>
      <trkpt lat="43.51259" lon="2.26023">
        <ele>364</ele>
        <time>2015-10-28T14:36:26.000Z</time>
      </trkpt>
      <trkpt lat="43.51262" lon="2.26011">
        <ele>363.5</ele>
        <time>2015-10-28T14:36:34.000Z</time>
      </trkpt>
      <trkpt lat="43.51265" lon="2.25998">
        <ele>363</ele>
        <time>2015-10-28T14:36:41.000Z</time>
      </trkpt>
      <trkpt lat="43.51267" lon="2.25984">
        <ele>362.4</ele>
        <time>2015-10-28T14:36:50.000Z</time>
      </trkpt>
      <trkpt lat="43.51271" lon="2.25971">
        <ele>361.7</ele>
        <time>2015-10-28T14:36:59.000Z</time>
      </trkpt>
      <trkpt lat="43.51272" lon="2.25958">
        <ele>361.2</ele>
        <time>2015-10-28T14:37:7.000Z</time>
      </trkpt>
      <trkpt lat="43.51276" lon="2.25947">
        <ele>360.3</ele>
        <time>2015-10-28T14:37:20.000Z</time>
      </trkpt>
      <trkpt lat="43.5128" lon="2.25935">
        <ele>359.6</ele>
        <time>2015-10-28T14:37:31.000Z</time>
      </trkpt>
      <trkpt lat="43.51282" lon="2.25923">
        <ele>359.1</ele>
        <time>2015-10-28T14:37:39.000Z</time>
      </trkpt>
      <trkpt lat="43.51285" lon="2.25911">
        <ele>358.6</ele>
        <time>2015-10-28T14:37:46.000Z</time>
      </trkpt>
      <trkpt lat="43.51287" lon="2.25899">
        <ele>358.3</ele>
        <time>2015-10-28T14:37:54.000Z</time>
      </trkpt>
      <trkpt lat="43.51289" lon="2.25886">
        <ele>357.9</ele>
        <time>2015-10-28T14:38:2.000Z</time>
      </trkpt>
      <trkpt lat="43.51291" lon="2.25873">
        <ele>357.5</ele>
        <time>2015-10-28T14:38:11.000Z</time>
      </trkpt>
      <trkpt lat="43.51295" lon="2.25861">
        <ele>357</ele>
        <time>2015-10-28T14:38:19.000Z</time>
      </trkpt>
      <trkpt lat="43.51297" lon="2.25848">
        <ele>356.5</ele>
        <time>2015-10-28T14:38:28.000Z</time>
      </trkpt>
      <trkpt lat="43.51299" lon="2.25836">
        <ele>356.2</ele>
        <time>2015-10-28T14:38:36.000Z</time>
      </trkpt>
      <trkpt lat="43.51302" lon="2.25824">
        <ele>355.9</ele>
        <time>2015-10-28T14:38:43.000Z</time>
      </trkpt>
      <trkpt lat="43.51306" lon="2.25812">
        <ele>355.4</ele>
        <time>2015-10-28T14:38:53.000Z</time>
      </trkpt>
      <trkpt lat="43.51308" lon="2.25799">
        <ele>355</ele>
        <time>2015-10-28T14:39:2.000Z</time>
      </trkpt>
      <trkpt lat="43.51309" lon="2.25787">
        <ele>354.8</ele>
        <time>2015-10-28T14:39:10.000Z</time>
      </trkpt>
      <trkpt lat="43.51308" lon="2.25773">
        <ele>354.5</ele>
        <time>2015-10-28T14:39:17.000Z</time>
      </trkpt>
      <trkpt lat="43.51306" lon="2.25759">
        <ele>354.2</ele>
        <time>2015-10-28T14:39:25.000Z</time>
      </trkpt>
      <trkpt lat="43.51308" lon="2.25746">
        <ele>353.7</ele>
        <time>2015-10-28T14:39:35.000Z</time>
      </trkpt>
      <trkpt lat="43.51307" lon="2.25733">
        <ele>353.4</ele>
        <time>2015-10-28T14:39:43.000Z</time>
      </trkpt>
      <trkpt lat="43.51306" lon="2.2572">
        <ele>353.1</ele>
        <time>2015-10-28T14:39:52.000Z</time>
      </trkpt>
      <trkpt lat="43.51306" lon="2.25707">
        <ele>352.8</ele>
        <time>2015-10-28T14:40:0.000Z</time>
      </trkpt>
      <trkpt lat="43.51307" lon="2.25695">
        <ele>352.5</ele>
        <time>2015-10-28T14:40:8.000Z</time>
      </trkpt>
      <trkpt lat="43.51309" lon="2.25683">
        <ele>352.2</ele>
        <time>2015-10-28T14:40:17.000Z</time>
      </trkpt>
      <trkpt lat="43.51308" lon="2.2567">
        <ele>351.9</ele>
        <time>2015-10-28T14:40:24.000Z</time>
      </trkpt>
      <trkpt lat="43.51308" lon="2.25657">
        <ele>351.7</ele>
        <time>2015-10-28T14:40:31.000Z</time>
      </trkpt>
      <trkpt lat="43.51308" lon="2.25644">
        <ele>351.4</ele>
        <time>2015-10-28T14:40:40.000Z</time>
      </trkpt>
      <trkpt lat="43.51309" lon="2.25631">
        <ele>351.3</ele>
        <time>2015-10-28T14:40:48.000Z</time>
      </trkpt>
      <trkpt lat="43.51309" lon="2.25616">
        <ele>351.3</ele>
        <time>2015-10-28T14:40:56.000Z</time>
      </trkpt>
      <trkpt lat="43.51308" lon="2.25603">
        <ele>351.1</ele>
        <time>2015-10-28T14:41:5.000Z</time>
      </trkpt>
      <trkpt lat="43.51305" lon="2.25591">
        <ele>350.9</ele>
        <time>2015-10-28T14:41:13.000Z</time>
      </trkpt>
      <trkpt lat="43.51302" lon="2.25578">
        <ele>350.6</ele>
        <time>2015-10-28T14:41:21.000Z</time>
      </trkpt>
      <trkpt lat="43.51298" lon="2.25566">
        <ele>350.3</ele>
        <time>2015-10-28T14:41:31.000Z</time>
      </trkpt>
      <trkpt lat="43.51292" lon="2.25555">
        <ele>350.2</ele>
        <time>2015-10-28T14:41:39.000Z</time>
      </trkpt>
      <trkpt lat="43.51287" lon="2.25545">
        <ele>350.2</ele>
        <time>2015-10-28T14:41:48.000Z</time>
      </trkpt>
      <trkpt lat="43.5128" lon="2.25535">
        <ele>350.1</ele>
        <time>2015-10-28T14:41:56.000Z</time>
      </trkpt>
      <trkpt lat="43.51274" lon="2.25526">
        <ele>349.9</ele>
        <time>2015-10-28T14:42:4.000Z</time>
      </trkpt>
      <trkpt lat="43.51268" lon="2.25516">
        <ele>349.8</ele>
        <time>2015-10-28T14:42:11.000Z</time>
      </trkpt>
      <trkpt lat="43.51264" lon="2.25505">
        <ele>349.5</ele>
        <time>2015-10-28T14:42:18.000Z</time>
      </trkpt>
      <trkpt lat="43.51258" lon="2.25496">
        <ele>349.2</ele>
        <time>2015-10-28T14:42:25.000Z</time>
      </trkpt>
      <trkpt lat="43.51253" lon="2.25484">
        <ele>348.8</ele>
        <time>2015-10-28T14:42:33.000Z</time>
      </trkpt>
      <trkpt lat="43.51246" lon="2.25474">
        <ele>348.4</ele>
        <time>2015-10-28T14:42:42.000Z</time>
      </trkpt>
      <trkpt lat="43.51243" lon="2.25462">
        <ele>347.9</ele>
        <time>2015-10-28T14:42:52.000Z</time>
      </trkpt>
      <trkpt lat="43.51253" lon="2.25463">
        <ele>344.4</ele>
        <time>2015-10-28T14:43:53.000Z</time>
      </trkpt>
      <trkpt lat="43.51262" lon="2.25461">
        <ele>343.9</ele>
        <time>2015-10-28T14:44:1.000Z</time>
      </trkpt>
      <trkpt lat="43.51271" lon="2.25459">
        <ele>343.3</ele>
        <time>2015-10-28T14:44:10.000Z</time>
      </trkpt>
      <trkpt lat="43.51281" lon="2.25457">
        <ele>342.7</ele>
        <time>2015-10-28T14:44:18.000Z</time>
      </trkpt>
      <trkpt lat="43.51291" lon="2.2546">
        <ele>342.2</ele>
        <time>2015-10-28T14:44:26.000Z</time>
      </trkpt>
      <trkpt lat="43.513" lon="2.25459">
        <ele>341.7</ele>
        <time>2015-10-28T14:44:34.000Z</time>
      </trkpt>
      <trkpt lat="43.51309" lon="2.25457">
        <ele>341.2</ele>
        <time>2015-10-28T14:44:41.000Z</time>
      </trkpt>
      <trkpt lat="43.51319" lon="2.25455">
        <ele>340.6</ele>
        <time>2015-10-28T14:44:50.000Z</time>
      </trkpt>
      <trkpt lat="43.51329" lon="2.25454">
        <ele>340</ele>
        <time>2015-10-28T14:44:58.000Z</time>
      </trkpt>
      <trkpt lat="43.51339" lon="2.25453">
        <ele>339.3</ele>
        <time>2015-10-28T14:45:7.000Z</time>
      </trkpt>
      <trkpt lat="43.51349" lon="2.25454">
        <ele>338.7</ele>
        <time>2015-10-28T14:45:15.000Z</time>
      </trkpt>
      <trkpt lat="43.51358" lon="2.25456">
        <ele>337.9</ele>
        <time>2015-10-28T14:45:23.000Z</time>
      </trkpt>
      <trkpt lat="43.51368" lon="2.25456">
        <ele>337.2</ele>
        <time>2015-10-28T14:45:32.000Z</time>
      </trkpt>
      <trkpt lat="43.51378" lon="2.25455">
        <ele>336.6</ele>
        <time>2015-10-28T14:45:40.000Z</time>
      </trkpt>
      <trkpt lat="43.51388" lon="2.25455">
        <ele>336.1</ele>
        <time>2015-10-28T14:45:47.000Z</time>
      </trkpt>
      <trkpt lat="43.51398" lon="2.25454">
        <ele>335.6</ele>
        <time>2015-10-28T14:45:54.000Z</time>
      </trkpt>
      <trkpt lat="43.51408" lon="2.25453">
        <ele>335.1</ele>
        <time>2015-10-28T14:46:1.000Z</time>
      </trkpt>
      <trkpt lat="43.51417" lon="2.25451">
        <ele>334.6</ele>
        <time>2015-10-28T14:46:9.000Z</time>
      </trkpt>
      <trkpt lat="43.51426" lon="2.25449">
        <ele>334.1</ele>
        <time>2015-10-28T14:46:17.000Z</time>
      </trkpt>
      <trkpt lat="43.51436" lon="2.25446">
        <ele>333.5</ele>
        <time>2015-10-28T14:46:25.000Z</time>
      </trkpt>
      <trkpt lat="43.51445" lon="2.25442">
        <ele>333</ele>
        <time>2015-10-28T14:46:33.000Z</time>
      </trkpt>
      <trkpt lat="43.51454" lon="2.25438">
        <ele>332.2</ele>
        <time>2015-10-28T14:46:40.000Z</time>
      </trkpt>
      <trkpt lat="43.51463" lon="2.25432">
        <ele>331.7</ele>
        <time>2015-10-28T14:46:48.000Z</time>
      </trkpt>
      <trkpt lat="43.51472" lon="2.25427">
        <ele>331.1</ele>
        <time>2015-10-28T14:46:56.000Z</time>
      </trkpt>
      <trkpt lat="43.51481" lon="2.25423">
        <ele>330.7</ele>
        <time>2015-10-28T14:47:4.000Z</time>
      </trkpt>
      <trkpt lat="43.5149" lon="2.25421">
        <ele>330.4</ele>
        <time>2015-10-28T14:47:11.000Z</time>
      </trkpt>
      <trkpt lat="43.515" lon="2.25421">
        <ele>329.9</ele>
        <time>2015-10-28T14:47:19.000Z</time>
      </trkpt>
      <trkpt lat="43.51509" lon="2.25419">
        <ele>329.6</ele>
        <time>2015-10-28T14:47:28.000Z</time>
      </trkpt>
      <trkpt lat="43.51518" lon="2.25419">
        <ele>329.4</ele>
        <time>2015-10-28T14:47:36.000Z</time>
      </trkpt>
      <trkpt lat="43.51527" lon="2.25417">
        <ele>329.2</ele>
        <time>2015-10-28T14:47:43.000Z</time>
      </trkpt>
      <trkpt lat="43.51536" lon="2.25415">
        <ele>329.2</ele>
        <time>2015-10-28T14:47:50.000Z</time>
      </trkpt>
      <trkpt lat="43.51546" lon="2.25413">
        <ele>329</ele>
        <time>2015-10-28T14:47:58.000Z</time>
      </trkpt>
      <trkpt lat="43.51555" lon="2.25411">
        <ele>328.9</ele>
        <time>2015-10-28T14:48:5.000Z</time>
      </trkpt>
      <trkpt lat="43.51563" lon="2.25406">
        <ele>328.6</ele>
        <time>2015-10-28T14:48:13.000Z</time>
      </trkpt>
      <trkpt lat="43.51572" lon="2.25402">
        <ele>328.5</ele>
        <time>2015-10-28T14:48:21.000Z</time>
      </trkpt>
      <trkpt lat="43.5158" lon="2.25396">
        <ele>327.4</ele>
        <time>2015-10-28T14:48:28.000Z</time>
      </trkpt>
      <trkpt lat="43.51589" lon="2.25392">
        <ele>327.4</ele>
        <time>2015-10-28T14:48:35.000Z</time>
      </trkpt>
      <trkpt lat="43.51598" lon="2.25387">
        <ele>326.9</ele>
        <time>2015-10-28T14:48:44.000Z</time>
      </trkpt>
      <trkpt lat="43.51607" lon="2.25382">
        <ele>326</ele>
        <time>2015-10-28T14:48:52.000Z</time>
      </trkpt>
      <trkpt lat="43.51616" lon="2.25377">
        <ele>324.3</ele>
        <time>2015-10-28T14:49:0.000Z</time>
      </trkpt>
      <trkpt lat="43.51626" lon="2.25373">
        <ele>321.8</ele>
        <time>2015-10-28T14:49:8.000Z</time>
      </trkpt>
      <trkpt lat="43.51635" lon="2.25367">
        <ele>318.2</ele>
        <time>2015-10-28T14:49:17.000Z</time>
      </trkpt>
      <trkpt lat="43.51643" lon="2.25361">
        <ele>314</ele>
        <time>2015-10-28T14:49:25.000Z</time>
      </trkpt>
      <trkpt lat="43.51652" lon="2.25355">
        <ele>311</ele>
        <time>2015-10-28T14:49:32.000Z</time>
      </trkpt>
      <trkpt lat="43.51661" lon="2.25348">
        <ele>308.2</ele>
        <time>2015-10-28T14:49:39.000Z</time>
      </trkpt>
      <trkpt lat="43.51668" lon="2.25339">
        <ele>304.5</ele>
        <time>2015-10-28T14:49:48.000Z</time>
      </trkpt>
      <trkpt lat="43.51675" lon="2.2533">
        <ele>300.9</ele>
        <time>2015-10-28T14:49:57.000Z</time>
      </trkpt>
      <trkpt lat="43.51684" lon="2.25324">
        <ele>298.7</ele>
        <time>2015-10-28T14:50:3.000Z</time>
      </trkpt>
      <trkpt lat="43.51693" lon="2.25318">
        <ele>296.2</ele>
        <time>2015-10-28T14:50:10.000Z</time>
      </trkpt>
      <trkpt lat="43.51701" lon="2.25311">
        <ele>293.6</ele>
        <time>2015-10-28T14:50:18.000Z</time>
      </trkpt>
      <trkpt lat="43.51708" lon="2.25303">
        <ele>291.6</ele>
        <time>2015-10-28T14:50:24.000Z</time>
      </trkpt>
      <trkpt lat="43.51716" lon="2.25293">
        <ele>289.4</ele>
        <time>2015-10-28T14:50:32.000Z</time>
      </trkpt>
      <trkpt lat="43.51725" lon="2.25286">
        <ele>287.5</ele>
        <time>2015-10-28T14:50:39.000Z</time>
      </trkpt>
      <trkpt lat="43.51732" lon="2.25278">
        <ele>285.7</ele>
        <time>2015-10-28T14:50:46.000Z</time>
      </trkpt>
      <trkpt lat="43.51741" lon="2.25273">
        <ele>283.8</ele>
        <time>2015-10-28T14:50:53.000Z</time>
      </trkpt>
      <trkpt lat="43.5175" lon="2.25269">
        <ele>281.8</ele>
        <time>2015-10-28T14:51:2.000Z</time>
      </trkpt>
      <trkpt lat="43.51759" lon="2.25271">
        <ele>280.3</ele>
        <time>2015-10-28T14:51:11.000Z</time>
      </trkpt>
      <trkpt lat="43.51768" lon="2.25275">
        <ele>279</ele>
        <time>2015-10-28T14:51:18.000Z</time>
      </trkpt>
      <trkpt lat="43.51778" lon="2.25279">
        <ele>277.3</ele>
        <time>2015-10-28T14:51:27.000Z</time>
      </trkpt>
      <trkpt lat="43.51789" lon="2.25281">
        <ele>275.9</ele>
        <time>2015-10-28T14:51:35.000Z</time>
      </trkpt>
      <trkpt lat="43.51798" lon="2.25283">
        <ele>274.4</ele>
        <time>2015-10-28T14:51:43.000Z</time>
      </trkpt>
      <trkpt lat="43.51808" lon="2.25285">
        <ele>273.2</ele>
        <time>2015-10-28T14:51:49.000Z</time>
      </trkpt>
      <trkpt lat="43.51817" lon="2.25287">
        <ele>271.8</ele>
        <time>2015-10-28T14:51:58.000Z</time>
      </trkpt>
      <trkpt lat="43.51826" lon="2.25287">
        <ele>270.8</ele>
        <time>2015-10-28T14:52:5.000Z</time>
      </trkpt>
      <trkpt lat="43.51835" lon="2.25291">
        <ele>269.9</ele>
        <time>2015-10-28T14:52:11.000Z</time>
      </trkpt>
      <trkpt lat="43.51844" lon="2.25294">
        <ele>267.6</ele>
        <time>2015-10-28T14:52:25.000Z</time>
      </trkpt>
      <trkpt lat="43.51859" lon="2.25301">
        <ele>264</ele>
        <time>2015-10-28T14:52:45.000Z</time>
      </trkpt>
      <trkpt lat="43.5187" lon="2.25303">
        <ele>264.1</ele>
        <time>2015-10-28T14:52:50.000Z</time>
      </trkpt>
      <trkpt lat="43.51882" lon="2.25306">
        <ele>263.3</ele>
        <time>2015-10-28T14:52:55.000Z</time>
      </trkpt>
      <trkpt lat="43.51891" lon="2.25304">
        <ele>262.8</ele>
        <time>2015-10-28T14:52:59.000Z</time>
      </trkpt>
      <trkpt lat="43.519" lon="2.25303">
        <ele>262.3</ele>
        <time>2015-10-28T14:53:3.000Z</time>
      </trkpt>
      <trkpt lat="43.51906" lon="2.25292">
        <ele>261.4</ele>
        <time>2015-10-28T14:53:11.000Z</time>
      </trkpt>
      <trkpt lat="43.51905" lon="2.25279">
        <ele>260.7</ele>
        <time>2015-10-28T14:53:19.000Z</time>
      </trkpt>
      <trkpt lat="43.51907" lon="2.25267">
        <ele>257.9</ele>
        <time>2015-10-28T14:53:34.000Z</time>
      </trkpt>
      <trkpt lat="43.51904" lon="2.25254">
        <ele>255.4</ele>
        <time>2015-10-28T14:53:41.000Z</time>
      </trkpt>
      <trkpt lat="43.51903" lon="2.2524">
        <ele>254.4</ele>
        <time>2015-10-28T14:53:51.000Z</time>
      </trkpt>
      <trkpt lat="43.51899" lon="2.25228">
        <ele>254.6</ele>
        <time>2015-10-28T14:54:0.000Z</time>
      </trkpt>
      <trkpt lat="43.51901" lon="2.25215">
        <ele>254</ele>
        <time>2015-10-28T14:54:11.000Z</time>
      </trkpt>
      <trkpt lat="43.51902" lon="2.25202">
        <ele>254.1</ele>
        <time>2015-10-28T14:54:21.000Z</time>
      </trkpt>
      <trkpt lat="43.51907" lon="2.25191">
        <ele>255.5</ele>
        <time>2015-10-28T14:54:29.000Z</time>
      </trkpt>
      <trkpt lat="43.51913" lon="2.25181">
        <ele>256.2</ele>
        <time>2015-10-28T14:54:39.000Z</time>
      </trkpt>
      <trkpt lat="43.51918" lon="2.25171">
        <ele>256.7</ele>
        <time>2015-10-28T14:54:48.000Z</time>
      </trkpt>
      <trkpt lat="43.51923" lon="2.25159">
        <ele>257.2</ele>
        <time>2015-10-28T14:54:58.000Z</time>
      </trkpt>
      <trkpt lat="43.51929" lon="2.25148">
        <ele>257.3</ele>
        <time>2015-10-28T14:55:7.000Z</time>
      </trkpt>
      <trkpt lat="43.51935" lon="2.25137">
        <ele>256.8</ele>
        <time>2015-10-28T14:55:14.000Z</time>
      </trkpt>
      <trkpt lat="43.5194" lon="2.25127">
        <ele>257.3</ele>
        <time>2015-10-28T14:55:22.000Z</time>
      </trkpt>
      <trkpt lat="43.51945" lon="2.25116">
        <ele>258.2</ele>
        <time>2015-10-28T14:55:29.000Z</time>
      </trkpt>
      <trkpt lat="43.51949" lon="2.25104">
        <ele>259.9</ele>
        <time>2015-10-28T14:55:37.000Z</time>
      </trkpt>
      <trkpt lat="43.51958" lon="2.25099">
        <ele>261.7</ele>
        <time>2015-10-28T14:55:45.000Z</time>
      </trkpt>
      <trkpt lat="43.51967" lon="2.25102">
        <ele>263.6</ele>
        <time>2015-10-28T14:55:52.000Z</time>
      </trkpt>
      <trkpt lat="43.51976" lon="2.25107">
        <ele>265.4</ele>
        <time>2015-10-28T14:55:59.000Z</time>
      </trkpt>
      <trkpt lat="43.51984" lon="2.25112">
        <ele>266.9</ele>
        <time>2015-10-28T14:56:6.000Z</time>
      </trkpt>
      <trkpt lat="43.51994" lon="2.25117">
        <ele>268.5</ele>
        <time>2015-10-28T14:56:14.000Z</time>
      </trkpt>
      <trkpt lat="43.52002" lon="2.25123">
        <ele>269.5</ele>
        <time>2015-10-28T14:56:21.000Z</time>
      </trkpt>
      <trkpt lat="43.52011" lon="2.25118">
        <ele>270.6</ele>
        <time>2015-10-28T14:56:31.000Z</time>
      </trkpt>
      <trkpt lat="43.52018" lon="2.25108">
        <ele>270.9</ele>
        <time>2015-10-28T14:56:37.000Z</time>
      </trkpt>
      <trkpt lat="43.52025" lon="2.25097">
        <ele>270.9</ele>
        <time>2015-10-28T14:56:47.000Z</time>
      </trkpt>
      <trkpt lat="43.52031" lon="2.25088">
        <ele>270.8</ele>
        <time>2015-10-28T14:56:53.000Z</time>
      </trkpt>
      <trkpt lat="43.52035" lon="2.25076">
        <ele>270.5</ele>
        <time>2015-10-28T14:57:1.000Z</time>
      </trkpt>
      <trkpt lat="43.52034" lon="2.25063">
        <ele>270.2</ele>
        <time>2015-10-28T14:57:8.000Z</time>
      </trkpt>
      <trkpt lat="43.52037" lon="2.25051">
        <ele>269.7</ele>
        <time>2015-10-28T14:57:16.000Z</time>
      </trkpt>
      <trkpt lat="43.52041" lon="2.25039">
        <ele>269.4</ele>
        <time>2015-10-28T14:57:21.000Z</time>
      </trkpt>
      <trkpt lat="43.52042" lon="2.25026">
        <ele>268.5</ele>
        <time>2015-10-28T14:57:32.000Z</time>
      </trkpt>
      <trkpt lat="43.52044" lon="2.25013">
        <ele>267.6</ele>
        <time>2015-10-28T14:57:40.000Z</time>
      </trkpt>
      <trkpt lat="43.52046" lon="2.24999">
        <ele>266.5</ele>
        <time>2015-10-28T14:57:48.000Z</time>
      </trkpt>
      <trkpt lat="43.52049" lon="2.24987">
        <ele>265</ele>
        <time>2015-10-28T14:57:57.000Z</time>
      </trkpt>
      <trkpt lat="43.52052" lon="2.24974">
        <ele>263.8</ele>
        <time>2015-10-28T14:58:4.000Z</time>
      </trkpt>
      <trkpt lat="43.52057" lon="2.24963">
        <ele>262.5</ele>
        <time>2015-10-28T14:58:12.000Z</time>
      </trkpt>
      <trkpt lat="43.52059" lon="2.2495">
        <ele>260.6</ele>
        <time>2015-10-28T14:58:22.000Z</time>
      </trkpt>
      <trkpt lat="43.52064" lon="2.24939">
        <ele>258.6</ele>
        <time>2015-10-28T14:58:31.000Z</time>
      </trkpt>
      <trkpt lat="43.52065" lon="2.24925">
        <ele>257.2</ele>
        <time>2015-10-28T14:58:38.000Z</time>
      </trkpt>
      <trkpt lat="43.52067" lon="2.24913">
        <ele>255.5</ele>
        <time>2015-10-28T14:58:47.000Z</time>
      </trkpt>
      <trkpt lat="43.52077" lon="2.24911">
        <ele>254.1</ele>
        <time>2015-10-28T14:58:55.000Z</time>
      </trkpt>
      <trkpt lat="43.52087" lon="2.24914">
        <ele>252.3</ele>
        <time>2015-10-28T14:59:4.000Z</time>
      </trkpt>
      <trkpt lat="43.52096" lon="2.24918">
        <ele>249.9</ele>
        <time>2015-10-28T14:59:15.000Z</time>
      </trkpt>
      <trkpt lat="43.52105" lon="2.2492">
        <ele>247.5</ele>
        <time>2015-10-28T14:59:25.000Z</time>
      </trkpt>
      <trkpt lat="43.52114" lon="2.24921">
        <ele>245.2</ele>
        <time>2015-10-28T14:59:34.000Z</time>
      </trkpt>
      <trkpt lat="43.52123" lon="2.24923">
        <ele>242.2</ele>
        <time>2015-10-28T14:59:45.000Z</time>
      </trkpt>
      <trkpt lat="43.52133" lon="2.24925">
        <ele>240</ele>
        <time>2015-10-28T14:59:54.000Z</time>
      </trkpt>
      <trkpt lat="43.52142" lon="2.24927">
        <ele>237.9</ele>
        <time>2015-10-28T15:00:3.000Z</time>
      </trkpt>
      <trkpt lat="43.52152" lon="2.24928">
        <ele>236</ele>
        <time>2015-10-28T15:00:12.000Z</time>
      </trkpt>
      <trkpt lat="43.52161" lon="2.24931">
        <ele>234.2</ele>
        <time>2015-10-28T15:00:21.000Z</time>
      </trkpt>
      <trkpt lat="43.5217" lon="2.24937">
        <ele>232.7</ele>
        <time>2015-10-28T15:00:29.000Z</time>
      </trkpt>
      <trkpt lat="43.52179" lon="2.24937">
        <ele>230.5</ele>
        <time>2015-10-28T15:00:40.000Z</time>
      </trkpt>
      <trkpt lat="43.52189" lon="2.24937">
        <ele>228.6</ele>
        <time>2015-10-28T15:00:50.000Z</time>
      </trkpt>
      <trkpt lat="43.52198" lon="2.2494">
        <ele>227.3</ele>
        <time>2015-10-28T15:00:57.000Z</time>
      </trkpt>
      <trkpt lat="43.52207" lon="2.24946">
        <ele>225.3</ele>
        <time>2015-10-28T15:01:7.000Z</time>
      </trkpt>
      <trkpt lat="43.52215" lon="2.24952">
        <ele>223.5</ele>
        <time>2015-10-28T15:01:16.000Z</time>
      </trkpt>
      <trkpt lat="43.52224" lon="2.24956">
        <ele>221.3</ele>
        <time>2015-10-28T15:01:26.000Z</time>
      </trkpt>
      <trkpt lat="43.52233" lon="2.24961">
        <ele>220.1</ele>
        <time>2015-10-28T15:01:38.000Z</time>
      </trkpt>
      <trkpt lat="43.52241" lon="2.24968">
        <ele>218.3</ele>
        <time>2015-10-28T15:01:47.000Z</time>
      </trkpt>
      <trkpt lat="43.52251" lon="2.24966">
        <ele>216.3</ele>
        <time>2015-10-28T15:01:58.000Z</time>
      </trkpt>
      <trkpt lat="43.5226" lon="2.24969">
        <ele>212.6</ele>
        <time>2015-10-28T15:02:36.000Z</time>
      </trkpt>
      <trkpt lat="43.52269" lon="2.24976">
        <ele>212.3</ele>
        <time>2015-10-28T15:02:45.000Z</time>
      </trkpt>
      <trkpt lat="43.52278" lon="2.24981">
        <ele>211.7</ele>
        <time>2015-10-28T15:02:54.000Z</time>
      </trkpt>
      <trkpt lat="43.52285" lon="2.24989">
        <ele>211.2</ele>
        <time>2015-10-28T15:03:3.000Z</time>
      </trkpt>
      <trkpt lat="43.52294" lon="2.24993">
        <ele>210.6</ele>
        <time>2015-10-28T15:03:11.000Z</time>
      </trkpt>
      <trkpt lat="43.52304" lon="2.24997">
        <ele>210.3</ele>
        <time>2015-10-28T15:03:17.000Z</time>
      </trkpt>
      <trkpt lat="43.52313" lon="2.25003">
        <ele>210.2</ele>
        <time>2015-10-28T15:03:25.000Z</time>
      </trkpt>
      <trkpt lat="43.52321" lon="2.25011">
        <ele>209.9</ele>
        <time>2015-10-28T15:03:33.000Z</time>
      </trkpt>
      <trkpt lat="43.5233" lon="2.25017">
        <ele>210.3</ele>
        <time>2015-10-28T15:03:42.000Z</time>
      </trkpt>
      <trkpt lat="43.52337" lon="2.25026">
        <ele>209.6</ele>
        <time>2015-10-28T15:03:50.000Z</time>
      </trkpt>
      <trkpt lat="43.52346" lon="2.25031">
        <ele>209.7</ele>
        <time>2015-10-28T15:03:58.000Z</time>
      </trkpt>
      <trkpt lat="43.52355" lon="2.25036">
        <ele>209.2</ele>
        <time>2015-10-28T15:04:6.000Z</time>
      </trkpt>
      <trkpt lat="43.52364" lon="2.25043">
        <ele>209</ele>
        <time>2015-10-28T15:04:13.000Z</time>
      </trkpt>
      <trkpt lat="43.52373" lon="2.25048">
        <ele>209.1</ele>
        <time>2015-10-28T15:04:21.000Z</time>
      </trkpt>
      <trkpt lat="43.52383" lon="2.25053">
        <ele>209.3</ele>
        <time>2015-10-28T15:04:29.000Z</time>
      </trkpt>
      <trkpt lat="43.52391" lon="2.25059">
        <ele>209.2</ele>
        <time>2015-10-28T15:04:37.000Z</time>
      </trkpt>
      <trkpt lat="43.524" lon="2.25063">
        <ele>208.7</ele>
        <time>2015-10-28T15:04:44.000Z</time>
      </trkpt>
      <trkpt lat="43.5241" lon="2.25065">
        <ele>208.9</ele>
        <time>2015-10-28T15:04:50.000Z</time>
      </trkpt>
      <trkpt lat="43.5242" lon="2.25067">
        <ele>208.9</ele>
        <time>2015-10-28T15:04:56.000Z</time>
      </trkpt>
      <trkpt lat="43.5243" lon="2.25063">
        <ele>209.2</ele>
        <time>2015-10-28T15:05:3.000Z</time>
      </trkpt>
      <trkpt lat="43.52439" lon="2.25061">
        <ele>209.1</ele>
        <time>2015-10-28T15:05:11.000Z</time>
      </trkpt>
      <trkpt lat="43.52449" lon="2.2506">
        <ele>209.4</ele>
        <time>2015-10-28T15:05:21.000Z</time>
      </trkpt>
      <trkpt lat="43.52458" lon="2.25061">
        <ele>209.1</ele>
        <time>2015-10-28T15:05:28.000Z</time>
      </trkpt>
      <trkpt lat="43.52468" lon="2.25059">
        <ele>208.7</ele>
        <time>2015-10-28T15:05:35.000Z</time>
      </trkpt>
      <trkpt lat="43.52477" lon="2.25056">
        <ele>209.3</ele>
        <time>2015-10-28T15:05:43.000Z</time>
      </trkpt>
      <trkpt lat="43.52486" lon="2.25056">
        <ele>209.5</ele>
        <time>2015-10-28T15:05:49.000Z</time>
      </trkpt>
      <trkpt lat="43.52495" lon="2.25055">
        <ele>209.5</ele>
        <time>2015-10-28T15:05:55.000Z</time>
      </trkpt>
      <trkpt lat="43.52505" lon="2.25053">
        <ele>209.6</ele>
        <time>2015-10-28T15:06:2.000Z</time>
      </trkpt>
      <trkpt lat="43.52514" lon="2.2505">
        <ele>210.3</ele>
        <time>2015-10-28T15:06:12.000Z</time>
      </trkpt>
      <trkpt lat="43.52524" lon="2.25048">
        <ele>210.5</ele>
        <time>2015-10-28T15:06:20.000Z</time>
      </trkpt>
      <trkpt lat="43.52534" lon="2.25046">
        <ele>210.5</ele>
        <time>2015-10-28T15:06:28.000Z</time>
      </trkpt>
      <trkpt lat="43.52543" lon="2.25047">
        <ele>210.4</ele>
        <time>2015-10-28T15:06:35.000Z</time>
      </trkpt>
      <trkpt lat="43.52553" lon="2.25045">
        <ele>210.3</ele>
        <time>2015-10-28T15:06:45.000Z</time>
      </trkpt>
      <trkpt lat="43.52563" lon="2.25045">
        <ele>210</ele>
        <time>2015-10-28T15:06:52.000Z</time>
      </trkpt>
      <trkpt lat="43.52572" lon="2.25045">
        <ele>210.3</ele>
        <time>2015-10-28T15:06:59.000Z</time>
      </trkpt>
      <trkpt lat="43.52582" lon="2.25043">
        <ele>210.5</ele>
        <time>2015-10-28T15:07:6.000Z</time>
      </trkpt>
      <trkpt lat="43.52592" lon="2.25044">
        <ele>210</ele>
        <time>2015-10-28T15:07:14.000Z</time>
      </trkpt>
      <trkpt lat="43.52601" lon="2.25046">
        <ele>210</ele>
        <time>2015-10-28T15:07:21.000Z</time>
      </trkpt>
      <trkpt lat="43.5261" lon="2.25049">
        <ele>210</ele>
        <time>2015-10-28T15:07:29.000Z</time>
      </trkpt>
      <trkpt lat="43.52619" lon="2.25054">
        <ele>209.9</ele>
        <time>2015-10-28T15:07:36.000Z</time>
      </trkpt>
      <trkpt lat="43.52629" lon="2.25059">
        <ele>209.8</ele>
        <time>2015-10-28T15:07:44.000Z</time>
      </trkpt>
      <trkpt lat="43.52636" lon="2.25065">
        <ele>209.8</ele>
        <time>2015-10-28T15:07:51.000Z</time>
      </trkpt>
      <trkpt lat="43.52645" lon="2.25072">
        <ele>209.2</ele>
        <time>2015-10-28T15:07:58.000Z</time>
      </trkpt>
      <trkpt lat="43.52653" lon="2.25077">
        <ele>208.6</ele>
        <time>2015-10-28T15:08:5.000Z</time>
      </trkpt>
      <trkpt lat="43.52662" lon="2.25083">
        <ele>208.3</ele>
        <time>2015-10-28T15:08:13.000Z</time>
      </trkpt>
      <trkpt lat="43.5267" lon="2.25091">
        <ele>208.5</ele>
        <time>2015-10-28T15:08:21.000Z</time>
      </trkpt>
      <trkpt lat="43.52679" lon="2.25098">
        <ele>208.4</ele>
        <time>2015-10-28T15:08:29.000Z</time>
      </trkpt>
      <trkpt lat="43.52687" lon="2.25102">
        <ele>207.8</ele>
        <time>2015-10-28T15:08:36.000Z</time>
      </trkpt>
      <trkpt lat="43.52695" lon="2.2511">
        <ele>207.4</ele>
        <time>2015-10-28T15:08:47.000Z</time>
      </trkpt>
      <trkpt lat="43.52703" lon="2.25118">
        <ele>207.1</ele>
        <time>2015-10-28T15:08:55.000Z</time>
      </trkpt>
      <trkpt lat="43.52712" lon="2.25126">
        <ele>207.1</ele>
        <time>2015-10-28T15:09:2.000Z</time>
      </trkpt>
      <trkpt lat="43.52721" lon="2.25132">
        <ele>206.9</ele>
        <time>2015-10-28T15:09:10.000Z</time>
      </trkpt>
      <trkpt lat="43.5273" lon="2.25137">
        <ele>206.7</ele>
        <time>2015-10-28T15:09:16.000Z</time>
      </trkpt>
      <trkpt lat="43.52738" lon="2.25143">
        <ele>206.4</ele>
        <time>2015-10-28T15:09:23.000Z</time>
      </trkpt>
      <trkpt lat="43.52746" lon="2.2515">
        <ele>206.3</ele>
        <time>2015-10-28T15:09:30.000Z</time>
      </trkpt>
      <trkpt lat="43.52755" lon="2.25156">
        <ele>205.9</ele>
        <time>2015-10-28T15:09:37.000Z</time>
      </trkpt>
      <trkpt lat="43.52763" lon="2.25163">
        <ele>205.3</ele>
        <time>2015-10-28T15:09:45.000Z</time>
      </trkpt>
      <trkpt lat="43.52771" lon="2.25169">
        <ele>204.9</ele>
        <time>2015-10-28T15:09:53.000Z</time>
      </trkpt>
      <trkpt lat="43.52779" lon="2.25178">
        <ele>204.3</ele>
        <time>2015-10-28T15:10:2.000Z</time>
      </trkpt>
      <trkpt lat="43.52787" lon="2.25185">
        <ele>204.1</ele>
        <time>2015-10-28T15:10:9.000Z</time>
      </trkpt>
      <trkpt lat="43.52794" lon="2.25193">
        <ele>203.8</ele>
        <time>2015-10-28T15:10:17.000Z</time>
      </trkpt>
      <trkpt lat="43.52803" lon="2.252">
        <ele>203.9</ele>
        <time>2015-10-28T15:10:24.000Z</time>
      </trkpt>
      <trkpt lat="43.52811" lon="2.25206">
        <ele>203.5</ele>
        <time>2015-10-28T15:10:32.000Z</time>
      </trkpt>
      <trkpt lat="43.52817" lon="2.25215">
        <ele>203.1</ele>
        <time>2015-10-28T15:10:41.000Z</time>
      </trkpt>
      <trkpt lat="43.52825" lon="2.25221">
        <ele>203.2</ele>
        <time>2015-10-28T15:10:47.000Z</time>
      </trkpt>
      <trkpt lat="43.52833" lon="2.25228">
        <ele>202.8</ele>
        <time>2015-10-28T15:10:53.000Z</time>
      </trkpt>
      <trkpt lat="43.52839" lon="2.25238">
        <ele>202.9</ele>
        <time>2015-10-28T15:11:1.000Z</time>
      </trkpt>
      <trkpt lat="43.52846" lon="2.25249">
        <ele>202.7</ele>
        <time>2015-10-28T15:11:9.000Z</time>
      </trkpt>
      <trkpt lat="43.52856" lon="2.2525">
        <ele>202.6</ele>
        <time>2015-10-28T15:11:14.000Z</time>
      </trkpt>
      <trkpt lat="43.52862" lon="2.25259">
        <ele>201.9</ele>
        <time>2015-10-28T15:11:24.000Z</time>
      </trkpt>
      <trkpt lat="43.52861" lon="2.25272">
        <ele>202.3</ele>
        <time>2015-10-28T15:12:33.000Z</time>
      </trkpt>
      <trkpt lat="43.52859" lon="2.25286">
        <ele>202.6</ele>
        <time>2015-10-28T15:12:40.000Z</time>
      </trkpt>
      <trkpt lat="43.5286" lon="2.25299">
        <ele>202.7</ele>
        <time>2015-10-28T15:12:46.000Z</time>
      </trkpt>
      <trkpt lat="43.52862" lon="2.25312">
        <ele>202.8</ele>
        <time>2015-10-28T15:12:54.000Z</time>
      </trkpt>
      <trkpt lat="43.52863" lon="2.25324">
        <ele>202.1</ele>
        <time>2015-10-28T15:13:0.000Z</time>
      </trkpt>
      <trkpt lat="43.52866" lon="2.25336">
        <ele>202.6</ele>
        <time>2015-10-28T15:13:7.000Z</time>
      </trkpt>
      <trkpt lat="43.52869" lon="2.25348">
        <ele>202.1</ele>
        <time>2015-10-28T15:13:13.000Z</time>
      </trkpt>
      <trkpt lat="43.52871" lon="2.25362">
        <ele>201.6</ele>
        <time>2015-10-28T15:13:20.000Z</time>
      </trkpt>
      <trkpt lat="43.52873" lon="2.25375">
        <ele>200.9</ele>
        <time>2015-10-28T15:13:28.000Z</time>
      </trkpt>
      <trkpt lat="43.52875" lon="2.25388">
        <ele>199.7</ele>
        <time>2015-10-28T15:13:35.000Z</time>
      </trkpt>
      <trkpt lat="43.52876" lon="2.25402">
        <ele>198.7</ele>
        <time>2015-10-28T15:13:43.000Z</time>
      </trkpt>
      <trkpt lat="43.52879" lon="2.25416">
        <ele>197.1</ele>
        <time>2015-10-28T15:13:52.000Z</time>
      </trkpt>
      <trkpt lat="43.52886" lon="2.25427">
        <ele>196.2</ele>
        <time>2015-10-28T15:14:0.000Z</time>
      </trkpt>
      <trkpt lat="43.5289" lon="2.25438">
        <ele>195</ele>
        <time>2015-10-28T15:14:8.000Z</time>
      </trkpt>
      <trkpt lat="43.52895" lon="2.2545">
        <ele>194.7</ele>
        <time>2015-10-28T15:14:16.000Z</time>
      </trkpt>
      <trkpt lat="43.52896" lon="2.25463">
        <ele>193.7</ele>
        <time>2015-10-28T15:14:28.000Z</time>
      </trkpt>
      <trkpt lat="43.52896" lon="2.25476">
        <ele>193.4</ele>
        <time>2015-10-28T15:14:38.000Z</time>
      </trkpt>
      <trkpt lat="43.52903" lon="2.25485">
        <ele>194.4</ele>
        <time>2015-10-28T15:14:45.000Z</time>
      </trkpt>
      <trkpt lat="43.52913" lon="2.25486">
        <ele>194.5</ele>
        <time>2015-10-28T15:14:52.000Z</time>
      </trkpt>
      <trkpt lat="43.52922" lon="2.25483">
        <ele>194.4</ele>
        <time>2015-10-28T15:15:1.000Z</time>
      </trkpt>
      <trkpt lat="43.52931" lon="2.25482">
        <ele>193.7</ele>
        <time>2015-10-28T15:15:8.000Z</time>
      </trkpt>
      <trkpt lat="43.5294" lon="2.25481">
        <ele>193.8</ele>
        <time>2015-10-28T15:15:17.000Z</time>
      </trkpt>
      <trkpt lat="43.5295" lon="2.2548">
        <ele>193</ele>
        <time>2015-10-28T15:15:26.000Z</time>
      </trkpt>
      <trkpt lat="43.52959" lon="2.25479">
        <ele>193.3</ele>
        <time>2015-10-28T15:15:35.000Z</time>
      </trkpt>
      <trkpt lat="43.52969" lon="2.25478">
        <ele>193.3</ele>
        <time>2015-10-28T15:15:44.000Z</time>
      </trkpt>
      <trkpt lat="43.52979" lon="2.25476">
        <ele>192.9</ele>
        <time>2015-10-28T15:15:49.000Z</time>
      </trkpt>
      <trkpt lat="43.52989" lon="2.25474">
        <ele>192.8</ele>
        <time>2015-10-28T15:15:58.000Z</time>
      </trkpt>
      <trkpt lat="43.52998" lon="2.25476">
        <ele>192.5</ele>
        <time>2015-10-28T15:16:7.000Z</time>
      </trkpt>
      <trkpt lat="43.53008" lon="2.25481">
        <ele>192.4</ele>
        <time>2015-10-28T15:16:14.000Z</time>
      </trkpt>
      <trkpt lat="43.53017" lon="2.25485">
        <ele>192</ele>
        <time>2015-10-28T15:16:20.000Z</time>
      </trkpt>
      <trkpt lat="43.53026" lon="2.25491">
        <ele>191.5</ele>
        <time>2015-10-28T15:16:26.000Z</time>
      </trkpt>
      <trkpt lat="43.53035" lon="2.25497">
        <ele>191.4</ele>
        <time>2015-10-28T15:16:34.000Z</time>
      </trkpt>
      <trkpt lat="43.53044" lon="2.25501">
        <ele>190.9</ele>
        <time>2015-10-28T15:16:41.000Z</time>
      </trkpt>
      <trkpt lat="43.53053" lon="2.25508">
        <ele>191.1</ele>
        <time>2015-10-28T15:16:50.000Z</time>
      </trkpt>
      <trkpt lat="43.53061" lon="2.25514">
        <ele>190.6</ele>
        <time>2015-10-28T15:16:58.000Z</time>
      </trkpt>
      <trkpt lat="43.5307" lon="2.25518">
        <ele>190.1</ele>
        <time>2015-10-28T15:17:6.000Z</time>
      </trkpt>
      <trkpt lat="43.53079" lon="2.25523">
        <ele>189.9</ele>
        <time>2015-10-28T15:17:14.000Z</time>
      </trkpt>
      <trkpt lat="43.53089" lon="2.25529">
        <ele>190</ele>
        <time>2015-10-28T15:17:23.000Z</time>
      </trkpt>
      <trkpt lat="43.53098" lon="2.25533">
        <ele>189.4</ele>
        <time>2015-10-28T15:17:30.000Z</time>
      </trkpt>
      <trkpt lat="43.53108" lon="2.25533">
        <ele>189.2</ele>
        <time>2015-10-28T15:17:37.000Z</time>
      </trkpt>
      <trkpt lat="43.53117" lon="2.25537">
        <ele>188.9</ele>
        <time>2015-10-28T15:17:48.000Z</time>
      </trkpt>
      <trkpt lat="43.53125" lon="2.25544">
        <ele>188.2</ele>
        <time>2015-10-28T15:17:58.000Z</time>
      </trkpt>
      <trkpt lat="43.53134" lon="2.25544">
        <ele>188.2</ele>
        <time>2015-10-28T15:18:5.000Z</time>
      </trkpt>
      <trkpt lat="43.53143" lon="2.2554">
        <ele>187.9</ele>
        <time>2015-10-28T15:18:13.000Z</time>
      </trkpt>
      <trkpt lat="43.53147" lon="2.25529">
        <ele>188</ele>
        <time>2015-10-28T15:18:22.000Z</time>
      </trkpt>
      <trkpt lat="43.53128" lon="2.25537">
        <ele>184</ele>
        <time>2015-10-28T15:23:22.000Z</time>
      </trkpt>
      <trkpt lat="43.53127" lon="2.25538">
        <ele>183.3</ele>
        <time>2015-10-28T15:24:31.000Z</time>
      </trkpt>
    </trkseg>
  </trk>
</gpx>